<?xml version="1.0" encoding="UTF-8" standalone="no" ?>
<gpx xmlns="http://www.topografix.com/GPX/1/1" xmlns:xsi="http://www.w3.org/2001/XMLSchema-instance" xsi:schemaLocation="http://www.topografix.com/GPX/1/1 http://www.topografix.com/GPX/1/1/gpx.xsd" version="1.1" creator="VisuGPX - https://www.visugpx.com">
  <metadata>
    <name>Col de Charbonnière</name>
    <desc><![CDATA[Tour du mont Rosset]]></desc>
  </metadata>
  <trk>
    <name><![CDATA[Col de Charbonnière_1]]></name>
    <trkseg>
      <trkpt lat="45.59175" lon="6.67093">
        <ele>1432.217895</ele>
        <time>2012-02-18T08:24:42Z</time>
      </trkpt>
      <trkpt lat="45.59175" lon="6.67093">
        <ele>1432.37561</ele>
        <time>2012-02-18T08:24:43Z</time>
      </trkpt>
      <trkpt lat="45.59184" lon="6.6709">
        <ele>1430.4</ele>
        <time>2012-02-18T08:28:18Z</time>
      </trkpt>
      <trkpt lat="45.59193" lon="6.67094">
        <ele>1430.6</ele>
        <time>2012-02-18T08:30:52Z</time>
      </trkpt>
      <trkpt lat="45.59208" lon="6.67091">
        <ele>1431.3</ele>
        <time>2012-02-18T08:31:11Z</time>
      </trkpt>
      <trkpt lat="45.59216" lon="6.67089">
        <ele>1431.2</ele>
        <time>2012-02-18T08:31:19Z</time>
      </trkpt>
      <trkpt lat="45.59224" lon="6.67087">
        <ele>1432.1</ele>
        <time>2012-02-18T08:31:27Z</time>
      </trkpt>
      <trkpt lat="45.59233" lon="6.67086">
        <ele>1430.8</ele>
        <time>2012-02-18T08:31:35Z</time>
      </trkpt>
      <trkpt lat="45.59242" lon="6.67085">
        <ele>1432.1</ele>
        <time>2012-02-18T08:31:43Z</time>
      </trkpt>
      <trkpt lat="45.59251" lon="6.67085">
        <ele>1431.9</ele>
        <time>2012-02-18T08:31:51Z</time>
      </trkpt>
      <trkpt lat="45.59259" lon="6.67084">
        <ele>1431.2</ele>
        <time>2012-02-18T08:31:58Z</time>
      </trkpt>
      <trkpt lat="45.5926" lon="6.67084">
        <ele>1431.4</ele>
        <time>2012-02-18T08:31:59Z</time>
      </trkpt>
      <trkpt lat="45.59274" lon="6.67078">
        <ele>1431.8</ele>
        <time>2012-02-18T08:32:13Z</time>
      </trkpt>
      <trkpt lat="45.59282" lon="6.67075">
        <ele>1431.4</ele>
        <time>2012-02-18T08:32:21Z</time>
      </trkpt>
      <trkpt lat="45.5929" lon="6.67075">
        <ele>1431.4</ele>
        <time>2012-02-18T08:32:27Z</time>
      </trkpt>
      <trkpt lat="45.59298" lon="6.67073">
        <ele>1432.3</ele>
        <time>2012-02-18T08:32:35Z</time>
      </trkpt>
      <trkpt lat="45.59306" lon="6.67074">
        <ele>1432.6</ele>
        <time>2012-02-18T08:32:42Z</time>
      </trkpt>
      <trkpt lat="45.59315" lon="6.67073">
        <ele>1433.2</ele>
        <time>2012-02-18T08:32:49Z</time>
      </trkpt>
      <trkpt lat="45.59324" lon="6.67075">
        <ele>1433.1</ele>
        <time>2012-02-18T08:32:56Z</time>
      </trkpt>
      <trkpt lat="45.59332" lon="6.67078">
        <ele>1433.2</ele>
        <time>2012-02-18T08:33:02Z</time>
      </trkpt>
      <trkpt lat="45.59333" lon="6.67078">
        <ele>1433.3</ele>
        <time>2012-02-18T08:33:03Z</time>
      </trkpt>
      <trkpt lat="45.59347" lon="6.67086">
        <ele>1433.9</ele>
        <time>2012-02-18T08:33:15Z</time>
      </trkpt>
      <trkpt lat="45.59356" lon="6.67087">
        <ele>1432.3</ele>
        <time>2012-02-18T08:33:23Z</time>
      </trkpt>
      <trkpt lat="45.59364" lon="6.67087">
        <ele>1433.2</ele>
        <time>2012-02-18T08:33:30Z</time>
      </trkpt>
      <trkpt lat="45.59372" lon="6.67085">
        <ele>1433.1</ele>
        <time>2012-02-18T08:33:38Z</time>
      </trkpt>
      <trkpt lat="45.59381" lon="6.67085">
        <ele>1433.2</ele>
        <time>2012-02-18T08:33:46Z</time>
      </trkpt>
      <trkpt lat="45.5939" lon="6.67082">
        <ele>1434.2</ele>
        <time>2012-02-18T08:33:54Z</time>
      </trkpt>
      <trkpt lat="45.59397" lon="6.67077">
        <ele>1433.7</ele>
        <time>2012-02-18T08:34:01Z</time>
      </trkpt>
      <trkpt lat="45.59404" lon="6.6707">
        <ele>1435</ele>
        <time>2012-02-18T08:34:08Z</time>
      </trkpt>
      <trkpt lat="45.59405" lon="6.6707">
        <ele>1434.9</ele>
        <time>2012-02-18T08:34:09Z</time>
      </trkpt>
      <trkpt lat="45.59419" lon="6.67058">
        <ele>1435.1</ele>
        <time>2012-02-18T08:34:24Z</time>
      </trkpt>
      <trkpt lat="45.59427" lon="6.67052">
        <ele>1435.9</ele>
        <time>2012-02-18T08:34:31Z</time>
      </trkpt>
      <trkpt lat="45.59434" lon="6.67046">
        <ele>1436.6</ele>
        <time>2012-02-18T08:34:39Z</time>
      </trkpt>
      <trkpt lat="45.59442" lon="6.67042">
        <ele>1436.5</ele>
        <time>2012-02-18T08:34:47Z</time>
      </trkpt>
      <trkpt lat="45.5945" lon="6.6704">
        <ele>1438</ele>
        <time>2012-02-18T08:34:55Z</time>
      </trkpt>
      <trkpt lat="45.59459" lon="6.67037">
        <ele>1437.4</ele>
        <time>2012-02-18T08:35:03Z</time>
      </trkpt>
      <trkpt lat="45.59467" lon="6.67032">
        <ele>1439.5</ele>
        <time>2012-02-18T08:35:12Z</time>
      </trkpt>
      <trkpt lat="45.59468" lon="6.67031">
        <ele>1439.5</ele>
        <time>2012-02-18T08:35:13Z</time>
      </trkpt>
      <trkpt lat="45.59481" lon="6.67018">
        <ele>1439.6</ele>
        <time>2012-02-18T08:35:30Z</time>
      </trkpt>
      <trkpt lat="45.59489" lon="6.67014">
        <ele>1440.9</ele>
        <time>2012-02-18T08:35:41Z</time>
      </trkpt>
      <trkpt lat="45.59495" lon="6.67007">
        <ele>1441.2</ele>
        <time>2012-02-18T08:35:50Z</time>
      </trkpt>
      <trkpt lat="45.59503" lon="6.67">
        <ele>1441.4</ele>
        <time>2012-02-18T08:35:59Z</time>
      </trkpt>
      <trkpt lat="45.59511" lon="6.66997">
        <ele>1441.1</ele>
        <time>2012-02-18T08:36:09Z</time>
      </trkpt>
      <trkpt lat="45.59519" lon="6.66996">
        <ele>1443</ele>
        <time>2012-02-18T08:36:18Z</time>
      </trkpt>
      <trkpt lat="45.5952" lon="6.66996">
        <ele>1443.3</ele>
        <time>2012-02-18T08:36:19Z</time>
      </trkpt>
      <trkpt lat="45.59535" lon="6.66996">
        <ele>1444.3</ele>
        <time>2012-02-18T08:36:36Z</time>
      </trkpt>
      <trkpt lat="45.59544" lon="6.66998">
        <ele>1444.8</ele>
        <time>2012-02-18T08:36:46Z</time>
      </trkpt>
      <trkpt lat="45.59553" lon="6.66998">
        <ele>1445.8</ele>
        <time>2012-02-18T08:36:55Z</time>
      </trkpt>
      <trkpt lat="45.59562" lon="6.67">
        <ele>1444.9</ele>
        <time>2012-02-18T08:37:03Z</time>
      </trkpt>
      <trkpt lat="45.5957" lon="6.67003">
        <ele>1446.7</ele>
        <time>2012-02-18T08:37:10Z</time>
      </trkpt>
      <trkpt lat="45.59578" lon="6.67004">
        <ele>1447</ele>
        <time>2012-02-18T08:37:19Z</time>
      </trkpt>
      <trkpt lat="45.59586" lon="6.67006">
        <ele>1448.1</ele>
        <time>2012-02-18T08:37:27Z</time>
      </trkpt>
      <trkpt lat="45.59587" lon="6.67006">
        <ele>1447.7</ele>
        <time>2012-02-18T08:37:28Z</time>
      </trkpt>
      <trkpt lat="45.59603" lon="6.67013">
        <ele>1448.5</ele>
        <time>2012-02-18T08:37:46Z</time>
      </trkpt>
      <trkpt lat="45.5961" lon="6.67017">
        <ele>1448.6</ele>
        <time>2012-02-18T08:37:56Z</time>
      </trkpt>
      <trkpt lat="45.59618" lon="6.6702">
        <ele>1450.7</ele>
        <time>2012-02-18T08:38:05Z</time>
      </trkpt>
      <trkpt lat="45.59626" lon="6.67023">
        <ele>1451</ele>
        <time>2012-02-18T08:38:17Z</time>
      </trkpt>
      <trkpt lat="45.59633" lon="6.67016">
        <ele>1452.3</ele>
        <time>2012-02-18T08:38:28Z</time>
      </trkpt>
      <trkpt lat="45.59639" lon="6.67006">
        <ele>1452.9</ele>
        <time>2012-02-18T08:38:45Z</time>
      </trkpt>
      <trkpt lat="45.59639" lon="6.67005">
        <ele>1453.2</ele>
        <time>2012-02-18T08:38:46Z</time>
      </trkpt>
      <trkpt lat="45.59652" lon="6.66991">
        <ele>1459.4</ele>
        <time>2012-02-18T08:39:34Z</time>
      </trkpt>
      <trkpt lat="45.59658" lon="6.66983">
        <ele>1461.4</ele>
        <time>2012-02-18T08:39:48Z</time>
      </trkpt>
      <trkpt lat="45.59659" lon="6.66982">
        <ele>1461.7</ele>
        <time>2012-02-18T08:39:49Z</time>
      </trkpt>
      <trkpt lat="45.59671" lon="6.66967">
        <ele>1465.3</ele>
        <time>2012-02-18T08:40:09Z</time>
      </trkpt>
      <trkpt lat="45.5968" lon="6.66965">
        <ele>1467.7</ele>
        <time>2012-02-18T08:40:43Z</time>
      </trkpt>
      <trkpt lat="45.59688" lon="6.66959">
        <ele>1468.7</ele>
        <time>2012-02-18T08:41:20Z</time>
      </trkpt>
      <trkpt lat="45.59688" lon="6.66958">
        <ele>1468.8</ele>
        <time>2012-02-18T08:41:21Z</time>
      </trkpt>
      <trkpt lat="45.59691" lon="6.66935">
        <ele>1475.9</ele>
        <time>2012-02-18T08:42:09Z</time>
      </trkpt>
      <trkpt lat="45.59695" lon="6.66923">
        <ele>1476.9</ele>
        <time>2012-02-18T08:42:29Z</time>
      </trkpt>
      <trkpt lat="45.59695" lon="6.66923">
        <ele>1477.2</ele>
        <time>2012-02-18T08:42:30Z</time>
      </trkpt>
      <trkpt lat="45.5971" lon="6.66914">
        <ele>1482.4</ele>
        <time>2012-02-18T08:43:10Z</time>
      </trkpt>
      <trkpt lat="45.59713" lon="6.66902">
        <ele>1485.5</ele>
        <time>2012-02-18T08:43:23Z</time>
      </trkpt>
      <trkpt lat="45.59719" lon="6.66893">
        <ele>1486.5</ele>
        <time>2012-02-18T08:43:33Z</time>
      </trkpt>
      <trkpt lat="45.5972" lon="6.66892">
        <ele>1486.5</ele>
        <time>2012-02-18T08:43:34Z</time>
      </trkpt>
      <trkpt lat="45.59736" lon="6.66885">
        <ele>1491.6</ele>
        <time>2012-02-18T08:45:33Z</time>
      </trkpt>
      <trkpt lat="45.59736" lon="6.66885">
        <ele>1491.6</ele>
        <time>2012-02-18T08:45:34Z</time>
      </trkpt>
      <trkpt lat="45.59739" lon="6.66908">
        <ele>1493.4</ele>
        <time>2012-02-18T08:45:55Z</time>
      </trkpt>
      <trkpt lat="45.5974" lon="6.6692">
        <ele>1493.3</ele>
        <time>2012-02-18T08:46:02Z</time>
      </trkpt>
      <trkpt lat="45.59742" lon="6.66932">
        <ele>1494.4</ele>
        <time>2012-02-18T08:46:10Z</time>
      </trkpt>
      <trkpt lat="45.59746" lon="6.66942">
        <ele>1494.8</ele>
        <time>2012-02-18T08:46:17Z</time>
      </trkpt>
      <trkpt lat="45.59753" lon="6.66949">
        <ele>1495.5</ele>
        <time>2012-02-18T08:46:24Z</time>
      </trkpt>
      <trkpt lat="45.59762" lon="6.6695">
        <ele>1498.3</ele>
        <time>2012-02-18T08:46:40Z</time>
      </trkpt>
      <trkpt lat="45.59763" lon="6.6695">
        <ele>1498.3</ele>
        <time>2012-02-18T08:46:41Z</time>
      </trkpt>
      <trkpt lat="45.59773" lon="6.66933">
        <ele>1502.3</ele>
        <time>2012-02-18T08:47:02Z</time>
      </trkpt>
      <trkpt lat="45.59775" lon="6.66921">
        <ele>1505.2</ele>
        <time>2012-02-18T08:47:12Z</time>
      </trkpt>
      <trkpt lat="45.5978" lon="6.6691">
        <ele>1507.4</ele>
        <time>2012-02-18T08:47:22Z</time>
      </trkpt>
      <trkpt lat="45.59784" lon="6.669">
        <ele>1509.2</ele>
        <time>2012-02-18T08:47:33Z</time>
      </trkpt>
      <trkpt lat="45.59788" lon="6.66889">
        <ele>1511.4</ele>
        <time>2012-02-18T08:47:47Z</time>
      </trkpt>
      <trkpt lat="45.59789" lon="6.66888">
        <ele>1511.7</ele>
        <time>2012-02-18T08:47:48Z</time>
      </trkpt>
      <trkpt lat="45.59792" lon="6.66877">
        <ele>1513.5</ele>
        <time>2012-02-18T08:54:36Z</time>
      </trkpt>
      <trkpt lat="45.59802" lon="6.66856">
        <ele>1520.1</ele>
        <time>2012-02-18T08:55:45Z</time>
      </trkpt>
      <trkpt lat="45.59802" lon="6.66856">
        <ele>1519.8</ele>
        <time>2012-02-18T08:55:46Z</time>
      </trkpt>
      <trkpt lat="45.59813" lon="6.66837">
        <ele>1526.2</ele>
        <time>2012-02-18T08:56:24Z</time>
      </trkpt>
      <trkpt lat="45.59819" lon="6.66828">
        <ele>1529.6</ele>
        <time>2012-02-18T08:56:36Z</time>
      </trkpt>
      <trkpt lat="45.59825" lon="6.66819">
        <ele>1530.8</ele>
        <time>2012-02-18T08:56:46Z</time>
      </trkpt>
      <trkpt lat="45.59828" lon="6.66808">
        <ele>1531.6</ele>
        <time>2012-02-18T08:56:56Z</time>
      </trkpt>
      <trkpt lat="45.59829" lon="6.66807">
        <ele>1531.6</ele>
        <time>2012-02-18T08:56:57Z</time>
      </trkpt>
      <trkpt lat="45.59836" lon="6.66786">
        <ele>1537.4</ele>
        <time>2012-02-18T08:57:22Z</time>
      </trkpt>
      <trkpt lat="45.59838" lon="6.66773">
        <ele>1540.1</ele>
        <time>2012-02-18T08:57:38Z</time>
      </trkpt>
      <trkpt lat="45.59839" lon="6.66762">
        <ele>1544</ele>
        <time>2012-02-18T08:57:55Z</time>
      </trkpt>
      <trkpt lat="45.59837" lon="6.66749">
        <ele>1545.2</ele>
        <time>2012-02-18T08:58:12Z</time>
      </trkpt>
      <trkpt lat="45.59838" lon="6.66748">
        <ele>1545.1</ele>
        <time>2012-02-18T08:58:13Z</time>
      </trkpt>
      <trkpt lat="45.59848" lon="6.6673">
        <ele>1551.5</ele>
        <time>2012-02-18T08:58:59Z</time>
      </trkpt>
      <trkpt lat="45.59848" lon="6.66717">
        <ele>1553.1</ele>
        <time>2012-02-18T08:59:11Z</time>
      </trkpt>
      <trkpt lat="45.59848" lon="6.66705">
        <ele>1555.2</ele>
        <time>2012-02-18T08:59:31Z</time>
      </trkpt>
      <trkpt lat="45.59848" lon="6.66704">
        <ele>1555.3</ele>
        <time>2012-02-18T08:59:32Z</time>
      </trkpt>
      <trkpt lat="45.59864" lon="6.66714">
        <ele>1560.8</ele>
        <time>2012-02-18T09:00:17Z</time>
      </trkpt>
      <trkpt lat="45.59873" lon="6.66716">
        <ele>1562.1</ele>
        <time>2012-02-18T09:00:40Z</time>
      </trkpt>
      <trkpt lat="45.59873" lon="6.66716">
        <ele>1562</ele>
        <time>2012-02-18T09:00:41Z</time>
      </trkpt>
      <trkpt lat="45.59889" lon="6.66722">
        <ele>1566.8</ele>
        <time>2012-02-18T09:01:19Z</time>
      </trkpt>
      <trkpt lat="45.59897" lon="6.6673">
        <ele>1570.3</ele>
        <time>2012-02-18T09:01:38Z</time>
      </trkpt>
      <trkpt lat="45.59904" lon="6.66736">
        <ele>1572.4</ele>
        <time>2012-02-18T09:01:56Z</time>
      </trkpt>
      <trkpt lat="45.59905" lon="6.66736">
        <ele>1572.8</ele>
        <time>2012-02-18T09:01:57Z</time>
      </trkpt>
      <trkpt lat="45.59918" lon="6.66751">
        <ele>1578.5</ele>
        <time>2012-02-18T09:02:38Z</time>
      </trkpt>
      <trkpt lat="45.59927" lon="6.66754">
        <ele>1580.5</ele>
        <time>2012-02-18T09:02:57Z</time>
      </trkpt>
      <trkpt lat="45.59933" lon="6.66746">
        <ele>1583.7</ele>
        <time>2012-02-18T09:03:27Z</time>
      </trkpt>
      <trkpt lat="45.59934" lon="6.66746">
        <ele>1583.7</ele>
        <time>2012-02-18T09:03:28Z</time>
      </trkpt>
      <trkpt lat="45.59938" lon="6.66723">
        <ele>1588.5</ele>
        <time>2012-02-18T09:03:54Z</time>
      </trkpt>
      <trkpt lat="45.59941" lon="6.66712">
        <ele>1589.3</ele>
        <time>2012-02-18T09:04:06Z</time>
      </trkpt>
      <trkpt lat="45.59942" lon="6.667">
        <ele>1592.1</ele>
        <time>2012-02-18T09:04:17Z</time>
      </trkpt>
      <trkpt lat="45.59943" lon="6.66687">
        <ele>1594</ele>
        <time>2012-02-18T09:04:28Z</time>
      </trkpt>
      <trkpt lat="45.59946" lon="6.66675">
        <ele>1595.7</ele>
        <time>2012-02-18T09:04:40Z</time>
      </trkpt>
      <trkpt lat="45.59946" lon="6.66675">
        <ele>1596.1</ele>
        <time>2012-02-18T09:04:41Z</time>
      </trkpt>
      <trkpt lat="45.59957" lon="6.66663">
        <ele>1598.7</ele>
        <time>2012-02-18T09:05:47Z</time>
      </trkpt>
      <trkpt lat="45.59957" lon="6.66664">
        <ele>1598.6</ele>
        <time>2012-02-18T09:05:48Z</time>
      </trkpt>
      <trkpt lat="45.59971" lon="6.66677">
        <ele>1604.3</ele>
        <time>2012-02-18T09:06:16Z</time>
      </trkpt>
      <trkpt lat="45.59974" lon="6.66666">
        <ele>1609.5</ele>
        <time>2012-02-18T09:06:54Z</time>
      </trkpt>
      <trkpt lat="45.59974" lon="6.66665">
        <ele>1609.5</ele>
        <time>2012-02-18T09:06:55Z</time>
      </trkpt>
      <trkpt lat="45.59971" lon="6.66642">
        <ele>1613.3</ele>
        <time>2012-02-18T09:07:21Z</time>
      </trkpt>
      <trkpt lat="45.59971" lon="6.66629">
        <ele>1618.8</ele>
        <time>2012-02-18T09:08:11Z</time>
      </trkpt>
      <trkpt lat="45.59971" lon="6.66628">
        <ele>1619.3</ele>
        <time>2012-02-18T09:08:12Z</time>
      </trkpt>
      <trkpt lat="45.59968" lon="6.66604">
        <ele>1624.2</ele>
        <time>2012-02-18T09:08:43Z</time>
      </trkpt>
      <trkpt lat="45.59964" lon="6.66593">
        <ele>1626.6</ele>
        <time>2012-02-18T09:09:00Z</time>
      </trkpt>
      <trkpt lat="45.5996" lon="6.66581">
        <ele>1629.8</ele>
        <time>2012-02-18T09:09:19Z</time>
      </trkpt>
      <trkpt lat="45.5996" lon="6.6658">
        <ele>1630.1</ele>
        <time>2012-02-18T09:09:20Z</time>
      </trkpt>
      <trkpt lat="45.59961" lon="6.66557">
        <ele>1635.8</ele>
        <time>2012-02-18T09:09:52Z</time>
      </trkpt>
      <trkpt lat="45.59962" lon="6.66544">
        <ele>1637.8</ele>
        <time>2012-02-18T09:10:10Z</time>
      </trkpt>
      <trkpt lat="45.59962" lon="6.66531">
        <ele>1639.6</ele>
        <time>2012-02-18T09:10:24Z</time>
      </trkpt>
      <trkpt lat="45.59962" lon="6.6653">
        <ele>1639.5</ele>
        <time>2012-02-18T09:10:25Z</time>
      </trkpt>
      <trkpt lat="45.59963" lon="6.66506">
        <ele>1642.3</ele>
        <time>2012-02-18T09:10:52Z</time>
      </trkpt>
      <trkpt lat="45.59962" lon="6.66494">
        <ele>1645.4</ele>
        <time>2012-02-18T09:11:08Z</time>
      </trkpt>
      <trkpt lat="45.59963" lon="6.66481">
        <ele>1647.6</ele>
        <time>2012-02-18T09:11:21Z</time>
      </trkpt>
      <trkpt lat="45.59963" lon="6.66469">
        <ele>1649.3</ele>
        <time>2012-02-18T09:11:36Z</time>
      </trkpt>
      <trkpt lat="45.59963" lon="6.66468">
        <ele>1649.5</ele>
        <time>2012-02-18T09:11:37Z</time>
      </trkpt>
      <trkpt lat="45.59967" lon="6.66445">
        <ele>1656.8</ele>
        <time>2012-02-18T09:12:20Z</time>
      </trkpt>
      <trkpt lat="45.59971" lon="6.66434">
        <ele>1659.7</ele>
        <time>2012-02-18T09:12:36Z</time>
      </trkpt>
      <trkpt lat="45.59974" lon="6.66422">
        <ele>1661.1</ele>
        <time>2012-02-18T09:12:47Z</time>
      </trkpt>
      <trkpt lat="45.59974" lon="6.66421">
        <ele>1661</ele>
        <time>2012-02-18T09:12:48Z</time>
      </trkpt>
      <trkpt lat="45.59976" lon="6.66398">
        <ele>1667.3</ele>
        <time>2012-02-18T09:13:20Z</time>
      </trkpt>
      <trkpt lat="45.59981" lon="6.66387">
        <ele>1669.6</ele>
        <time>2012-02-18T09:13:43Z</time>
      </trkpt>
      <trkpt lat="45.59982" lon="6.66375">
        <ele>1671.6</ele>
        <time>2012-02-18T09:13:57Z</time>
      </trkpt>
      <trkpt lat="45.59982" lon="6.66374">
        <ele>1671.6</ele>
        <time>2012-02-18T09:13:58Z</time>
      </trkpt>
      <trkpt lat="45.59992" lon="6.66356">
        <ele>1674.6</ele>
        <time>2012-02-18T09:14:20Z</time>
      </trkpt>
      <trkpt lat="45.59996" lon="6.66346">
        <ele>1681.8</ele>
        <time>2012-02-18T09:14:56Z</time>
      </trkpt>
      <trkpt lat="45.59995" lon="6.66334">
        <ele>1682.9</ele>
        <time>2012-02-18T09:15:14Z</time>
      </trkpt>
      <trkpt lat="45.59995" lon="6.66332">
        <ele>1682.9</ele>
        <time>2012-02-18T09:15:15Z</time>
      </trkpt>
      <trkpt lat="45.59997" lon="6.66309">
        <ele>1684.4</ele>
        <time>2012-02-18T09:15:35Z</time>
      </trkpt>
      <trkpt lat="45.6" lon="6.66297">
        <ele>1683.9</ele>
        <time>2012-02-18T09:15:46Z</time>
      </trkpt>
      <trkpt lat="45.60002" lon="6.66285">
        <ele>1685.5</ele>
        <time>2012-02-18T09:15:57Z</time>
      </trkpt>
      <trkpt lat="45.60005" lon="6.66275">
        <ele>1686.4</ele>
        <time>2012-02-18T09:16:10Z</time>
      </trkpt>
      <trkpt lat="45.60007" lon="6.66262">
        <ele>1688.8</ele>
        <time>2012-02-18T09:16:23Z</time>
      </trkpt>
      <trkpt lat="45.60008" lon="6.66261">
        <ele>1689.1</ele>
        <time>2012-02-18T09:16:24Z</time>
      </trkpt>
      <trkpt lat="45.60016" lon="6.66243">
        <ele>1691.5</ele>
        <time>2012-02-18T09:17:31Z</time>
      </trkpt>
      <trkpt lat="45.60016" lon="6.66242">
        <ele>1691.3</ele>
        <time>2012-02-18T09:17:32Z</time>
      </trkpt>
      <trkpt lat="45.60013" lon="6.66255">
        <ele>1691.3</ele>
        <time>2012-02-18T09:18:39Z</time>
      </trkpt>
      <trkpt lat="45.6001" lon="6.66267">
        <ele>1693.5</ele>
        <time>2012-02-18T09:19:45Z</time>
      </trkpt>
      <trkpt lat="45.60011" lon="6.66266">
        <ele>1667.1</ele>
        <time>2012-02-18T09:21:10Z</time>
      </trkpt>
      <trkpt lat="45.60012" lon="6.66266">
        <ele>1667.1</ele>
        <time>2012-02-18T09:21:11Z</time>
      </trkpt>
      <trkpt lat="45.60024" lon="6.66258">
        <ele>1669.2</ele>
        <time>2012-02-18T09:22:19Z</time>
      </trkpt>
      <trkpt lat="45.60025" lon="6.66257">
        <ele>1669.2</ele>
        <time>2012-02-18T09:22:20Z</time>
      </trkpt>
      <trkpt lat="45.60033" lon="6.66237">
        <ele>1673.5</ele>
        <time>2012-02-18T09:22:51Z</time>
      </trkpt>
      <trkpt lat="45.60035" lon="6.66225">
        <ele>1676.4</ele>
        <time>2012-02-18T09:23:05Z</time>
      </trkpt>
      <trkpt lat="45.60044" lon="6.66224">
        <ele>1680</ele>
        <time>2012-02-18T09:23:28Z</time>
      </trkpt>
      <trkpt lat="45.60045" lon="6.66225">
        <ele>1679.7</ele>
        <time>2012-02-18T09:23:29Z</time>
      </trkpt>
      <trkpt lat="45.60056" lon="6.66207">
        <ele>1686.6</ele>
        <time>2012-02-18T09:24:05Z</time>
      </trkpt>
      <trkpt lat="45.6006" lon="6.66196">
        <ele>1688.9</ele>
        <time>2012-02-18T09:24:18Z</time>
      </trkpt>
      <trkpt lat="45.60063" lon="6.66185">
        <ele>1691.8</ele>
        <time>2012-02-18T09:24:35Z</time>
      </trkpt>
      <trkpt lat="45.60064" lon="6.66184">
        <ele>1691.9</ele>
        <time>2012-02-18T09:24:36Z</time>
      </trkpt>
      <trkpt lat="45.6007" lon="6.66162">
        <ele>1697.6</ele>
        <time>2012-02-18T09:25:10Z</time>
      </trkpt>
      <trkpt lat="45.60073" lon="6.6615">
        <ele>1699.5</ele>
        <time>2012-02-18T09:25:27Z</time>
      </trkpt>
      <trkpt lat="45.60081" lon="6.66156">
        <ele>1703.9</ele>
        <time>2012-02-18T09:25:49Z</time>
      </trkpt>
      <trkpt lat="45.60081" lon="6.66157">
        <ele>1703.9</ele>
        <time>2012-02-18T09:25:50Z</time>
      </trkpt>
      <trkpt lat="45.60091" lon="6.66138">
        <ele>1710.2</ele>
        <time>2012-02-18T09:26:36Z</time>
      </trkpt>
      <trkpt lat="45.60092" lon="6.66126">
        <ele>1713.5</ele>
        <time>2012-02-18T09:26:54Z</time>
      </trkpt>
      <trkpt lat="45.60092" lon="6.66125">
        <ele>1713.6</ele>
        <time>2012-02-18T09:26:55Z</time>
      </trkpt>
      <trkpt lat="45.60095" lon="6.66101">
        <ele>1716.7</ele>
        <time>2012-02-18T09:27:19Z</time>
      </trkpt>
      <trkpt lat="45.60096" lon="6.66089">
        <ele>1719.2</ele>
        <time>2012-02-18T09:27:34Z</time>
      </trkpt>
      <trkpt lat="45.60095" lon="6.66076">
        <ele>1721.3</ele>
        <time>2012-02-18T09:27:51Z</time>
      </trkpt>
      <trkpt lat="45.60099" lon="6.66065">
        <ele>1724</ele>
        <time>2012-02-18T09:28:10Z</time>
      </trkpt>
      <trkpt lat="45.60099" lon="6.66064">
        <ele>1724.1</ele>
        <time>2012-02-18T09:28:11Z</time>
      </trkpt>
      <trkpt lat="45.60103" lon="6.66041">
        <ele>1731</ele>
        <time>2012-02-18T09:28:57Z</time>
      </trkpt>
      <trkpt lat="45.60094" lon="6.66042">
        <ele>1732.7</ele>
        <time>2012-02-18T09:29:52Z</time>
      </trkpt>
      <trkpt lat="45.60094" lon="6.66042">
        <ele>1732.7</ele>
        <time>2012-02-18T09:29:53Z</time>
      </trkpt>
      <trkpt lat="45.60093" lon="6.66017">
        <ele>1733</ele>
        <time>2012-02-18T09:31:19Z</time>
      </trkpt>
      <trkpt lat="45.60094" lon="6.66016">
        <ele>1733.5</ele>
        <time>2012-02-18T09:31:20Z</time>
      </trkpt>
      <trkpt lat="45.60094" lon="6.65994">
        <ele>1735.6</ele>
        <time>2012-02-18T09:31:41Z</time>
      </trkpt>
      <trkpt lat="45.60095" lon="6.65982">
        <ele>1738.4</ele>
        <time>2012-02-18T09:31:57Z</time>
      </trkpt>
      <trkpt lat="45.601" lon="6.65971">
        <ele>1742.5</ele>
        <time>2012-02-18T09:32:16Z</time>
      </trkpt>
      <trkpt lat="45.60104" lon="6.6596">
        <ele>1747.6</ele>
        <time>2012-02-18T09:32:39Z</time>
      </trkpt>
      <trkpt lat="45.60104" lon="6.6596">
        <ele>1747.7</ele>
        <time>2012-02-18T09:32:40Z</time>
      </trkpt>
      <trkpt lat="45.60114" lon="6.65941">
        <ele>1752.9</ele>
        <time>2012-02-18T09:33:14Z</time>
      </trkpt>
      <trkpt lat="45.60123" lon="6.65943">
        <ele>1758.9</ele>
        <time>2012-02-18T09:33:41Z</time>
      </trkpt>
      <trkpt lat="45.60123" lon="6.65943">
        <ele>1758.9</ele>
        <time>2012-02-18T09:33:42Z</time>
      </trkpt>
      <trkpt lat="45.60137" lon="6.65932">
        <ele>1764.7</ele>
        <time>2012-02-18T09:34:13Z</time>
      </trkpt>
      <trkpt lat="45.60146" lon="6.65936">
        <ele>1767.8</ele>
        <time>2012-02-18T09:34:30Z</time>
      </trkpt>
      <trkpt lat="45.60154" lon="6.65931">
        <ele>1772.1</ele>
        <time>2012-02-18T09:34:45Z</time>
      </trkpt>
      <trkpt lat="45.60154" lon="6.65931">
        <ele>1771.7</ele>
        <time>2012-02-18T09:34:46Z</time>
      </trkpt>
      <trkpt lat="45.60166" lon="6.65917">
        <ele>1777.4</ele>
        <time>2012-02-18T09:35:20Z</time>
      </trkpt>
      <trkpt lat="45.60171" lon="6.65907">
        <ele>1780</ele>
        <time>2012-02-18T09:35:33Z</time>
      </trkpt>
      <trkpt lat="45.60178" lon="6.65899">
        <ele>1783.7</ele>
        <time>2012-02-18T09:35:48Z</time>
      </trkpt>
      <trkpt lat="45.60178" lon="6.65898">
        <ele>1783.7</ele>
        <time>2012-02-18T09:35:49Z</time>
      </trkpt>
      <trkpt lat="45.60195" lon="6.65892">
        <ele>1790.9</ele>
        <time>2012-02-18T09:36:23Z</time>
      </trkpt>
      <trkpt lat="45.60203" lon="6.65887">
        <ele>1792.7</ele>
        <time>2012-02-18T09:36:37Z</time>
      </trkpt>
      <trkpt lat="45.60211" lon="6.65883">
        <ele>1796.4</ele>
        <time>2012-02-18T09:36:52Z</time>
      </trkpt>
      <trkpt lat="45.60211" lon="6.65884">
        <ele>1796.5</ele>
        <time>2012-02-18T09:36:53Z</time>
      </trkpt>
      <trkpt lat="45.60215" lon="6.65858">
        <ele>1805.2</ele>
        <time>2012-02-18T09:37:32Z</time>
      </trkpt>
      <trkpt lat="45.60216" lon="6.65846">
        <ele>1805.9</ele>
        <time>2012-02-18T09:37:43Z</time>
      </trkpt>
      <trkpt lat="45.60218" lon="6.65835">
        <ele>1805.2</ele>
        <time>2012-02-18T09:37:52Z</time>
      </trkpt>
      <trkpt lat="45.60216" lon="6.65823">
        <ele>1806</ele>
        <time>2012-02-18T09:38:00Z</time>
      </trkpt>
      <trkpt lat="45.60216" lon="6.65822">
        <ele>1806.1</ele>
        <time>2012-02-18T09:38:01Z</time>
      </trkpt>
      <trkpt lat="45.60213" lon="6.65799">
        <ele>1808.2</ele>
        <time>2012-02-18T09:38:22Z</time>
      </trkpt>
      <trkpt lat="45.60211" lon="6.65787">
        <ele>1809.4</ele>
        <time>2012-02-18T09:38:32Z</time>
      </trkpt>
      <trkpt lat="45.60211" lon="6.65775">
        <ele>1810.9</ele>
        <time>2012-02-18T09:38:43Z</time>
      </trkpt>
      <trkpt lat="45.60208" lon="6.65763">
        <ele>1813.2</ele>
        <time>2012-02-18T09:38:55Z</time>
      </trkpt>
      <trkpt lat="45.6021" lon="6.6575">
        <ele>1815.6</ele>
        <time>2012-02-18T09:39:08Z</time>
      </trkpt>
      <trkpt lat="45.6021" lon="6.6575">
        <ele>1815.7</ele>
        <time>2012-02-18T09:39:09Z</time>
      </trkpt>
      <trkpt lat="45.60216" lon="6.65727">
        <ele>1822.2</ele>
        <time>2012-02-18T09:39:34Z</time>
      </trkpt>
      <trkpt lat="45.60221" lon="6.65717">
        <ele>1824.6</ele>
        <time>2012-02-18T09:41:28Z</time>
      </trkpt>
      <trkpt lat="45.60222" lon="6.65716">
        <ele>1824.5</ele>
        <time>2012-02-18T09:41:29Z</time>
      </trkpt>
      <trkpt lat="45.6023" lon="6.65697">
        <ele>1828.1</ele>
        <time>2012-02-18T09:41:47Z</time>
      </trkpt>
      <trkpt lat="45.60236" lon="6.65688">
        <ele>1830.5</ele>
        <time>2012-02-18T09:41:58Z</time>
      </trkpt>
      <trkpt lat="45.60244" lon="6.65693">
        <ele>1834.9</ele>
        <time>2012-02-18T09:42:33Z</time>
      </trkpt>
      <trkpt lat="45.60244" lon="6.65694">
        <ele>1835.4</ele>
        <time>2012-02-18T09:42:34Z</time>
      </trkpt>
      <trkpt lat="45.60257" lon="6.65681">
        <ele>1841.1</ele>
        <time>2012-02-18T09:43:24Z</time>
      </trkpt>
      <trkpt lat="45.60262" lon="6.6567">
        <ele>1843.2</ele>
        <time>2012-02-18T09:43:36Z</time>
      </trkpt>
      <trkpt lat="45.60262" lon="6.65669">
        <ele>1843.2</ele>
        <time>2012-02-18T09:43:37Z</time>
      </trkpt>
      <trkpt lat="45.6027" lon="6.65648">
        <ele>1846.6</ele>
        <time>2012-02-18T09:44:12Z</time>
      </trkpt>
      <trkpt lat="45.60275" lon="6.65658">
        <ele>1850.4</ele>
        <time>2012-02-18T09:44:46Z</time>
      </trkpt>
      <trkpt lat="45.60275" lon="6.65659">
        <ele>1850.6</ele>
        <time>2012-02-18T09:44:47Z</time>
      </trkpt>
      <trkpt lat="45.60286" lon="6.65658">
        <ele>1855.2</ele>
        <time>2012-02-18T09:45:17Z</time>
      </trkpt>
      <trkpt lat="45.60291" lon="6.65649">
        <ele>1857.2</ele>
        <time>2012-02-18T09:45:32Z</time>
      </trkpt>
      <trkpt lat="45.60297" lon="6.65639">
        <ele>1859.1</ele>
        <time>2012-02-18T09:45:48Z</time>
      </trkpt>
      <trkpt lat="45.60297" lon="6.65639">
        <ele>1859.7</ele>
        <time>2012-02-18T09:45:49Z</time>
      </trkpt>
      <trkpt lat="45.60311" lon="6.65625">
        <ele>1866.3</ele>
        <time>2012-02-18T09:46:26Z</time>
      </trkpt>
      <trkpt lat="45.60319" lon="6.65621">
        <ele>1868</ele>
        <time>2012-02-18T09:47:05Z</time>
      </trkpt>
      <trkpt lat="45.6032" lon="6.65622">
        <ele>1868</ele>
        <time>2012-02-18T09:47:06Z</time>
      </trkpt>
      <trkpt lat="45.60326" lon="6.65631">
        <ele>1868.5</ele>
        <time>2012-02-18T09:48:24Z</time>
      </trkpt>
      <trkpt lat="45.60337" lon="6.65646">
        <ele>1868</ele>
        <time>2012-02-18T09:48:47Z</time>
      </trkpt>
      <trkpt lat="45.60329" lon="6.65643">
        <ele>1867.4</ele>
        <time>2012-02-18T09:49:31Z</time>
      </trkpt>
      <trkpt lat="45.60328" lon="6.65642">
        <ele>1867.5</ele>
        <time>2012-02-18T09:49:32Z</time>
      </trkpt>
      <trkpt lat="45.60318" lon="6.65624">
        <ele>1868.8</ele>
        <time>2012-02-18T09:51:09Z</time>
      </trkpt>
      <trkpt lat="45.60318" lon="6.65623">
        <ele>1868.4</ele>
        <time>2012-02-18T09:51:10Z</time>
      </trkpt>
      <trkpt lat="45.60321" lon="6.65607">
        <ele>1871</ele>
        <time>2012-02-18T09:51:32Z</time>
      </trkpt>
      <trkpt lat="45.60329" lon="6.65605">
        <ele>1871.4</ele>
        <time>2012-02-18T09:51:41Z</time>
      </trkpt>
      <trkpt lat="45.60337" lon="6.656">
        <ele>1872.8</ele>
        <time>2012-02-18T09:51:53Z</time>
      </trkpt>
      <trkpt lat="45.60346" lon="6.65596">
        <ele>1875.5</ele>
        <time>2012-02-18T09:52:07Z</time>
      </trkpt>
      <trkpt lat="45.60354" lon="6.65591">
        <ele>1877.7</ele>
        <time>2012-02-18T09:52:18Z</time>
      </trkpt>
      <trkpt lat="45.60354" lon="6.6559">
        <ele>1878</ele>
        <time>2012-02-18T09:52:19Z</time>
      </trkpt>
      <trkpt lat="45.60367" lon="6.65573">
        <ele>1883.1</ele>
        <time>2012-02-18T09:52:42Z</time>
      </trkpt>
      <trkpt lat="45.60375" lon="6.65571">
        <ele>1885.4</ele>
        <time>2012-02-18T09:52:57Z</time>
      </trkpt>
      <trkpt lat="45.60383" lon="6.65564">
        <ele>1888.1</ele>
        <time>2012-02-18T09:53:10Z</time>
      </trkpt>
      <trkpt lat="45.60391" lon="6.6556">
        <ele>1889.9</ele>
        <time>2012-02-18T09:53:22Z</time>
      </trkpt>
      <trkpt lat="45.60392" lon="6.6556">
        <ele>1890.2</ele>
        <time>2012-02-18T09:53:23Z</time>
      </trkpt>
      <trkpt lat="45.60408" lon="6.65556">
        <ele>1894</ele>
        <time>2012-02-18T09:53:42Z</time>
      </trkpt>
      <trkpt lat="45.60416" lon="6.65552">
        <ele>1895.4</ele>
        <time>2012-02-18T09:53:51Z</time>
      </trkpt>
      <trkpt lat="45.60424" lon="6.6555">
        <ele>1896</ele>
        <time>2012-02-18T09:54:01Z</time>
      </trkpt>
      <trkpt lat="45.60432" lon="6.65546">
        <ele>1896.8</ele>
        <time>2012-02-18T09:54:10Z</time>
      </trkpt>
      <trkpt lat="45.6044" lon="6.65541">
        <ele>1898</ele>
        <time>2012-02-18T09:54:19Z</time>
      </trkpt>
      <trkpt lat="45.60448" lon="6.65538">
        <ele>1900.4</ele>
        <time>2012-02-18T09:54:28Z</time>
      </trkpt>
      <trkpt lat="45.60449" lon="6.65537">
        <ele>1900.9</ele>
        <time>2012-02-18T09:54:29Z</time>
      </trkpt>
      <trkpt lat="45.60463" lon="6.65528">
        <ele>1903.1</ele>
        <time>2012-02-18T09:54:46Z</time>
      </trkpt>
      <trkpt lat="45.60471" lon="6.65524">
        <ele>1904.8</ele>
        <time>2012-02-18T09:54:55Z</time>
      </trkpt>
      <trkpt lat="45.60477" lon="6.65515">
        <ele>1907.5</ele>
        <time>2012-02-18T09:55:05Z</time>
      </trkpt>
      <trkpt lat="45.60481" lon="6.65504">
        <ele>1908.7</ele>
        <time>2012-02-18T09:55:14Z</time>
      </trkpt>
      <trkpt lat="45.60488" lon="6.65497">
        <ele>1910.1</ele>
        <time>2012-02-18T09:55:24Z</time>
      </trkpt>
      <trkpt lat="45.60496" lon="6.65493">
        <ele>1910.4</ele>
        <time>2012-02-18T09:55:34Z</time>
      </trkpt>
      <trkpt lat="45.60497" lon="6.65493">
        <ele>1910.7</ele>
        <time>2012-02-18T09:55:35Z</time>
      </trkpt>
      <trkpt lat="45.60512" lon="6.65485">
        <ele>1915.3</ele>
        <time>2012-02-18T09:55:56Z</time>
      </trkpt>
      <trkpt lat="45.60518" lon="6.65476">
        <ele>1916.2</ele>
        <time>2012-02-18T09:56:08Z</time>
      </trkpt>
      <trkpt lat="45.60523" lon="6.65465">
        <ele>1918.4</ele>
        <time>2012-02-18T09:56:20Z</time>
      </trkpt>
      <trkpt lat="45.60522" lon="6.65453">
        <ele>1921.2</ele>
        <time>2012-02-18T09:56:32Z</time>
      </trkpt>
      <trkpt lat="45.60516" lon="6.65443">
        <ele>1923.3</ele>
        <time>2012-02-18T09:56:47Z</time>
      </trkpt>
      <trkpt lat="45.60516" lon="6.65443">
        <ele>1923.7</ele>
        <time>2012-02-18T09:56:48Z</time>
      </trkpt>
      <trkpt lat="45.60504" lon="6.65425">
        <ele>1928</ele>
        <time>2012-02-18T09:57:12Z</time>
      </trkpt>
      <trkpt lat="45.60501" lon="6.65414">
        <ele>1930.5</ele>
        <time>2012-02-18T09:57:23Z</time>
      </trkpt>
      <trkpt lat="45.60496" lon="6.65404">
        <ele>1932.2</ele>
        <time>2012-02-18T09:57:36Z</time>
      </trkpt>
      <trkpt lat="45.60492" lon="6.65393">
        <ele>1933.6</ele>
        <time>2012-02-18T09:57:46Z</time>
      </trkpt>
      <trkpt lat="45.60489" lon="6.65381">
        <ele>1935</ele>
        <time>2012-02-18T09:57:58Z</time>
      </trkpt>
      <trkpt lat="45.60489" lon="6.6538">
        <ele>1935</ele>
        <time>2012-02-18T09:57:59Z</time>
      </trkpt>
      <trkpt lat="45.60482" lon="6.65359">
        <ele>1939.5</ele>
        <time>2012-02-18T09:58:33Z</time>
      </trkpt>
      <trkpt lat="45.60477" lon="6.65348">
        <ele>1941.3</ele>
        <time>2012-02-18T09:58:45Z</time>
      </trkpt>
      <trkpt lat="45.60475" lon="6.65336">
        <ele>1942.7</ele>
        <time>2012-02-18T09:58:57Z</time>
      </trkpt>
      <trkpt lat="45.60473" lon="6.65324">
        <ele>1945.3</ele>
        <time>2012-02-18T09:59:51Z</time>
      </trkpt>
      <trkpt lat="45.60473" lon="6.65323">
        <ele>1945.5</ele>
        <time>2012-02-18T09:59:52Z</time>
      </trkpt>
      <trkpt lat="45.60479" lon="6.65314">
        <ele>1945.6</ele>
        <time>2012-02-18T10:03:45Z</time>
      </trkpt>
      <trkpt lat="45.60473" lon="6.65324">
        <ele>1946</ele>
        <time>2012-02-18T10:04:58Z</time>
      </trkpt>
      <trkpt lat="45.60471" lon="6.65337">
        <ele>1946.3</ele>
        <time>2012-02-18T10:06:00Z</time>
      </trkpt>
      <trkpt lat="45.60478" lon="6.65314">
        <ele>1945.6</ele>
        <time>2012-02-18T10:12:56Z</time>
      </trkpt>
      <trkpt lat="45.60478" lon="6.65314">
        <ele>1945.5</ele>
        <time>2012-02-18T10:12:57Z</time>
      </trkpt>
      <trkpt lat="45.60465" lon="6.65331">
        <ele>1945.1</ele>
        <time>2012-02-18T10:14:07Z</time>
      </trkpt>
      <trkpt lat="45.60465" lon="6.65332">
        <ele>1945.1</ele>
        <time>2012-02-18T10:14:08Z</time>
      </trkpt>
      <trkpt lat="45.60474" lon="6.65325">
        <ele>1944.9</ele>
        <time>2012-02-18T10:15:17Z</time>
      </trkpt>
      <trkpt lat="45.60473" lon="6.65325">
        <ele>1945.5</ele>
        <time>2012-02-18T10:18:11Z</time>
      </trkpt>
      <trkpt lat="45.60473" lon="6.65324">
        <ele>1945.2</ele>
        <time>2012-02-18T10:18:12Z</time>
      </trkpt>
      <trkpt lat="45.60476" lon="6.65327">
        <ele>1944.7</ele>
        <time>2012-02-18T10:19:19Z</time>
      </trkpt>
      <trkpt lat="45.60476" lon="6.65328">
        <ele>1944.6</ele>
        <time>2012-02-18T10:19:20Z</time>
      </trkpt>
      <trkpt lat="45.60476" lon="6.65313">
        <ele>1944.3</ele>
        <time>2012-02-18T10:23:08Z</time>
      </trkpt>
      <trkpt lat="45.60488" lon="6.65297">
        <ele>1946.1</ele>
        <time>2012-02-18T10:23:51Z</time>
      </trkpt>
      <trkpt lat="45.60497" lon="6.65298">
        <ele>1944.7</ele>
        <time>2012-02-18T10:24:02Z</time>
      </trkpt>
      <trkpt lat="45.60506" lon="6.653">
        <ele>1946</ele>
        <time>2012-02-18T10:24:11Z</time>
      </trkpt>
      <trkpt lat="45.60506" lon="6.653">
        <ele>1946.2</ele>
        <time>2012-02-18T10:24:12Z</time>
      </trkpt>
      <trkpt lat="45.60522" lon="6.65305">
        <ele>1947.7</ele>
        <time>2012-02-18T10:24:28Z</time>
      </trkpt>
      <trkpt lat="45.6053" lon="6.65308">
        <ele>1948.7</ele>
        <time>2012-02-18T10:24:36Z</time>
      </trkpt>
      <trkpt lat="45.60538" lon="6.6531">
        <ele>1948.5</ele>
        <time>2012-02-18T10:24:44Z</time>
      </trkpt>
      <trkpt lat="45.60547" lon="6.65311">
        <ele>1949</ele>
        <time>2012-02-18T10:24:52Z</time>
      </trkpt>
      <trkpt lat="45.60556" lon="6.6531">
        <ele>1949.7</ele>
        <time>2012-02-18T10:25:01Z</time>
      </trkpt>
      <trkpt lat="45.60564" lon="6.65311">
        <ele>1950.6</ele>
        <time>2012-02-18T10:25:09Z</time>
      </trkpt>
      <trkpt lat="45.60573" lon="6.65311">
        <ele>1951.5</ele>
        <time>2012-02-18T10:25:17Z</time>
      </trkpt>
      <trkpt lat="45.60574" lon="6.6531">
        <ele>1951.5</ele>
        <time>2012-02-18T10:25:18Z</time>
      </trkpt>
      <trkpt lat="45.6059" lon="6.65312">
        <ele>1952.4</ele>
        <time>2012-02-18T10:25:37Z</time>
      </trkpt>
      <trkpt lat="45.60598" lon="6.65311">
        <ele>1953.3</ele>
        <time>2012-02-18T10:25:48Z</time>
      </trkpt>
      <trkpt lat="45.60607" lon="6.65311">
        <ele>1954.8</ele>
        <time>2012-02-18T10:26:00Z</time>
      </trkpt>
      <trkpt lat="45.60615" lon="6.65312">
        <ele>1955.9</ele>
        <time>2012-02-18T10:26:10Z</time>
      </trkpt>
      <trkpt lat="45.60623" lon="6.65312">
        <ele>1956.6</ele>
        <time>2012-02-18T10:26:20Z</time>
      </trkpt>
      <trkpt lat="45.60624" lon="6.65312">
        <ele>1956.3</ele>
        <time>2012-02-18T10:26:21Z</time>
      </trkpt>
      <trkpt lat="45.6064" lon="6.65314">
        <ele>1957.9</ele>
        <time>2012-02-18T10:26:41Z</time>
      </trkpt>
      <trkpt lat="45.60649" lon="6.65317">
        <ele>1959.7</ele>
        <time>2012-02-18T10:26:53Z</time>
      </trkpt>
      <trkpt lat="45.60657" lon="6.65322">
        <ele>1961.9</ele>
        <time>2012-02-18T10:27:04Z</time>
      </trkpt>
      <trkpt lat="45.60665" lon="6.65327">
        <ele>1963</ele>
        <time>2012-02-18T10:27:16Z</time>
      </trkpt>
      <trkpt lat="45.60673" lon="6.65331">
        <ele>1962.6</ele>
        <time>2012-02-18T10:27:25Z</time>
      </trkpt>
      <trkpt lat="45.60674" lon="6.65332">
        <ele>1962.9</ele>
        <time>2012-02-18T10:27:26Z</time>
      </trkpt>
      <trkpt lat="45.6069" lon="6.65336">
        <ele>1964.2</ele>
        <time>2012-02-18T10:27:48Z</time>
      </trkpt>
      <trkpt lat="45.60698" lon="6.65338">
        <ele>1966.1</ele>
        <time>2012-02-18T10:28:01Z</time>
      </trkpt>
      <trkpt lat="45.60707" lon="6.6534">
        <ele>1966.9</ele>
        <time>2012-02-18T10:28:11Z</time>
      </trkpt>
      <trkpt lat="45.60715" lon="6.65342">
        <ele>1967.2</ele>
        <time>2012-02-18T10:28:20Z</time>
      </trkpt>
      <trkpt lat="45.60723" lon="6.65345">
        <ele>1967.6</ele>
        <time>2012-02-18T10:28:31Z</time>
      </trkpt>
      <trkpt lat="45.60724" lon="6.65345">
        <ele>1967.8</ele>
        <time>2012-02-18T10:28:32Z</time>
      </trkpt>
      <trkpt lat="45.60738" lon="6.65356">
        <ele>1969.9</ele>
        <time>2012-02-18T10:28:56Z</time>
      </trkpt>
      <trkpt lat="45.60746" lon="6.65362">
        <ele>1972</ele>
        <time>2012-02-18T10:29:12Z</time>
      </trkpt>
      <trkpt lat="45.60753" lon="6.65369">
        <ele>1974.2</ele>
        <time>2012-02-18T10:29:28Z</time>
      </trkpt>
      <trkpt lat="45.60759" lon="6.65378">
        <ele>1977.5</ele>
        <time>2012-02-18T10:29:50Z</time>
      </trkpt>
      <trkpt lat="45.6076" lon="6.65378">
        <ele>1977.3</ele>
        <time>2012-02-18T10:29:51Z</time>
      </trkpt>
      <trkpt lat="45.60775" lon="6.65387">
        <ele>1982.1</ele>
        <time>2012-02-18T10:30:19Z</time>
      </trkpt>
      <trkpt lat="45.60784" lon="6.65389">
        <ele>1983.2</ele>
        <time>2012-02-18T10:30:33Z</time>
      </trkpt>
      <trkpt lat="45.60793" lon="6.65392">
        <ele>1984.5</ele>
        <time>2012-02-18T10:30:45Z</time>
      </trkpt>
      <trkpt lat="45.60801" lon="6.65393">
        <ele>1985.5</ele>
        <time>2012-02-18T10:30:57Z</time>
      </trkpt>
      <trkpt lat="45.60802" lon="6.65393">
        <ele>1985.7</ele>
        <time>2012-02-18T10:30:58Z</time>
      </trkpt>
      <trkpt lat="45.60818" lon="6.65397">
        <ele>1987.8</ele>
        <time>2012-02-18T10:31:19Z</time>
      </trkpt>
      <trkpt lat="45.60827" lon="6.654">
        <ele>1988.3</ele>
        <time>2012-02-18T10:31:31Z</time>
      </trkpt>
      <trkpt lat="45.60835" lon="6.65402">
        <ele>1989.6</ele>
        <time>2012-02-18T10:31:39Z</time>
      </trkpt>
      <trkpt lat="45.60844" lon="6.65404">
        <ele>1989.4</ele>
        <time>2012-02-18T10:31:49Z</time>
      </trkpt>
      <trkpt lat="45.60852" lon="6.65405">
        <ele>1991</ele>
        <time>2012-02-18T10:32:02Z</time>
      </trkpt>
      <trkpt lat="45.60853" lon="6.65406">
        <ele>1991.4</ele>
        <time>2012-02-18T10:32:03Z</time>
      </trkpt>
      <trkpt lat="45.60868" lon="6.65412">
        <ele>1993.4</ele>
        <time>2012-02-18T10:32:24Z</time>
      </trkpt>
      <trkpt lat="45.60877" lon="6.65412">
        <ele>1993.2</ele>
        <time>2012-02-18T10:32:35Z</time>
      </trkpt>
      <trkpt lat="45.60885" lon="6.65415">
        <ele>1993.5</ele>
        <time>2012-02-18T10:32:48Z</time>
      </trkpt>
      <trkpt lat="45.60894" lon="6.65419">
        <ele>1995.7</ele>
        <time>2012-02-18T10:33:01Z</time>
      </trkpt>
      <trkpt lat="45.60902" lon="6.65422">
        <ele>1996.7</ele>
        <time>2012-02-18T10:33:14Z</time>
      </trkpt>
      <trkpt lat="45.60903" lon="6.65422">
        <ele>1996.8</ele>
        <time>2012-02-18T10:33:15Z</time>
      </trkpt>
      <trkpt lat="45.60919" lon="6.65426">
        <ele>2000.7</ele>
        <time>2012-02-18T10:33:42Z</time>
      </trkpt>
      <trkpt lat="45.60928" lon="6.65428">
        <ele>2001.9</ele>
        <time>2012-02-18T10:33:59Z</time>
      </trkpt>
      <trkpt lat="45.60936" lon="6.6543">
        <ele>2004.6</ele>
        <time>2012-02-18T10:34:13Z</time>
      </trkpt>
      <trkpt lat="45.60945" lon="6.6543">
        <ele>2006.3</ele>
        <time>2012-02-18T10:34:26Z</time>
      </trkpt>
      <trkpt lat="45.60945" lon="6.6543">
        <ele>2006.4</ele>
        <time>2012-02-18T10:34:27Z</time>
      </trkpt>
      <trkpt lat="45.60962" lon="6.65429">
        <ele>2011.9</ele>
        <time>2012-02-18T10:35:03Z</time>
      </trkpt>
      <trkpt lat="45.60969" lon="6.65436">
        <ele>2014</ele>
        <time>2012-02-18T10:35:25Z</time>
      </trkpt>
      <trkpt lat="45.60977" lon="6.65439">
        <ele>2016.8</ele>
        <time>2012-02-18T10:35:40Z</time>
      </trkpt>
      <trkpt lat="45.60978" lon="6.6544">
        <ele>2017</ele>
        <time>2012-02-18T10:35:41Z</time>
      </trkpt>
      <trkpt lat="45.60995" lon="6.65437">
        <ele>2020.7</ele>
        <time>2012-02-18T10:36:04Z</time>
      </trkpt>
      <trkpt lat="45.61003" lon="6.65435">
        <ele>2022.2</ele>
        <time>2012-02-18T10:36:16Z</time>
      </trkpt>
      <trkpt lat="45.61012" lon="6.65432">
        <ele>2022.8</ele>
        <time>2012-02-18T10:36:27Z</time>
      </trkpt>
      <trkpt lat="45.6102" lon="6.65428">
        <ele>2025.2</ele>
        <time>2012-02-18T10:36:37Z</time>
      </trkpt>
      <trkpt lat="45.61028" lon="6.65423">
        <ele>2026.1</ele>
        <time>2012-02-18T10:36:49Z</time>
      </trkpt>
      <trkpt lat="45.61028" lon="6.65423">
        <ele>2026.3</ele>
        <time>2012-02-18T10:36:50Z</time>
      </trkpt>
      <trkpt lat="45.61044" lon="6.65414">
        <ele>2028.1</ele>
        <time>2012-02-18T10:37:12Z</time>
      </trkpt>
      <trkpt lat="45.61052" lon="6.65411">
        <ele>2029.7</ele>
        <time>2012-02-18T10:37:24Z</time>
      </trkpt>
      <trkpt lat="45.61061" lon="6.65408">
        <ele>2031.9</ele>
        <time>2012-02-18T10:37:38Z</time>
      </trkpt>
      <trkpt lat="45.61069" lon="6.65404">
        <ele>2034.2</ele>
        <time>2012-02-18T10:37:53Z</time>
      </trkpt>
      <trkpt lat="45.6107" lon="6.65403">
        <ele>2034.3</ele>
        <time>2012-02-18T10:37:54Z</time>
      </trkpt>
      <trkpt lat="45.61085" lon="6.65394">
        <ele>2036.3</ele>
        <time>2012-02-18T10:38:16Z</time>
      </trkpt>
      <trkpt lat="45.61093" lon="6.65391">
        <ele>2037.7</ele>
        <time>2012-02-18T10:38:31Z</time>
      </trkpt>
      <trkpt lat="45.61095" lon="6.65403">
        <ele>2043.2</ele>
        <time>2012-02-18T10:39:02Z</time>
      </trkpt>
      <trkpt lat="45.61095" lon="6.65404">
        <ele>2043.4</ele>
        <time>2012-02-18T10:39:03Z</time>
      </trkpt>
      <trkpt lat="45.61103" lon="6.65424">
        <ele>2048.4</ele>
        <time>2012-02-18T10:39:32Z</time>
      </trkpt>
      <trkpt lat="45.61111" lon="6.65429">
        <ele>2050.1</ele>
        <time>2012-02-18T10:40:13Z</time>
      </trkpt>
      <trkpt lat="45.61112" lon="6.65429">
        <ele>2050.4</ele>
        <time>2012-02-18T10:40:14Z</time>
      </trkpt>
      <trkpt lat="45.61127" lon="6.6544">
        <ele>2053.5</ele>
        <time>2012-02-18T10:40:39Z</time>
      </trkpt>
      <trkpt lat="45.61135" lon="6.65444">
        <ele>2056.2</ele>
        <time>2012-02-18T10:40:52Z</time>
      </trkpt>
      <trkpt lat="45.61143" lon="6.65448">
        <ele>2056.8</ele>
        <time>2012-02-18T10:41:04Z</time>
      </trkpt>
      <trkpt lat="45.61151" lon="6.65453">
        <ele>2059.1</ele>
        <time>2012-02-18T10:41:18Z</time>
      </trkpt>
      <trkpt lat="45.61152" lon="6.65454">
        <ele>2059.5</ele>
        <time>2012-02-18T10:41:19Z</time>
      </trkpt>
      <trkpt lat="45.61166" lon="6.65464">
        <ele>2063.7</ele>
        <time>2012-02-18T10:41:48Z</time>
      </trkpt>
      <trkpt lat="45.61174" lon="6.65469">
        <ele>2065.8</ele>
        <time>2012-02-18T10:42:05Z</time>
      </trkpt>
      <trkpt lat="45.61183" lon="6.65473">
        <ele>2069.4</ele>
        <time>2012-02-18T10:42:22Z</time>
      </trkpt>
      <trkpt lat="45.61184" lon="6.65473">
        <ele>2069.5</ele>
        <time>2012-02-18T10:42:23Z</time>
      </trkpt>
      <trkpt lat="45.612" lon="6.65481">
        <ele>2073.3</ele>
        <time>2012-02-18T10:42:54Z</time>
      </trkpt>
      <trkpt lat="45.61208" lon="6.65484">
        <ele>2077.3</ele>
        <time>2012-02-18T10:43:10Z</time>
      </trkpt>
      <trkpt lat="45.61217" lon="6.65485">
        <ele>2079.3</ele>
        <time>2012-02-18T10:43:28Z</time>
      </trkpt>
      <trkpt lat="45.61218" lon="6.65485">
        <ele>2079.6</ele>
        <time>2012-02-18T10:43:29Z</time>
      </trkpt>
      <trkpt lat="45.61234" lon="6.65486">
        <ele>2083.6</ele>
        <time>2012-02-18T10:44:02Z</time>
      </trkpt>
      <trkpt lat="45.61243" lon="6.65487">
        <ele>2086.6</ele>
        <time>2012-02-18T10:44:17Z</time>
      </trkpt>
      <trkpt lat="45.61251" lon="6.65493">
        <ele>2088.2</ele>
        <time>2012-02-18T10:44:32Z</time>
      </trkpt>
      <trkpt lat="45.61251" lon="6.65494">
        <ele>2088.4</ele>
        <time>2012-02-18T10:44:33Z</time>
      </trkpt>
      <trkpt lat="45.61266" lon="6.65503">
        <ele>2092.9</ele>
        <time>2012-02-18T10:45:03Z</time>
      </trkpt>
      <trkpt lat="45.61274" lon="6.65508">
        <ele>2096</ele>
        <time>2012-02-18T10:45:19Z</time>
      </trkpt>
      <trkpt lat="45.6128" lon="6.65517">
        <ele>2098.8</ele>
        <time>2012-02-18T10:45:36Z</time>
      </trkpt>
      <trkpt lat="45.61281" lon="6.65518">
        <ele>2099</ele>
        <time>2012-02-18T10:45:37Z</time>
      </trkpt>
      <trkpt lat="45.61294" lon="6.65531">
        <ele>2102.3</ele>
        <time>2012-02-18T10:46:03Z</time>
      </trkpt>
      <trkpt lat="45.61302" lon="6.65537">
        <ele>2103.5</ele>
        <time>2012-02-18T10:46:16Z</time>
      </trkpt>
      <trkpt lat="45.61309" lon="6.65543">
        <ele>2105.9</ele>
        <time>2012-02-18T10:46:29Z</time>
      </trkpt>
      <trkpt lat="45.61317" lon="6.65548">
        <ele>2107.5</ele>
        <time>2012-02-18T10:46:43Z</time>
      </trkpt>
      <trkpt lat="45.61318" lon="6.65548">
        <ele>2107.8</ele>
        <time>2012-02-18T10:46:44Z</time>
      </trkpt>
      <trkpt lat="45.61334" lon="6.65556">
        <ele>2111.1</ele>
        <time>2012-02-18T10:47:10Z</time>
      </trkpt>
      <trkpt lat="45.61342" lon="6.65556">
        <ele>2112.2</ele>
        <time>2012-02-18T10:47:22Z</time>
      </trkpt>
      <trkpt lat="45.6135" lon="6.65558">
        <ele>2112.9</ele>
        <time>2012-02-18T10:47:34Z</time>
      </trkpt>
      <trkpt lat="45.61359" lon="6.65559">
        <ele>2114</ele>
        <time>2012-02-18T10:47:43Z</time>
      </trkpt>
      <trkpt lat="45.61367" lon="6.65562">
        <ele>2114.7</ele>
        <time>2012-02-18T10:47:53Z</time>
      </trkpt>
      <trkpt lat="45.61368" lon="6.65562">
        <ele>2114.7</ele>
        <time>2012-02-18T10:47:54Z</time>
      </trkpt>
      <trkpt lat="45.61385" lon="6.65566">
        <ele>2116.5</ele>
        <time>2012-02-18T10:48:15Z</time>
      </trkpt>
      <trkpt lat="45.61393" lon="6.65569">
        <ele>2117.6</ele>
        <time>2012-02-18T10:48:27Z</time>
      </trkpt>
      <trkpt lat="45.61401" lon="6.65567">
        <ele>2117.5</ele>
        <time>2012-02-18T10:48:42Z</time>
      </trkpt>
      <trkpt lat="45.61409" lon="6.65561">
        <ele>2118.5</ele>
        <time>2012-02-18T10:48:50Z</time>
      </trkpt>
      <trkpt lat="45.61414" lon="6.65553">
        <ele>2119.8</ele>
        <time>2012-02-18T10:48:58Z</time>
      </trkpt>
      <trkpt lat="45.61415" lon="6.65552">
        <ele>2120.2</ele>
        <time>2012-02-18T10:48:59Z</time>
      </trkpt>
      <trkpt lat="45.61426" lon="6.65535">
        <ele>2121.5</ele>
        <time>2012-02-18T10:49:17Z</time>
      </trkpt>
      <trkpt lat="45.61433" lon="6.65527">
        <ele>2122.7</ele>
        <time>2012-02-18T10:49:32Z</time>
      </trkpt>
      <trkpt lat="45.61438" lon="6.65517">
        <ele>2125.3</ele>
        <time>2012-02-18T10:49:44Z</time>
      </trkpt>
      <trkpt lat="45.6144" lon="6.65506">
        <ele>2127.1</ele>
        <time>2012-02-18T10:49:55Z</time>
      </trkpt>
      <trkpt lat="45.61443" lon="6.65494">
        <ele>2128.9</ele>
        <time>2012-02-18T10:50:07Z</time>
      </trkpt>
      <trkpt lat="45.61443" lon="6.65493">
        <ele>2129</ele>
        <time>2012-02-18T10:50:08Z</time>
      </trkpt>
      <trkpt lat="45.61444" lon="6.6547">
        <ele>2133</ele>
        <time>2012-02-18T10:50:42Z</time>
      </trkpt>
      <trkpt lat="45.61453" lon="6.65468">
        <ele>2137.5</ele>
        <time>2012-02-18T10:51:02Z</time>
      </trkpt>
      <trkpt lat="45.6146" lon="6.65474">
        <ele>2139.4</ele>
        <time>2012-02-18T10:51:22Z</time>
      </trkpt>
      <trkpt lat="45.6146" lon="6.65475">
        <ele>2139.6</ele>
        <time>2012-02-18T10:51:23Z</time>
      </trkpt>
      <trkpt lat="45.61474" lon="6.65461">
        <ele>2145.5</ele>
        <time>2012-02-18T10:51:58Z</time>
      </trkpt>
      <trkpt lat="45.6148" lon="6.65451">
        <ele>2146.8</ele>
        <time>2012-02-18T10:52:11Z</time>
      </trkpt>
      <trkpt lat="45.61489" lon="6.65455">
        <ele>2150.8</ele>
        <time>2012-02-18T10:52:28Z</time>
      </trkpt>
      <trkpt lat="45.61489" lon="6.65456">
        <ele>2150.8</ele>
        <time>2012-02-18T10:52:29Z</time>
      </trkpt>
      <trkpt lat="45.61498" lon="6.65475">
        <ele>2157.1</ele>
        <time>2012-02-18T10:53:06Z</time>
      </trkpt>
      <trkpt lat="45.61505" lon="6.65467">
        <ele>2157.8</ele>
        <time>2012-02-18T10:53:19Z</time>
      </trkpt>
      <trkpt lat="45.6151" lon="6.65456">
        <ele>2159.9</ele>
        <time>2012-02-18T10:53:34Z</time>
      </trkpt>
      <trkpt lat="45.6151" lon="6.65456">
        <ele>2160.3</ele>
        <time>2012-02-18T10:53:35Z</time>
      </trkpt>
      <trkpt lat="45.61521" lon="6.65437">
        <ele>2164.3</ele>
        <time>2012-02-18T10:54:02Z</time>
      </trkpt>
      <trkpt lat="45.61527" lon="6.65428">
        <ele>2166.3</ele>
        <time>2012-02-18T10:54:17Z</time>
      </trkpt>
      <trkpt lat="45.61532" lon="6.65419">
        <ele>2170</ele>
        <time>2012-02-18T10:54:32Z</time>
      </trkpt>
      <trkpt lat="45.61537" lon="6.65408">
        <ele>2171.3</ele>
        <time>2012-02-18T10:54:46Z</time>
      </trkpt>
      <trkpt lat="45.61537" lon="6.65407">
        <ele>2171.6</ele>
        <time>2012-02-18T10:54:47Z</time>
      </trkpt>
      <trkpt lat="45.61544" lon="6.65385">
        <ele>2176.2</ele>
        <time>2012-02-18T10:55:20Z</time>
      </trkpt>
      <trkpt lat="45.61552" lon="6.65389">
        <ele>2178.9</ele>
        <time>2012-02-18T10:55:37Z</time>
      </trkpt>
      <trkpt lat="45.61559" lon="6.65396">
        <ele>2180.8</ele>
        <time>2012-02-18T10:55:53Z</time>
      </trkpt>
      <trkpt lat="45.61559" lon="6.65397">
        <ele>2180.9</ele>
        <time>2012-02-18T10:55:54Z</time>
      </trkpt>
      <trkpt lat="45.61575" lon="6.65408">
        <ele>2187.4</ele>
        <time>2012-02-18T10:56:27Z</time>
      </trkpt>
      <trkpt lat="45.61583" lon="6.65404">
        <ele>2189.4</ele>
        <time>2012-02-18T10:56:42Z</time>
      </trkpt>
      <trkpt lat="45.61589" lon="6.65395">
        <ele>2192.6</ele>
        <time>2012-02-18T10:56:57Z</time>
      </trkpt>
      <trkpt lat="45.61589" lon="6.65394">
        <ele>2192.5</ele>
        <time>2012-02-18T10:56:58Z</time>
      </trkpt>
      <trkpt lat="45.61581" lon="6.65388">
        <ele>2192.5</ele>
        <time>2012-02-18T11:02:00Z</time>
      </trkpt>
      <trkpt lat="45.61588" lon="6.65396">
        <ele>2193</ele>
        <time>2012-02-18T11:03:57Z</time>
      </trkpt>
      <trkpt lat="45.61596" lon="6.65388">
        <ele>2195.5</ele>
        <time>2012-02-18T11:08:25Z</time>
      </trkpt>
      <trkpt lat="45.61609" lon="6.65373">
        <ele>2199</ele>
        <time>2012-02-18T11:08:49Z</time>
      </trkpt>
      <trkpt lat="45.61616" lon="6.65366">
        <ele>2199.9</ele>
        <time>2012-02-18T11:09:03Z</time>
      </trkpt>
      <trkpt lat="45.61624" lon="6.6536">
        <ele>2201.7</ele>
        <time>2012-02-18T11:09:16Z</time>
      </trkpt>
      <trkpt lat="45.61632" lon="6.65355">
        <ele>2202.8</ele>
        <time>2012-02-18T11:09:30Z</time>
      </trkpt>
      <trkpt lat="45.61632" lon="6.65354">
        <ele>2202.8</ele>
        <time>2012-02-18T11:09:31Z</time>
      </trkpt>
      <trkpt lat="45.61647" lon="6.65344">
        <ele>2207.9</ele>
        <time>2012-02-18T11:10:01Z</time>
      </trkpt>
      <trkpt lat="45.61655" lon="6.6534">
        <ele>2210.1</ele>
        <time>2012-02-18T11:10:18Z</time>
      </trkpt>
      <trkpt lat="45.61662" lon="6.65332">
        <ele>2213.9</ele>
        <time>2012-02-18T11:10:37Z</time>
      </trkpt>
      <trkpt lat="45.61663" lon="6.65332">
        <ele>2214.4</ele>
        <time>2012-02-18T11:10:38Z</time>
      </trkpt>
      <trkpt lat="45.61675" lon="6.65315">
        <ele>2218.5</ele>
        <time>2012-02-18T11:11:08Z</time>
      </trkpt>
      <trkpt lat="45.61682" lon="6.65308">
        <ele>2221.7</ele>
        <time>2012-02-18T11:11:27Z</time>
      </trkpt>
      <trkpt lat="45.61689" lon="6.653">
        <ele>2224.5</ele>
        <time>2012-02-18T11:11:46Z</time>
      </trkpt>
      <trkpt lat="45.61689" lon="6.65299">
        <ele>2224.3</ele>
        <time>2012-02-18T11:11:47Z</time>
      </trkpt>
      <trkpt lat="45.61697" lon="6.65278">
        <ele>2228</ele>
        <time>2012-02-18T11:12:14Z</time>
      </trkpt>
      <trkpt lat="45.617" lon="6.65266">
        <ele>2229.4</ele>
        <time>2012-02-18T11:12:27Z</time>
      </trkpt>
      <trkpt lat="45.61704" lon="6.65255">
        <ele>2230.8</ele>
        <time>2012-02-18T11:12:40Z</time>
      </trkpt>
      <trkpt lat="45.61708" lon="6.65244">
        <ele>2231.9</ele>
        <time>2012-02-18T11:12:53Z</time>
      </trkpt>
      <trkpt lat="45.61708" lon="6.65243">
        <ele>2231.9</ele>
        <time>2012-02-18T11:12:54Z</time>
      </trkpt>
      <trkpt lat="45.61717" lon="6.65225">
        <ele>2236</ele>
        <time>2012-02-18T11:13:23Z</time>
      </trkpt>
      <trkpt lat="45.61723" lon="6.65216">
        <ele>2237.8</ele>
        <time>2012-02-18T11:13:39Z</time>
      </trkpt>
      <trkpt lat="45.6173" lon="6.65209">
        <ele>2239.9</ele>
        <time>2012-02-18T11:13:56Z</time>
      </trkpt>
      <trkpt lat="45.6173" lon="6.65208">
        <ele>2239.6</ele>
        <time>2012-02-18T11:13:57Z</time>
      </trkpt>
      <trkpt lat="45.61745" lon="6.65196">
        <ele>2244.8</ele>
        <time>2012-02-18T11:14:28Z</time>
      </trkpt>
      <trkpt lat="45.61753" lon="6.65192">
        <ele>2247.8</ele>
        <time>2012-02-18T11:14:45Z</time>
      </trkpt>
      <trkpt lat="45.61762" lon="6.6519">
        <ele>2248.6</ele>
        <time>2012-02-18T11:15:00Z</time>
      </trkpt>
      <trkpt lat="45.61762" lon="6.65189">
        <ele>2248.7</ele>
        <time>2012-02-18T11:15:01Z</time>
      </trkpt>
      <trkpt lat="45.61778" lon="6.65197">
        <ele>2254.7</ele>
        <time>2012-02-18T11:15:36Z</time>
      </trkpt>
      <trkpt lat="45.61786" lon="6.65204">
        <ele>2257.4</ele>
        <time>2012-02-18T11:15:56Z</time>
      </trkpt>
      <trkpt lat="45.61794" lon="6.65206">
        <ele>2261.3</ele>
        <time>2012-02-18T11:16:18Z</time>
      </trkpt>
      <trkpt lat="45.61795" lon="6.65206">
        <ele>2261.7</ele>
        <time>2012-02-18T11:16:19Z</time>
      </trkpt>
      <trkpt lat="45.61803" lon="6.65185">
        <ele>2269.2</ele>
        <time>2012-02-18T11:17:03Z</time>
      </trkpt>
      <trkpt lat="45.61805" lon="6.65173">
        <ele>2272.3</ele>
        <time>2012-02-18T11:17:24Z</time>
      </trkpt>
      <trkpt lat="45.61805" lon="6.65173">
        <ele>2272.3</ele>
        <time>2012-02-18T11:17:25Z</time>
      </trkpt>
      <trkpt lat="45.61813" lon="6.65151">
        <ele>2280.9</ele>
        <time>2012-02-18T11:18:13Z</time>
      </trkpt>
      <trkpt lat="45.61821" lon="6.65149">
        <ele>2286.5</ele>
        <time>2012-02-18T11:18:49Z</time>
      </trkpt>
      <trkpt lat="45.61822" lon="6.65149">
        <ele>2287</ele>
        <time>2012-02-18T11:18:50Z</time>
      </trkpt>
      <trkpt lat="45.61833" lon="6.65132">
        <ele>2294.5</ele>
        <time>2012-02-18T11:19:39Z</time>
      </trkpt>
      <trkpt lat="45.6184" lon="6.65124">
        <ele>2299.6</ele>
        <time>2012-02-18T11:20:02Z</time>
      </trkpt>
      <trkpt lat="45.61841" lon="6.65124">
        <ele>2299.7</ele>
        <time>2012-02-18T11:20:03Z</time>
      </trkpt>
      <trkpt lat="45.61852" lon="6.65106">
        <ele>2306.9</ele>
        <time>2012-02-18T11:20:44Z</time>
      </trkpt>
      <trkpt lat="45.6186" lon="6.651">
        <ele>2311.2</ele>
        <time>2012-02-18T11:21:07Z</time>
      </trkpt>
      <trkpt lat="45.61861" lon="6.651">
        <ele>2311.2</ele>
        <time>2012-02-18T11:21:08Z</time>
      </trkpt>
      <trkpt lat="45.61874" lon="6.65093">
        <ele>2317.8</ele>
        <time>2012-02-18T11:21:52Z</time>
      </trkpt>
      <trkpt lat="45.61883" lon="6.65088">
        <ele>2321</ele>
        <time>2012-02-18T11:22:17Z</time>
      </trkpt>
      <trkpt lat="45.61883" lon="6.65088">
        <ele>2320.8</ele>
        <time>2012-02-18T11:22:18Z</time>
      </trkpt>
      <trkpt lat="45.61897" lon="6.65101">
        <ele>2327.4</ele>
        <time>2012-02-18T11:22:51Z</time>
      </trkpt>
      <trkpt lat="45.61905" lon="6.65107">
        <ele>2329.4</ele>
        <time>2012-02-18T11:23:09Z</time>
      </trkpt>
      <trkpt lat="45.61912" lon="6.65115">
        <ele>2333.2</ele>
        <time>2012-02-18T11:23:27Z</time>
      </trkpt>
      <trkpt lat="45.61912" lon="6.65115">
        <ele>2333.2</ele>
        <time>2012-02-18T11:23:28Z</time>
      </trkpt>
      <trkpt lat="45.61926" lon="6.6513">
        <ele>2338.8</ele>
        <time>2012-02-18T11:24:05Z</time>
      </trkpt>
      <trkpt lat="45.61934" lon="6.65135">
        <ele>2341.5</ele>
        <time>2012-02-18T11:24:23Z</time>
      </trkpt>
      <trkpt lat="45.61941" lon="6.65141">
        <ele>2343</ele>
        <time>2012-02-18T11:24:41Z</time>
      </trkpt>
      <trkpt lat="45.61942" lon="6.65141">
        <ele>2343.2</ele>
        <time>2012-02-18T11:24:42Z</time>
      </trkpt>
      <trkpt lat="45.61957" lon="6.65151">
        <ele>2349.9</ele>
        <time>2012-02-18T11:25:17Z</time>
      </trkpt>
      <trkpt lat="45.61965" lon="6.65155">
        <ele>2350.4</ele>
        <time>2012-02-18T11:25:31Z</time>
      </trkpt>
      <trkpt lat="45.61974" lon="6.65158">
        <ele>2353.2</ele>
        <time>2012-02-18T11:25:45Z</time>
      </trkpt>
      <trkpt lat="45.61974" lon="6.65158">
        <ele>2353.2</ele>
        <time>2012-02-18T11:25:46Z</time>
      </trkpt>
      <trkpt lat="45.6199" lon="6.65148">
        <ele>2356.7</ele>
        <time>2012-02-18T11:30:42Z</time>
      </trkpt>
      <trkpt lat="45.61992" lon="6.65146">
        <ele>2356.6</ele>
        <time>2012-02-18T11:30:43Z</time>
      </trkpt>
      <trkpt lat="45.62001" lon="6.65132">
        <ele>2354.6</ele>
        <time>2012-02-18T11:30:53Z</time>
      </trkpt>
      <trkpt lat="45.62007" lon="6.65123">
        <ele>2354.3</ele>
        <time>2012-02-18T11:30:59Z</time>
      </trkpt>
      <trkpt lat="45.62012" lon="6.65113">
        <ele>2354.5</ele>
        <time>2012-02-18T11:31:06Z</time>
      </trkpt>
      <trkpt lat="45.62018" lon="6.65104">
        <ele>2354.6</ele>
        <time>2012-02-18T11:31:13Z</time>
      </trkpt>
      <trkpt lat="45.62023" lon="6.65095">
        <ele>2354.7</ele>
        <time>2012-02-18T11:31:21Z</time>
      </trkpt>
      <trkpt lat="45.62029" lon="6.65086">
        <ele>2356.4</ele>
        <time>2012-02-18T11:31:30Z</time>
      </trkpt>
      <trkpt lat="45.62036" lon="6.65079">
        <ele>2356.8</ele>
        <time>2012-02-18T11:31:40Z</time>
      </trkpt>
      <trkpt lat="45.62043" lon="6.6507">
        <ele>2360.8</ele>
        <time>2012-02-18T11:31:54Z</time>
      </trkpt>
      <trkpt lat="45.62043" lon="6.6507">
        <ele>2361</ele>
        <time>2012-02-18T11:31:55Z</time>
      </trkpt>
      <trkpt lat="45.62056" lon="6.65056">
        <ele>2364.1</ele>
        <time>2012-02-18T11:32:18Z</time>
      </trkpt>
      <trkpt lat="45.62064" lon="6.65049">
        <ele>2365.4</ele>
        <time>2012-02-18T11:32:29Z</time>
      </trkpt>
      <trkpt lat="45.6207" lon="6.65042">
        <ele>2366.8</ele>
        <time>2012-02-18T11:32:39Z</time>
      </trkpt>
      <trkpt lat="45.62076" lon="6.65035">
        <ele>2367.6</ele>
        <time>2012-02-18T11:32:47Z</time>
      </trkpt>
      <trkpt lat="45.62082" lon="6.65027">
        <ele>2368.5</ele>
        <time>2012-02-18T11:32:56Z</time>
      </trkpt>
      <trkpt lat="45.62083" lon="6.65026">
        <ele>2368.6</ele>
        <time>2012-02-18T11:32:57Z</time>
      </trkpt>
      <trkpt lat="45.62097" lon="6.65014">
        <ele>2371.1</ele>
        <time>2012-02-18T11:33:18Z</time>
      </trkpt>
      <trkpt lat="45.62105" lon="6.65009">
        <ele>2373.7</ele>
        <time>2012-02-18T11:33:30Z</time>
      </trkpt>
      <trkpt lat="45.62113" lon="6.65006">
        <ele>2374.6</ele>
        <time>2012-02-18T11:33:42Z</time>
      </trkpt>
      <trkpt lat="45.62122" lon="6.65003">
        <ele>2377.5</ele>
        <time>2012-02-18T11:33:54Z</time>
      </trkpt>
      <trkpt lat="45.6213" lon="6.64998">
        <ele>2380.7</ele>
        <time>2012-02-18T11:34:06Z</time>
      </trkpt>
      <trkpt lat="45.62131" lon="6.64998">
        <ele>2380.6</ele>
        <time>2012-02-18T11:34:07Z</time>
      </trkpt>
      <trkpt lat="45.62147" lon="6.64991">
        <ele>2384.3</ele>
        <time>2012-02-18T11:34:30Z</time>
      </trkpt>
      <trkpt lat="45.62154" lon="6.64985">
        <ele>2386.5</ele>
        <time>2012-02-18T11:34:41Z</time>
      </trkpt>
      <trkpt lat="45.62162" lon="6.6498">
        <ele>2388.4</ele>
        <time>2012-02-18T11:34:52Z</time>
      </trkpt>
      <trkpt lat="45.6217" lon="6.64977">
        <ele>2389.9</ele>
        <time>2012-02-18T11:35:03Z</time>
      </trkpt>
      <trkpt lat="45.62179" lon="6.64975">
        <ele>2391.9</ele>
        <time>2012-02-18T11:35:14Z</time>
      </trkpt>
      <trkpt lat="45.6218" lon="6.64975">
        <ele>2391.8</ele>
        <time>2012-02-18T11:35:15Z</time>
      </trkpt>
      <trkpt lat="45.62195" lon="6.64966">
        <ele>2393.5</ele>
        <time>2012-02-18T11:35:34Z</time>
      </trkpt>
      <trkpt lat="45.62203" lon="6.64962">
        <ele>2395.3</ele>
        <time>2012-02-18T11:35:47Z</time>
      </trkpt>
      <trkpt lat="45.62212" lon="6.64959">
        <ele>2399</ele>
        <time>2012-02-18T11:36:02Z</time>
      </trkpt>
      <trkpt lat="45.6222" lon="6.64955">
        <ele>2401.3</ele>
        <time>2012-02-18T11:36:17Z</time>
      </trkpt>
      <trkpt lat="45.6222" lon="6.64955">
        <ele>2401.5</ele>
        <time>2012-02-18T11:36:18Z</time>
      </trkpt>
      <trkpt lat="45.62236" lon="6.64946">
        <ele>2405</ele>
        <time>2012-02-18T11:36:39Z</time>
      </trkpt>
      <trkpt lat="45.62242" lon="6.64938">
        <ele>2406.5</ele>
        <time>2012-02-18T11:36:48Z</time>
      </trkpt>
      <trkpt lat="45.62247" lon="6.64927">
        <ele>2406.9</ele>
        <time>2012-02-18T11:36:59Z</time>
      </trkpt>
      <trkpt lat="45.62251" lon="6.64916">
        <ele>2408.2</ele>
        <time>2012-02-18T11:37:09Z</time>
      </trkpt>
      <trkpt lat="45.62252" lon="6.64904">
        <ele>2409.4</ele>
        <time>2012-02-18T11:37:18Z</time>
      </trkpt>
      <trkpt lat="45.62252" lon="6.64891">
        <ele>2410</ele>
        <time>2012-02-18T11:37:27Z</time>
      </trkpt>
      <trkpt lat="45.62251" lon="6.6489">
        <ele>2410.2</ele>
        <time>2012-02-18T11:37:28Z</time>
      </trkpt>
      <trkpt lat="45.62256" lon="6.64869">
        <ele>2410.5</ele>
        <time>2012-02-18T11:37:44Z</time>
      </trkpt>
      <trkpt lat="45.62262" lon="6.64861">
        <ele>2411.7</ele>
        <time>2012-02-18T11:37:54Z</time>
      </trkpt>
      <trkpt lat="45.62268" lon="6.64852">
        <ele>2413.8</ele>
        <time>2012-02-18T11:38:05Z</time>
      </trkpt>
      <trkpt lat="45.62274" lon="6.64842">
        <ele>2413.8</ele>
        <time>2012-02-18T11:38:14Z</time>
      </trkpt>
      <trkpt lat="45.6228" lon="6.64835">
        <ele>2414.8</ele>
        <time>2012-02-18T11:38:24Z</time>
      </trkpt>
      <trkpt lat="45.62289" lon="6.64835">
        <ele>2418.1</ele>
        <time>2012-02-18T11:38:40Z</time>
      </trkpt>
      <trkpt lat="45.6229" lon="6.64835">
        <ele>2418.2</ele>
        <time>2012-02-18T11:38:41Z</time>
      </trkpt>
      <trkpt lat="45.62302" lon="6.64836">
        <ele>2422.6</ele>
        <time>2012-02-18T11:39:06Z</time>
      </trkpt>
      <trkpt lat="45.62306" lon="6.64826">
        <ele>2424.6</ele>
        <time>2012-02-18T11:39:18Z</time>
      </trkpt>
      <trkpt lat="45.62309" lon="6.64814">
        <ele>2427.5</ele>
        <time>2012-02-18T11:39:31Z</time>
      </trkpt>
      <trkpt lat="45.62317" lon="6.6481">
        <ele>2431.5</ele>
        <time>2012-02-18T11:39:51Z</time>
      </trkpt>
      <trkpt lat="45.62318" lon="6.6481">
        <ele>2431.6</ele>
        <time>2012-02-18T11:39:52Z</time>
      </trkpt>
      <trkpt lat="45.62331" lon="6.64825">
        <ele>2434.7</ele>
        <time>2012-02-18T11:40:15Z</time>
      </trkpt>
      <trkpt lat="45.62337" lon="6.64834">
        <ele>2437</ele>
        <time>2012-02-18T11:40:28Z</time>
      </trkpt>
      <trkpt lat="45.62342" lon="6.64843">
        <ele>2439.8</ele>
        <time>2012-02-18T11:40:40Z</time>
      </trkpt>
      <trkpt lat="45.62349" lon="6.64851">
        <ele>2441.9</ele>
        <time>2012-02-18T11:40:52Z</time>
      </trkpt>
      <trkpt lat="45.62355" lon="6.64859">
        <ele>2445.1</ele>
        <time>2012-02-18T11:41:06Z</time>
      </trkpt>
      <trkpt lat="45.62356" lon="6.6486">
        <ele>2445.1</ele>
        <time>2012-02-18T11:41:07Z</time>
      </trkpt>
      <trkpt lat="45.62371" lon="6.64861">
        <ele>2451.2</ele>
        <time>2012-02-18T11:41:37Z</time>
      </trkpt>
      <trkpt lat="45.62377" lon="6.64853">
        <ele>2453.8</ele>
        <time>2012-02-18T11:41:49Z</time>
      </trkpt>
      <trkpt lat="45.62384" lon="6.64847">
        <ele>2455.6</ele>
        <time>2012-02-18T11:41:59Z</time>
      </trkpt>
      <trkpt lat="45.62392" lon="6.64842">
        <ele>2455.6</ele>
        <time>2012-02-18T11:42:10Z</time>
      </trkpt>
      <trkpt lat="45.62393" lon="6.64841">
        <ele>2455.6</ele>
        <time>2012-02-18T11:42:11Z</time>
      </trkpt>
      <trkpt lat="45.62408" lon="6.64834">
        <ele>2459.7</ele>
        <time>2012-02-18T11:42:30Z</time>
      </trkpt>
      <trkpt lat="45.62417" lon="6.64834">
        <ele>2460.5</ele>
        <time>2012-02-18T11:42:40Z</time>
      </trkpt>
      <trkpt lat="45.62425" lon="6.64834">
        <ele>2463.5</ele>
        <time>2012-02-18T11:42:50Z</time>
      </trkpt>
      <trkpt lat="45.62434" lon="6.64835">
        <ele>2465.4</ele>
        <time>2012-02-18T11:43:02Z</time>
      </trkpt>
      <trkpt lat="45.62439" lon="6.64845">
        <ele>2467.2</ele>
        <time>2012-02-18T11:43:20Z</time>
      </trkpt>
      <trkpt lat="45.62439" lon="6.64845">
        <ele>2467.2</ele>
        <time>2012-02-18T11:43:21Z</time>
      </trkpt>
      <trkpt lat="45.62444" lon="6.6487">
        <ele>2463.7</ele>
        <time>2012-02-18T11:43:48Z</time>
      </trkpt>
      <trkpt lat="45.62449" lon="6.64879">
        <ele>2461.5</ele>
        <time>2012-02-18T11:43:52Z</time>
      </trkpt>
      <trkpt lat="45.62454" lon="6.64887">
        <ele>2459.4</ele>
        <time>2012-02-18T11:44:00Z</time>
      </trkpt>
      <trkpt lat="45.62459" lon="6.64898">
        <ele>2458.8</ele>
        <time>2012-02-18T11:46:42Z</time>
      </trkpt>
      <trkpt lat="45.62459" lon="6.64899">
        <ele>2458.9</ele>
        <time>2012-02-18T11:46:43Z</time>
      </trkpt>
      <trkpt lat="45.6245" lon="6.64876">
        <ele>2459.5</ele>
        <time>2012-02-18T11:49:02Z</time>
      </trkpt>
      <trkpt lat="45.62449" lon="6.64876">
        <ele>2459.3</ele>
        <time>2012-02-18T11:49:03Z</time>
      </trkpt>
      <trkpt lat="45.62457" lon="6.64886">
        <ele>2459</ele>
        <time>2012-02-18T11:51:44Z</time>
      </trkpt>
      <trkpt lat="45.62468" lon="6.64897">
        <ele>2459.6</ele>
        <time>2012-02-18T11:52:41Z</time>
      </trkpt>
      <trkpt lat="45.62477" lon="6.64896">
        <ele>2460.8</ele>
        <time>2012-02-18T11:53:12Z</time>
      </trkpt>
      <trkpt lat="45.62477" lon="6.64896">
        <ele>2461.2</ele>
        <time>2012-02-18T11:53:13Z</time>
      </trkpt>
      <trkpt lat="45.62493" lon="6.6489">
        <ele>2463.1</ele>
        <time>2012-02-18T11:53:35Z</time>
      </trkpt>
      <trkpt lat="45.62502" lon="6.6489">
        <ele>2465</ele>
        <time>2012-02-18T11:53:48Z</time>
      </trkpt>
      <trkpt lat="45.62509" lon="6.64883">
        <ele>2465</ele>
        <time>2012-02-18T11:53:56Z</time>
      </trkpt>
      <trkpt lat="45.62516" lon="6.64876">
        <ele>2465.3</ele>
        <time>2012-02-18T11:54:17Z</time>
      </trkpt>
      <trkpt lat="45.62517" lon="6.64875">
        <ele>2465.7</ele>
        <time>2012-02-18T11:54:18Z</time>
      </trkpt>
      <trkpt lat="45.6253" lon="6.6486">
        <ele>2468.4</ele>
        <time>2012-02-18T11:54:37Z</time>
      </trkpt>
      <trkpt lat="45.62537" lon="6.64853">
        <ele>2469.2</ele>
        <time>2012-02-18T11:54:49Z</time>
      </trkpt>
      <trkpt lat="45.62545" lon="6.64848">
        <ele>2472.3</ele>
        <time>2012-02-18T11:55:01Z</time>
      </trkpt>
      <trkpt lat="45.62552" lon="6.64844">
        <ele>2473.3</ele>
        <time>2012-02-18T11:55:11Z</time>
      </trkpt>
      <trkpt lat="45.62561" lon="6.64839">
        <ele>2474.2</ele>
        <time>2012-02-18T11:55:21Z</time>
      </trkpt>
      <trkpt lat="45.62562" lon="6.64839">
        <ele>2474.1</ele>
        <time>2012-02-18T11:55:22Z</time>
      </trkpt>
      <trkpt lat="45.62577" lon="6.64832">
        <ele>2476.3</ele>
        <time>2012-02-18T11:55:42Z</time>
      </trkpt>
      <trkpt lat="45.62586" lon="6.64828">
        <ele>2477.5</ele>
        <time>2012-02-18T11:55:51Z</time>
      </trkpt>
      <trkpt lat="45.62593" lon="6.64823">
        <ele>2478.4</ele>
        <time>2012-02-18T11:56:02Z</time>
      </trkpt>
      <trkpt lat="45.62597" lon="6.64812">
        <ele>2481</ele>
        <time>2012-02-18T11:56:16Z</time>
      </trkpt>
      <trkpt lat="45.626" lon="6.64799">
        <ele>2483.2</ele>
        <time>2012-02-18T11:56:29Z</time>
      </trkpt>
      <trkpt lat="45.626" lon="6.64799">
        <ele>2483.4</ele>
        <time>2012-02-18T11:56:30Z</time>
      </trkpt>
      <trkpt lat="45.62611" lon="6.64783">
        <ele>2486.9</ele>
        <time>2012-02-18T11:56:53Z</time>
      </trkpt>
      <trkpt lat="45.62615" lon="6.64794">
        <ele>2488.3</ele>
        <time>2012-02-18T11:57:07Z</time>
      </trkpt>
      <trkpt lat="45.62616" lon="6.64806">
        <ele>2490.3</ele>
        <time>2012-02-18T11:57:19Z</time>
      </trkpt>
      <trkpt lat="45.62618" lon="6.64818">
        <ele>2492.2</ele>
        <time>2012-02-18T11:57:31Z</time>
      </trkpt>
      <trkpt lat="45.62627" lon="6.64814">
        <ele>2496.1</ele>
        <time>2012-02-18T11:58:01Z</time>
      </trkpt>
      <trkpt lat="45.62627" lon="6.64814">
        <ele>2496</ele>
        <time>2012-02-18T11:58:02Z</time>
      </trkpt>
      <trkpt lat="45.62641" lon="6.64801">
        <ele>2498.3</ele>
        <time>2012-02-18T11:58:23Z</time>
      </trkpt>
      <trkpt lat="45.62648" lon="6.64794">
        <ele>2498.7</ele>
        <time>2012-02-18T11:58:33Z</time>
      </trkpt>
      <trkpt lat="45.62654" lon="6.64785">
        <ele>2500.5</ele>
        <time>2012-02-18T11:58:44Z</time>
      </trkpt>
      <trkpt lat="45.62661" lon="6.64778">
        <ele>2501.6</ele>
        <time>2012-02-18T11:58:54Z</time>
      </trkpt>
      <trkpt lat="45.62667" lon="6.6477">
        <ele>2503.3</ele>
        <time>2012-02-18T11:59:04Z</time>
      </trkpt>
      <trkpt lat="45.62668" lon="6.64769">
        <ele>2503.4</ele>
        <time>2012-02-18T11:59:05Z</time>
      </trkpt>
      <trkpt lat="45.6268" lon="6.64768">
        <ele>2507.8</ele>
        <time>2012-02-18T11:59:30Z</time>
      </trkpt>
      <trkpt lat="45.62688" lon="6.64767">
        <ele>2510.2</ele>
        <time>2012-02-18T11:59:44Z</time>
      </trkpt>
      <trkpt lat="45.62697" lon="6.64763">
        <ele>2513.2</ele>
        <time>2012-02-18T11:59:57Z</time>
      </trkpt>
      <trkpt lat="45.62702" lon="6.64753">
        <ele>2515.3</ele>
        <time>2012-02-18T12:00:09Z</time>
      </trkpt>
      <trkpt lat="45.62703" lon="6.64752">
        <ele>2515.6</ele>
        <time>2012-02-18T12:00:10Z</time>
      </trkpt>
      <trkpt lat="45.62717" lon="6.64752">
        <ele>2519.8</ele>
        <time>2012-02-18T12:03:29Z</time>
      </trkpt>
      <trkpt lat="45.62717" lon="6.64751">
        <ele>2519.8</ele>
        <time>2012-02-18T12:03:30Z</time>
      </trkpt>
      <trkpt lat="45.62716" lon="6.64731">
        <ele>2522.6</ele>
        <time>2012-02-18T12:03:54Z</time>
      </trkpt>
      <trkpt lat="45.62707" lon="6.6473">
        <ele>2523.6</ele>
        <time>2012-02-18T12:04:22Z</time>
      </trkpt>
      <trkpt lat="45.62716" lon="6.64731">
        <ele>2506.7</ele>
        <time>2012-02-18T12:38:58Z</time>
      </trkpt>
      <trkpt lat="45.62716" lon="6.64731">
        <ele>2507</ele>
        <time>2012-02-18T12:38:59Z</time>
      </trkpt>
      <trkpt lat="45.6271" lon="6.6472">
        <ele>2508.1</ele>
        <time>2012-02-18T12:44:12Z</time>
      </trkpt>
      <trkpt lat="45.62709" lon="6.64722">
        <ele>2507.7</ele>
        <time>2012-02-18T12:45:23Z</time>
      </trkpt>
      <trkpt lat="45.62709" lon="6.64723">
        <ele>2507.8</ele>
        <time>2012-02-18T12:45:24Z</time>
      </trkpt>
      <trkpt lat="45.62706" lon="6.64736">
        <ele>2507.9</ele>
        <time>2012-02-18T12:51:16Z</time>
      </trkpt>
      <trkpt lat="45.62705" lon="6.64735">
        <ele>2507.7</ele>
        <time>2012-02-18T12:51:17Z</time>
      </trkpt>
      <trkpt lat="45.62706" lon="6.64735">
        <ele>2507.5</ele>
        <time>2012-02-18T12:52:00Z</time>
      </trkpt>
      <trkpt lat="45.62707" lon="6.64723">
        <ele>2508.3</ele>
        <time>2012-02-18T12:53:01Z</time>
      </trkpt>
      <trkpt lat="45.62707" lon="6.64722">
        <ele>2508.4</ele>
        <time>2012-02-18T12:53:02Z</time>
      </trkpt>
      <trkpt lat="45.62715" lon="6.64705">
        <ele>2508</ele>
        <time>2012-02-18T12:54:10Z</time>
      </trkpt>
      <trkpt lat="45.62715" lon="6.64705">
        <ele>2507.9</ele>
        <time>2012-02-18T12:54:11Z</time>
      </trkpt>
      <trkpt lat="45.62711" lon="6.64716">
        <ele>2509.1</ele>
        <time>2012-02-18T12:56:07Z</time>
      </trkpt>
      <trkpt lat="45.62707" lon="6.64717">
        <ele>2508.6</ele>
        <time>2012-02-18T12:58:59Z</time>
      </trkpt>
      <trkpt lat="45.62707" lon="6.64717">
        <ele>2508.3</ele>
        <time>2012-02-18T12:59:00Z</time>
      </trkpt>
      <trkpt lat="45.62703" lon="6.64729">
        <ele>2508.2</ele>
        <time>2012-02-18T13:01:25Z</time>
      </trkpt>
      <trkpt lat="45.62706" lon="6.64741">
        <ele>2509.5</ele>
        <time>2012-02-18T13:10:31Z</time>
      </trkpt>
      <trkpt lat="45.62713" lon="6.64732">
        <ele>2509.5</ele>
        <time>2012-02-18T13:17:08Z</time>
      </trkpt>
      <trkpt lat="45.62717" lon="6.64744">
        <ele>2493.6</ele>
        <time>2012-02-18T13:23:29Z</time>
      </trkpt>
      <trkpt lat="45.62722" lon="6.64755">
        <ele>2492.2</ele>
        <time>2012-02-18T13:34:59Z</time>
      </trkpt>
      <trkpt lat="45.62729" lon="6.64766">
        <ele>2487.7</ele>
        <time>2012-02-18T13:35:14Z</time>
      </trkpt>
      <trkpt lat="45.62738" lon="6.64767">
        <ele>2487.4</ele>
        <time>2012-02-18T13:35:18Z</time>
      </trkpt>
      <trkpt lat="45.6274" lon="6.64777">
        <ele>2482.9</ele>
        <time>2012-02-18T13:35:49Z</time>
      </trkpt>
      <trkpt lat="45.62743" lon="6.64789">
        <ele>2481</ele>
        <time>2012-02-18T13:35:53Z</time>
      </trkpt>
      <trkpt lat="45.62748" lon="6.64799">
        <ele>2474.3</ele>
        <time>2012-02-18T13:36:08Z</time>
      </trkpt>
      <trkpt lat="45.62748" lon="6.648">
        <ele>2474.4</ele>
        <time>2012-02-18T13:36:09Z</time>
      </trkpt>
      <trkpt lat="45.62738" lon="6.64811">
        <ele>2467.7</ele>
        <time>2012-02-18T13:36:41Z</time>
      </trkpt>
      <trkpt lat="45.62738" lon="6.64822">
        <ele>2466.3</ele>
        <time>2012-02-18T13:37:06Z</time>
      </trkpt>
      <trkpt lat="45.62744" lon="6.64829">
        <ele>2463.2</ele>
        <time>2012-02-18T13:37:11Z</time>
      </trkpt>
      <trkpt lat="45.62744" lon="6.64833">
        <ele>2462.8</ele>
        <time>2012-02-18T13:37:12Z</time>
      </trkpt>
      <trkpt lat="45.62744" lon="6.64843">
        <ele>2454.8</ele>
        <time>2012-02-18T13:37:30Z</time>
      </trkpt>
      <trkpt lat="45.62744" lon="6.64854">
        <ele>2454.6</ele>
        <time>2012-02-18T13:37:33Z</time>
      </trkpt>
      <trkpt lat="45.62749" lon="6.64864">
        <ele>2447.6</ele>
        <time>2012-02-18T13:37:45Z</time>
      </trkpt>
      <trkpt lat="45.62757" lon="6.64863">
        <ele>2443.8</ele>
        <time>2012-02-18T13:38:10Z</time>
      </trkpt>
      <trkpt lat="45.62764" lon="6.64865">
        <ele>2441.2</ele>
        <time>2012-02-18T13:38:17Z</time>
      </trkpt>
      <trkpt lat="45.62766" lon="6.64866">
        <ele>2441.2</ele>
        <time>2012-02-18T13:38:18Z</time>
      </trkpt>
      <trkpt lat="45.62771" lon="6.64885">
        <ele>2433.8</ele>
        <time>2012-02-18T13:38:27Z</time>
      </trkpt>
      <trkpt lat="45.62776" lon="6.64891">
        <ele>2431.1</ele>
        <time>2012-02-18T13:38:30Z</time>
      </trkpt>
      <trkpt lat="45.62781" lon="6.64898">
        <ele>2428</ele>
        <time>2012-02-18T13:38:34Z</time>
      </trkpt>
      <trkpt lat="45.62785" lon="6.64909">
        <ele>2425.6</ele>
        <time>2012-02-18T13:38:37Z</time>
      </trkpt>
      <trkpt lat="45.62792" lon="6.64916">
        <ele>2423.5</ele>
        <time>2012-02-18T13:38:40Z</time>
      </trkpt>
      <trkpt lat="45.62799" lon="6.64921">
        <ele>2420.1</ele>
        <time>2012-02-18T13:38:44Z</time>
      </trkpt>
      <trkpt lat="45.62807" lon="6.64927">
        <ele>2418.8</ele>
        <time>2012-02-18T13:38:48Z</time>
      </trkpt>
      <trkpt lat="45.62814" lon="6.64934">
        <ele>2417.6</ele>
        <time>2012-02-18T13:38:51Z</time>
      </trkpt>
      <trkpt lat="45.62814" lon="6.64947">
        <ele>2414.1</ele>
        <time>2012-02-18T13:38:57Z</time>
      </trkpt>
      <trkpt lat="45.6282" lon="6.64956">
        <ele>2427.5</ele>
        <time>2012-02-18T13:39:10Z</time>
      </trkpt>
      <trkpt lat="45.62824" lon="6.64967">
        <ele>2426.9</ele>
        <time>2012-02-18T13:39:50Z</time>
      </trkpt>
      <trkpt lat="45.62822" lon="6.64969">
        <ele>2426.9</ele>
        <time>2012-02-18T13:39:51Z</time>
      </trkpt>
      <trkpt lat="45.62819" lon="6.64983">
        <ele>2423.8</ele>
        <time>2012-02-18T13:40:07Z</time>
      </trkpt>
      <trkpt lat="45.62824" lon="6.64991">
        <ele>2422.7</ele>
        <time>2012-02-18T13:40:09Z</time>
      </trkpt>
      <trkpt lat="45.62829" lon="6.64999">
        <ele>2421.6</ele>
        <time>2012-02-18T13:40:11Z</time>
      </trkpt>
      <trkpt lat="45.62833" lon="6.6501">
        <ele>2420.3</ele>
        <time>2012-02-18T13:40:13Z</time>
      </trkpt>
      <trkpt lat="45.62841" lon="6.65013">
        <ele>2418.3</ele>
        <time>2012-02-18T13:40:15Z</time>
      </trkpt>
      <trkpt lat="45.62849" lon="6.65016">
        <ele>2415.3</ele>
        <time>2012-02-18T13:40:26Z</time>
      </trkpt>
      <trkpt lat="45.62852" lon="6.65026">
        <ele>2414.7</ele>
        <time>2012-02-18T13:40:36Z</time>
      </trkpt>
      <trkpt lat="45.62857" lon="6.65034">
        <ele>2414.1</ele>
        <time>2012-02-18T13:40:41Z</time>
      </trkpt>
      <trkpt lat="45.62855" lon="6.65043">
        <ele>2413.3</ele>
        <time>2012-02-18T13:40:43Z</time>
      </trkpt>
      <trkpt lat="45.62849" lon="6.6505">
        <ele>2411.2</ele>
        <time>2012-02-18T13:40:46Z</time>
      </trkpt>
      <trkpt lat="45.62855" lon="6.65058">
        <ele>2408.6</ele>
        <time>2012-02-18T13:40:50Z</time>
      </trkpt>
      <trkpt lat="45.62862" lon="6.65063">
        <ele>2406.1</ele>
        <time>2012-02-18T13:40:59Z</time>
      </trkpt>
      <trkpt lat="45.62864" lon="6.65066">
        <ele>2406</ele>
        <time>2012-02-18T13:41:00Z</time>
      </trkpt>
      <trkpt lat="45.62879" lon="6.65063">
        <ele>2400.7</ele>
        <time>2012-02-18T13:41:18Z</time>
      </trkpt>
      <trkpt lat="45.62888" lon="6.65066">
        <ele>2398.9</ele>
        <time>2012-02-18T13:41:23Z</time>
      </trkpt>
      <trkpt lat="45.62895" lon="6.65067">
        <ele>2397</ele>
        <time>2012-02-18T13:41:30Z</time>
      </trkpt>
      <trkpt lat="45.62898" lon="6.65079">
        <ele>2394</ele>
        <time>2012-02-18T13:41:35Z</time>
      </trkpt>
      <trkpt lat="45.62898" lon="6.65091">
        <ele>2387.1</ele>
        <time>2012-02-18T13:41:46Z</time>
      </trkpt>
      <trkpt lat="45.62897" lon="6.65103">
        <ele>2385</ele>
        <time>2012-02-18T13:41:51Z</time>
      </trkpt>
      <trkpt lat="45.62892" lon="6.65113">
        <ele>2382.1</ele>
        <time>2012-02-18T13:41:57Z</time>
      </trkpt>
      <trkpt lat="45.62885" lon="6.65121">
        <ele>2379.7</ele>
        <time>2012-02-18T13:42:02Z</time>
      </trkpt>
      <trkpt lat="45.62884" lon="6.65122">
        <ele>2379.4</ele>
        <time>2012-02-18T13:42:03Z</time>
      </trkpt>
      <trkpt lat="45.62874" lon="6.65139">
        <ele>2377.1</ele>
        <time>2012-02-18T13:42:17Z</time>
      </trkpt>
      <trkpt lat="45.6287" lon="6.6515">
        <ele>2374.6</ele>
        <time>2012-02-18T13:42:39Z</time>
      </trkpt>
      <trkpt lat="45.62874" lon="6.65159">
        <ele>2372.5</ele>
        <time>2012-02-18T13:42:48Z</time>
      </trkpt>
      <trkpt lat="45.62878" lon="6.65165">
        <ele>2371.3</ele>
        <time>2012-02-18T13:42:50Z</time>
      </trkpt>
      <trkpt lat="45.62882" lon="6.65167">
        <ele>2370</ele>
        <time>2012-02-18T13:42:51Z</time>
      </trkpt>
      <trkpt lat="45.6289" lon="6.65172">
        <ele>2367.2</ele>
        <time>2012-02-18T13:42:53Z</time>
      </trkpt>
      <trkpt lat="45.62895" lon="6.65179">
        <ele>2363.5</ele>
        <time>2012-02-18T13:42:55Z</time>
      </trkpt>
      <trkpt lat="45.629" lon="6.65189">
        <ele>2360.6</ele>
        <time>2012-02-18T13:42:57Z</time>
      </trkpt>
      <trkpt lat="45.62902" lon="6.65198">
        <ele>2358.4</ele>
        <time>2012-02-18T13:42:58Z</time>
      </trkpt>
      <trkpt lat="45.62899" lon="6.65208">
        <ele>2355</ele>
        <time>2012-02-18T13:43:00Z</time>
      </trkpt>
      <trkpt lat="45.62905" lon="6.65217">
        <ele>2347.5</ele>
        <time>2012-02-18T13:43:19Z</time>
      </trkpt>
      <trkpt lat="45.62906" lon="6.65217">
        <ele>2347.5</ele>
        <time>2012-02-18T13:43:20Z</time>
      </trkpt>
      <trkpt lat="45.6292" lon="6.65212">
        <ele>2346.7</ele>
        <time>2012-02-18T13:43:59Z</time>
      </trkpt>
      <trkpt lat="45.62925" lon="6.65203">
        <ele>2345.1</ele>
        <time>2012-02-18T13:44:10Z</time>
      </trkpt>
      <trkpt lat="45.62932" lon="6.65194">
        <ele>2341.8</ele>
        <time>2012-02-18T13:44:23Z</time>
      </trkpt>
      <trkpt lat="45.62933" lon="6.65195">
        <ele>2341.3</ele>
        <time>2012-02-18T13:44:24Z</time>
      </trkpt>
      <trkpt lat="45.62942" lon="6.65211">
        <ele>2337.5</ele>
        <time>2012-02-18T13:44:30Z</time>
      </trkpt>
      <trkpt lat="45.62947" lon="6.65221">
        <ele>2334.2</ele>
        <time>2012-02-18T13:44:33Z</time>
      </trkpt>
      <trkpt lat="45.62953" lon="6.65228">
        <ele>2330.8</ele>
        <time>2012-02-18T13:44:36Z</time>
      </trkpt>
      <trkpt lat="45.62957" lon="6.65237">
        <ele>2328.6</ele>
        <time>2012-02-18T13:44:39Z</time>
      </trkpt>
      <trkpt lat="45.62959" lon="6.65247">
        <ele>2327.2</ele>
        <time>2012-02-18T13:44:41Z</time>
      </trkpt>
      <trkpt lat="45.62963" lon="6.65258">
        <ele>2324.5</ele>
        <time>2012-02-18T13:44:44Z</time>
      </trkpt>
      <trkpt lat="45.6297" lon="6.65265">
        <ele>2321.7</ele>
        <time>2012-02-18T13:44:48Z</time>
      </trkpt>
      <trkpt lat="45.62978" lon="6.65264">
        <ele>2320.4</ele>
        <time>2012-02-18T13:44:50Z</time>
      </trkpt>
      <trkpt lat="45.62986" lon="6.65264">
        <ele>2318.9</ele>
        <time>2012-02-18T13:44:52Z</time>
      </trkpt>
      <trkpt lat="45.62993" lon="6.65265">
        <ele>2318</ele>
        <time>2012-02-18T13:44:54Z</time>
      </trkpt>
      <trkpt lat="45.62999" lon="6.65271">
        <ele>2317</ele>
        <time>2012-02-18T13:44:57Z</time>
      </trkpt>
      <trkpt lat="45.63005" lon="6.65281">
        <ele>2316.3</ele>
        <time>2012-02-18T13:45:00Z</time>
      </trkpt>
      <trkpt lat="45.63009" lon="6.65292">
        <ele>2313.9</ele>
        <time>2012-02-18T13:45:03Z</time>
      </trkpt>
      <trkpt lat="45.63015" lon="6.65301">
        <ele>2309.4</ele>
        <time>2012-02-18T13:45:59Z</time>
      </trkpt>
      <trkpt lat="45.63015" lon="6.65302">
        <ele>2308.8</ele>
        <time>2012-02-18T13:46:00Z</time>
      </trkpt>
      <trkpt lat="45.6302" lon="6.65326">
        <ele>2304.6</ele>
        <time>2012-02-18T13:46:12Z</time>
      </trkpt>
      <trkpt lat="45.63025" lon="6.65334">
        <ele>2302.7</ele>
        <time>2012-02-18T13:46:16Z</time>
      </trkpt>
      <trkpt lat="45.6303" lon="6.65344">
        <ele>2299.1</ele>
        <time>2012-02-18T13:46:23Z</time>
      </trkpt>
      <trkpt lat="45.63033" lon="6.65356">
        <ele>2297.4</ele>
        <time>2012-02-18T13:46:26Z</time>
      </trkpt>
      <trkpt lat="45.63041" lon="6.6536">
        <ele>2292.7</ele>
        <time>2012-02-18T13:46:44Z</time>
      </trkpt>
      <trkpt lat="45.6304" lon="6.65371">
        <ele>2291.7</ele>
        <time>2012-02-18T13:46:50Z</time>
      </trkpt>
      <trkpt lat="45.63041" lon="6.65382">
        <ele>2290.6</ele>
        <time>2012-02-18T13:46:54Z</time>
      </trkpt>
      <trkpt lat="45.6304" lon="6.65394">
        <ele>2288.1</ele>
        <time>2012-02-18T13:47:00Z</time>
      </trkpt>
      <trkpt lat="45.63042" lon="6.65406">
        <ele>2286.7</ele>
        <time>2012-02-18T13:47:04Z</time>
      </trkpt>
      <trkpt lat="45.63043" lon="6.65408">
        <ele>2286.7</ele>
        <time>2012-02-18T13:47:05Z</time>
      </trkpt>
      <trkpt lat="45.63055" lon="6.65415">
        <ele>2272.2</ele>
        <time>2012-02-18T13:48:22Z</time>
      </trkpt>
      <trkpt lat="45.63056" lon="6.65413">
        <ele>2271.5</ele>
        <time>2012-02-18T13:48:23Z</time>
      </trkpt>
      <trkpt lat="45.63068" lon="6.65406">
        <ele>2265.2</ele>
        <time>2012-02-18T13:48:31Z</time>
      </trkpt>
      <trkpt lat="45.63074" lon="6.65402">
        <ele>2260.5</ele>
        <time>2012-02-18T13:48:38Z</time>
      </trkpt>
      <trkpt lat="45.63082" lon="6.65398">
        <ele>2258</ele>
        <time>2012-02-18T13:48:41Z</time>
      </trkpt>
      <trkpt lat="45.63091" lon="6.65399">
        <ele>2254.6</ele>
        <time>2012-02-18T13:48:44Z</time>
      </trkpt>
      <trkpt lat="45.63095" lon="6.65406">
        <ele>2251.9</ele>
        <time>2012-02-18T13:48:47Z</time>
      </trkpt>
      <trkpt lat="45.631" lon="6.65415">
        <ele>2250.2</ele>
        <time>2012-02-18T13:48:49Z</time>
      </trkpt>
      <trkpt lat="45.63106" lon="6.65422">
        <ele>2248.3</ele>
        <time>2012-02-18T13:48:51Z</time>
      </trkpt>
      <trkpt lat="45.63109" lon="6.65427">
        <ele>2247.4</ele>
        <time>2012-02-18T13:48:52Z</time>
      </trkpt>
      <trkpt lat="45.63113" lon="6.65433">
        <ele>2246.8</ele>
        <time>2012-02-18T13:48:53Z</time>
      </trkpt>
      <trkpt lat="45.63118" lon="6.65438">
        <ele>2245.4</ele>
        <time>2012-02-18T13:48:54Z</time>
      </trkpt>
      <trkpt lat="45.63123" lon="6.65441">
        <ele>2244.3</ele>
        <time>2012-02-18T13:48:55Z</time>
      </trkpt>
      <trkpt lat="45.63127" lon="6.65449">
        <ele>2242.6</ele>
        <time>2012-02-18T13:48:56Z</time>
      </trkpt>
      <trkpt lat="45.63131" lon="6.65456">
        <ele>2241.3</ele>
        <time>2012-02-18T13:48:57Z</time>
      </trkpt>
      <trkpt lat="45.63136" lon="6.65464">
        <ele>2239.3</ele>
        <time>2012-02-18T13:48:58Z</time>
      </trkpt>
      <trkpt lat="45.63141" lon="6.65472">
        <ele>2237.8</ele>
        <time>2012-02-18T13:48:59Z</time>
      </trkpt>
      <trkpt lat="45.63146" lon="6.65481">
        <ele>2236.7</ele>
        <time>2012-02-18T13:49:00Z</time>
      </trkpt>
      <trkpt lat="45.63151" lon="6.65489">
        <ele>2235.1</ele>
        <time>2012-02-18T13:49:01Z</time>
      </trkpt>
      <trkpt lat="45.63155" lon="6.65499">
        <ele>2233.9</ele>
        <time>2012-02-18T13:49:02Z</time>
      </trkpt>
      <trkpt lat="45.63159" lon="6.65507">
        <ele>2232.3</ele>
        <time>2012-02-18T13:49:03Z</time>
      </trkpt>
      <trkpt lat="45.63163" lon="6.65516">
        <ele>2231</ele>
        <time>2012-02-18T13:49:04Z</time>
      </trkpt>
      <trkpt lat="45.63168" lon="6.65526">
        <ele>2229.2</ele>
        <time>2012-02-18T13:49:06Z</time>
      </trkpt>
      <trkpt lat="45.63173" lon="6.65537">
        <ele>2227</ele>
        <time>2012-02-18T13:49:31Z</time>
      </trkpt>
      <trkpt lat="45.63173" lon="6.65538">
        <ele>2226.8</ele>
        <time>2012-02-18T13:49:32Z</time>
      </trkpt>
      <trkpt lat="45.63182" lon="6.6555">
        <ele>2226.4</ele>
        <time>2012-02-18T13:51:06Z</time>
      </trkpt>
      <trkpt lat="45.63184" lon="6.65557">
        <ele>2225.8</ele>
        <time>2012-02-18T13:51:07Z</time>
      </trkpt>
      <trkpt lat="45.63185" lon="6.65563">
        <ele>2225.3</ele>
        <time>2012-02-18T13:51:08Z</time>
      </trkpt>
      <trkpt lat="45.63186" lon="6.65569">
        <ele>2224.6</ele>
        <time>2012-02-18T13:51:09Z</time>
      </trkpt>
      <trkpt lat="45.63187" lon="6.65576">
        <ele>2224.1</ele>
        <time>2012-02-18T13:51:10Z</time>
      </trkpt>
      <trkpt lat="45.63188" lon="6.65582">
        <ele>2222.8</ele>
        <time>2012-02-18T13:51:11Z</time>
      </trkpt>
      <trkpt lat="45.6319" lon="6.65589">
        <ele>2221.8</ele>
        <time>2012-02-18T13:51:12Z</time>
      </trkpt>
      <trkpt lat="45.63195" lon="6.65598">
        <ele>2220.2</ele>
        <time>2012-02-18T13:51:14Z</time>
      </trkpt>
      <trkpt lat="45.63197" lon="6.65609">
        <ele>2218.3</ele>
        <time>2012-02-18T13:51:18Z</time>
      </trkpt>
      <trkpt lat="45.63191" lon="6.65614">
        <ele>2217.6</ele>
        <time>2012-02-18T13:51:20Z</time>
      </trkpt>
      <trkpt lat="45.63182" lon="6.65619">
        <ele>2215.4</ele>
        <time>2012-02-18T13:51:22Z</time>
      </trkpt>
      <trkpt lat="45.63176" lon="6.65627">
        <ele>2213.8</ele>
        <time>2012-02-18T13:51:24Z</time>
      </trkpt>
      <trkpt lat="45.63172" lon="6.65637">
        <ele>2213.1</ele>
        <time>2012-02-18T13:51:26Z</time>
      </trkpt>
      <trkpt lat="45.63167" lon="6.65647">
        <ele>2212.2</ele>
        <time>2012-02-18T13:51:29Z</time>
      </trkpt>
      <trkpt lat="45.63165" lon="6.65659">
        <ele>2210.8</ele>
        <time>2012-02-18T13:51:35Z</time>
      </trkpt>
      <trkpt lat="45.63162" lon="6.65672">
        <ele>2208.3</ele>
        <time>2012-02-18T13:51:41Z</time>
      </trkpt>
      <trkpt lat="45.63159" lon="6.65682">
        <ele>2205.6</ele>
        <time>2012-02-18T13:52:06Z</time>
      </trkpt>
      <trkpt lat="45.63156" lon="6.65695">
        <ele>2203.7</ele>
        <time>2012-02-18T13:52:09Z</time>
      </trkpt>
      <trkpt lat="45.63155" lon="6.65699">
        <ele>2203.1</ele>
        <time>2012-02-18T13:52:10Z</time>
      </trkpt>
      <trkpt lat="45.63155" lon="6.65717">
        <ele>2199.9</ele>
        <time>2012-02-18T13:52:14Z</time>
      </trkpt>
      <trkpt lat="45.63156" lon="6.65728">
        <ele>2197.2</ele>
        <time>2012-02-18T13:52:16Z</time>
      </trkpt>
      <trkpt lat="45.63162" lon="6.65721">
        <ele>2187.8</ele>
        <time>2012-02-18T13:52:55Z</time>
      </trkpt>
      <trkpt lat="45.6317" lon="6.65725">
        <ele>2185</ele>
        <time>2012-02-18T13:53:01Z</time>
      </trkpt>
      <trkpt lat="45.63178" lon="6.65724">
        <ele>2183</ele>
        <time>2012-02-18T13:53:04Z</time>
      </trkpt>
      <trkpt lat="45.63183" lon="6.65726">
        <ele>2181.5</ele>
        <time>2012-02-18T13:53:05Z</time>
      </trkpt>
      <trkpt lat="45.63188" lon="6.65727">
        <ele>2180.4</ele>
        <time>2012-02-18T13:53:06Z</time>
      </trkpt>
      <trkpt lat="45.63193" lon="6.6573">
        <ele>2179.6</ele>
        <time>2012-02-18T13:53:07Z</time>
      </trkpt>
      <trkpt lat="45.63198" lon="6.65733">
        <ele>2178</ele>
        <time>2012-02-18T13:53:08Z</time>
      </trkpt>
      <trkpt lat="45.63204" lon="6.65736">
        <ele>2176.8</ele>
        <time>2012-02-18T13:53:09Z</time>
      </trkpt>
      <trkpt lat="45.63209" lon="6.65738">
        <ele>2174.9</ele>
        <time>2012-02-18T13:53:10Z</time>
      </trkpt>
      <trkpt lat="45.63214" lon="6.6574">
        <ele>2173.4</ele>
        <time>2012-02-18T13:53:11Z</time>
      </trkpt>
      <trkpt lat="45.63218" lon="6.65743">
        <ele>2171.9</ele>
        <time>2012-02-18T13:53:12Z</time>
      </trkpt>
      <trkpt lat="45.63223" lon="6.65747">
        <ele>2170.8</ele>
        <time>2012-02-18T13:53:13Z</time>
      </trkpt>
      <trkpt lat="45.63228" lon="6.65751">
        <ele>2170</ele>
        <time>2012-02-18T13:53:14Z</time>
      </trkpt>
      <trkpt lat="45.63233" lon="6.65756">
        <ele>2168.2</ele>
        <time>2012-02-18T13:53:15Z</time>
      </trkpt>
      <trkpt lat="45.63238" lon="6.65761">
        <ele>2167</ele>
        <time>2012-02-18T13:53:16Z</time>
      </trkpt>
      <trkpt lat="45.63243" lon="6.65766">
        <ele>2165.1</ele>
        <time>2012-02-18T13:53:17Z</time>
      </trkpt>
      <trkpt lat="45.63248" lon="6.65771">
        <ele>2163.7</ele>
        <time>2012-02-18T13:53:18Z</time>
      </trkpt>
      <trkpt lat="45.63252" lon="6.65776">
        <ele>2161.4</ele>
        <time>2012-02-18T13:53:19Z</time>
      </trkpt>
      <trkpt lat="45.63257" lon="6.65781">
        <ele>2159.7</ele>
        <time>2012-02-18T13:53:20Z</time>
      </trkpt>
      <trkpt lat="45.63261" lon="6.65786">
        <ele>2158.4</ele>
        <time>2012-02-18T13:53:21Z</time>
      </trkpt>
      <trkpt lat="45.63265" lon="6.65791">
        <ele>2156.5</ele>
        <time>2012-02-18T13:53:22Z</time>
      </trkpt>
      <trkpt lat="45.63269" lon="6.65797">
        <ele>2155.1</ele>
        <time>2012-02-18T13:53:23Z</time>
      </trkpt>
      <trkpt lat="45.63273" lon="6.65802">
        <ele>2153</ele>
        <time>2012-02-18T13:53:24Z</time>
      </trkpt>
      <trkpt lat="45.63278" lon="6.65807">
        <ele>2151.4</ele>
        <time>2012-02-18T13:53:25Z</time>
      </trkpt>
      <trkpt lat="45.63282" lon="6.65814">
        <ele>2150.2</ele>
        <time>2012-02-18T13:53:26Z</time>
      </trkpt>
      <trkpt lat="45.63286" lon="6.65819">
        <ele>2148.9</ele>
        <time>2012-02-18T13:53:27Z</time>
      </trkpt>
      <trkpt lat="45.63291" lon="6.65826">
        <ele>2147.9</ele>
        <time>2012-02-18T13:53:28Z</time>
      </trkpt>
      <trkpt lat="45.63294" lon="6.65833">
        <ele>2146.2</ele>
        <time>2012-02-18T13:53:29Z</time>
      </trkpt>
      <trkpt lat="45.63297" lon="6.6584">
        <ele>2144.9</ele>
        <time>2012-02-18T13:53:30Z</time>
      </trkpt>
      <trkpt lat="45.63299" lon="6.65847">
        <ele>2143.1</ele>
        <time>2012-02-18T13:53:31Z</time>
      </trkpt>
      <trkpt lat="45.63302" lon="6.65859">
        <ele>2140.8</ele>
        <time>2012-02-18T13:53:33Z</time>
      </trkpt>
      <trkpt lat="45.63299" lon="6.65871">
        <ele>2135.9</ele>
        <time>2012-02-18T13:53:45Z</time>
      </trkpt>
      <trkpt lat="45.63304" lon="6.65881">
        <ele>2135.3</ele>
        <time>2012-02-18T13:58:28Z</time>
      </trkpt>
      <trkpt lat="45.63306" lon="6.65884">
        <ele>2135.3</ele>
        <time>2012-02-18T13:58:29Z</time>
      </trkpt>
      <trkpt lat="45.63314" lon="6.65895">
        <ele>2134</ele>
        <time>2012-02-18T13:58:32Z</time>
      </trkpt>
      <trkpt lat="45.63318" lon="6.65897">
        <ele>2133.4</ele>
        <time>2012-02-18T13:58:33Z</time>
      </trkpt>
      <trkpt lat="45.63325" lon="6.65904">
        <ele>2132</ele>
        <time>2012-02-18T13:58:35Z</time>
      </trkpt>
      <trkpt lat="45.6333" lon="6.65914">
        <ele>2129.5</ele>
        <time>2012-02-18T13:58:39Z</time>
      </trkpt>
      <trkpt lat="45.63328" lon="6.65924">
        <ele>2128.5</ele>
        <time>2012-02-18T13:58:41Z</time>
      </trkpt>
      <trkpt lat="45.63327" lon="6.6593">
        <ele>2127.7</ele>
        <time>2012-02-18T13:58:42Z</time>
      </trkpt>
      <trkpt lat="45.63325" lon="6.65937">
        <ele>2127.1</ele>
        <time>2012-02-18T13:58:43Z</time>
      </trkpt>
      <trkpt lat="45.63323" lon="6.65943">
        <ele>2126.6</ele>
        <time>2012-02-18T13:58:44Z</time>
      </trkpt>
      <trkpt lat="45.63319" lon="6.65953">
        <ele>2124.5</ele>
        <time>2012-02-18T13:58:46Z</time>
      </trkpt>
      <trkpt lat="45.63319" lon="6.65961">
        <ele>2123.1</ele>
        <time>2012-02-18T13:58:49Z</time>
      </trkpt>
      <trkpt lat="45.63322" lon="6.65971">
        <ele>2122.8</ele>
        <time>2012-02-18T13:58:51Z</time>
      </trkpt>
      <trkpt lat="45.63322" lon="6.65983">
        <ele>2121.3</ele>
        <time>2012-02-18T13:58:53Z</time>
      </trkpt>
      <trkpt lat="45.63322" lon="6.65994">
        <ele>2119.4</ele>
        <time>2012-02-18T13:58:55Z</time>
      </trkpt>
      <trkpt lat="45.63323" lon="6.66005">
        <ele>2118.1</ele>
        <time>2012-02-18T13:58:57Z</time>
      </trkpt>
      <trkpt lat="45.63322" lon="6.66016">
        <ele>2116.6</ele>
        <time>2012-02-18T13:58:59Z</time>
      </trkpt>
      <trkpt lat="45.63321" lon="6.66027">
        <ele>2114.6</ele>
        <time>2012-02-18T13:59:01Z</time>
      </trkpt>
      <trkpt lat="45.63321" lon="6.66033">
        <ele>2113.7</ele>
        <time>2012-02-18T13:59:02Z</time>
      </trkpt>
      <trkpt lat="45.63322" lon="6.6604">
        <ele>2113.1</ele>
        <time>2012-02-18T13:59:03Z</time>
      </trkpt>
      <trkpt lat="45.63322" lon="6.66049">
        <ele>2112.1</ele>
        <time>2012-02-18T13:59:04Z</time>
      </trkpt>
      <trkpt lat="45.63323" lon="6.66058">
        <ele>2111.4</ele>
        <time>2012-02-18T13:59:05Z</time>
      </trkpt>
      <trkpt lat="45.63324" lon="6.66069">
        <ele>2109.2</ele>
        <time>2012-02-18T13:59:06Z</time>
      </trkpt>
      <trkpt lat="45.63326" lon="6.6608">
        <ele>2107.6</ele>
        <time>2012-02-18T13:59:07Z</time>
      </trkpt>
      <trkpt lat="45.63328" lon="6.6609">
        <ele>2105.7</ele>
        <time>2012-02-18T13:59:08Z</time>
      </trkpt>
      <trkpt lat="45.6333" lon="6.661">
        <ele>2104.3</ele>
        <time>2012-02-18T13:59:09Z</time>
      </trkpt>
      <trkpt lat="45.63331" lon="6.66109">
        <ele>2103.2</ele>
        <time>2012-02-18T13:59:10Z</time>
      </trkpt>
      <trkpt lat="45.63331" lon="6.66118">
        <ele>2101.5</ele>
        <time>2012-02-18T13:59:11Z</time>
      </trkpt>
      <trkpt lat="45.63332" lon="6.66125">
        <ele>2100.2</ele>
        <time>2012-02-18T13:59:12Z</time>
      </trkpt>
      <trkpt lat="45.63333" lon="6.66133">
        <ele>2098.9</ele>
        <time>2012-02-18T13:59:13Z</time>
      </trkpt>
      <trkpt lat="45.63333" lon="6.66141">
        <ele>2097.9</ele>
        <time>2012-02-18T13:59:14Z</time>
      </trkpt>
      <trkpt lat="45.63334" lon="6.66149">
        <ele>2096.4</ele>
        <time>2012-02-18T13:59:15Z</time>
      </trkpt>
      <trkpt lat="45.63335" lon="6.66158">
        <ele>2095.3</ele>
        <time>2012-02-18T13:59:16Z</time>
      </trkpt>
      <trkpt lat="45.63334" lon="6.66167">
        <ele>2094.4</ele>
        <time>2012-02-18T13:59:17Z</time>
      </trkpt>
      <trkpt lat="45.63333" lon="6.66175">
        <ele>2093.5</ele>
        <time>2012-02-18T13:59:18Z</time>
      </trkpt>
      <trkpt lat="45.63333" lon="6.66183">
        <ele>2092.7</ele>
        <time>2012-02-18T13:59:19Z</time>
      </trkpt>
      <trkpt lat="45.63332" lon="6.6619">
        <ele>2092</ele>
        <time>2012-02-18T13:59:20Z</time>
      </trkpt>
      <trkpt lat="45.63329" lon="6.66201">
        <ele>2090.9</ele>
        <time>2012-02-18T13:59:22Z</time>
      </trkpt>
      <trkpt lat="45.63325" lon="6.66211">
        <ele>2089.9</ele>
        <time>2012-02-18T13:59:25Z</time>
      </trkpt>
      <trkpt lat="45.63323" lon="6.66222">
        <ele>2089</ele>
        <time>2012-02-18T13:59:28Z</time>
      </trkpt>
      <trkpt lat="45.6332" lon="6.66231">
        <ele>2088.6</ele>
        <time>2012-02-18T13:59:31Z</time>
      </trkpt>
      <trkpt lat="45.63318" lon="6.66235">
        <ele>2088.4</ele>
        <time>2012-02-18T13:59:32Z</time>
      </trkpt>
      <trkpt lat="45.63313" lon="6.66253">
        <ele>2086.9</ele>
        <time>2012-02-18T13:59:37Z</time>
      </trkpt>
      <trkpt lat="45.63309" lon="6.66265">
        <ele>2086.4</ele>
        <time>2012-02-18T13:59:40Z</time>
      </trkpt>
      <trkpt lat="45.63303" lon="6.66274">
        <ele>2084.6</ele>
        <time>2012-02-18T13:59:46Z</time>
      </trkpt>
      <trkpt lat="45.63298" lon="6.66284">
        <ele>2084</ele>
        <time>2012-02-18T13:59:54Z</time>
      </trkpt>
      <trkpt lat="45.63293" lon="6.66295">
        <ele>2082.4</ele>
        <time>2012-02-18T14:00:02Z</time>
      </trkpt>
      <trkpt lat="45.63285" lon="6.66299">
        <ele>2083.7</ele>
        <time>2012-02-18T14:00:16Z</time>
      </trkpt>
      <trkpt lat="45.63277" lon="6.66305">
        <ele>2084</ele>
        <time>2012-02-18T14:00:20Z</time>
      </trkpt>
      <trkpt lat="45.63272" lon="6.66312">
        <ele>2083.7</ele>
        <time>2012-02-18T14:00:23Z</time>
      </trkpt>
      <trkpt lat="45.63268" lon="6.66319">
        <ele>2082.9</ele>
        <time>2012-02-18T14:00:25Z</time>
      </trkpt>
      <trkpt lat="45.63266" lon="6.66329">
        <ele>2082.2</ele>
        <time>2012-02-18T14:00:27Z</time>
      </trkpt>
      <trkpt lat="45.63265" lon="6.66338">
        <ele>2081.7</ele>
        <time>2012-02-18T14:00:29Z</time>
      </trkpt>
      <trkpt lat="45.6326" lon="6.66347">
        <ele>2080.9</ele>
        <time>2012-02-18T14:00:31Z</time>
      </trkpt>
      <trkpt lat="45.63258" lon="6.66353">
        <ele>2080.4</ele>
        <time>2012-02-18T14:00:32Z</time>
      </trkpt>
      <trkpt lat="45.63255" lon="6.6636">
        <ele>2080</ele>
        <time>2012-02-18T14:00:33Z</time>
      </trkpt>
      <trkpt lat="45.63253" lon="6.66367">
        <ele>2079.1</ele>
        <time>2012-02-18T14:00:34Z</time>
      </trkpt>
      <trkpt lat="45.6325" lon="6.66374">
        <ele>2078.5</ele>
        <time>2012-02-18T14:00:35Z</time>
      </trkpt>
      <trkpt lat="45.63247" lon="6.66381">
        <ele>2077.3</ele>
        <time>2012-02-18T14:00:36Z</time>
      </trkpt>
      <trkpt lat="45.63245" lon="6.66388">
        <ele>2076.4</ele>
        <time>2012-02-18T14:00:37Z</time>
      </trkpt>
      <trkpt lat="45.63242" lon="6.66396">
        <ele>2075.4</ele>
        <time>2012-02-18T14:00:38Z</time>
      </trkpt>
      <trkpt lat="45.63239" lon="6.66401">
        <ele>2074.6</ele>
        <time>2012-02-18T14:00:39Z</time>
      </trkpt>
      <trkpt lat="45.63233" lon="6.6641">
        <ele>2073.5</ele>
        <time>2012-02-18T14:00:41Z</time>
      </trkpt>
      <trkpt lat="45.63226" lon="6.66418">
        <ele>2070.1</ele>
        <time>2012-02-18T14:01:09Z</time>
      </trkpt>
      <trkpt lat="45.63228" lon="6.66428">
        <ele>2069.3</ele>
        <time>2012-02-18T14:01:29Z</time>
      </trkpt>
      <trkpt lat="45.63234" lon="6.66435">
        <ele>2068.7</ele>
        <time>2012-02-18T14:01:32Z</time>
      </trkpt>
      <trkpt lat="45.63237" lon="6.66443">
        <ele>2067.1</ele>
        <time>2012-02-18T14:01:39Z</time>
      </trkpt>
      <trkpt lat="45.63235" lon="6.66448">
        <ele>2066.6</ele>
        <time>2012-02-18T14:01:40Z</time>
      </trkpt>
      <trkpt lat="45.63232" lon="6.66461">
        <ele>2065.9</ele>
        <time>2012-02-18T14:01:42Z</time>
      </trkpt>
      <trkpt lat="45.63232" lon="6.6647">
        <ele>2065</ele>
        <time>2012-02-18T14:01:43Z</time>
      </trkpt>
      <trkpt lat="45.63234" lon="6.66477">
        <ele>2064.3</ele>
        <time>2012-02-18T14:01:44Z</time>
      </trkpt>
      <trkpt lat="45.63235" lon="6.66485">
        <ele>2062.5</ele>
        <time>2012-02-18T14:01:45Z</time>
      </trkpt>
      <trkpt lat="45.63236" lon="6.66492">
        <ele>2061.1</ele>
        <time>2012-02-18T14:01:46Z</time>
      </trkpt>
      <trkpt lat="45.63236" lon="6.665">
        <ele>2059.4</ele>
        <time>2012-02-18T14:01:47Z</time>
      </trkpt>
      <trkpt lat="45.63236" lon="6.66507">
        <ele>2058.2</ele>
        <time>2012-02-18T14:01:48Z</time>
      </trkpt>
      <trkpt lat="45.63236" lon="6.66514">
        <ele>2057.3</ele>
        <time>2012-02-18T14:01:49Z</time>
      </trkpt>
      <trkpt lat="45.63236" lon="6.66521">
        <ele>2056.5</ele>
        <time>2012-02-18T14:01:50Z</time>
      </trkpt>
      <trkpt lat="45.63237" lon="6.66528">
        <ele>2055.9</ele>
        <time>2012-02-18T14:01:51Z</time>
      </trkpt>
      <trkpt lat="45.63236" lon="6.66536">
        <ele>2054.5</ele>
        <time>2012-02-18T14:01:52Z</time>
      </trkpt>
      <trkpt lat="45.63235" lon="6.66544">
        <ele>2053.5</ele>
        <time>2012-02-18T14:01:53Z</time>
      </trkpt>
      <trkpt lat="45.63235" lon="6.66554">
        <ele>2052</ele>
        <time>2012-02-18T14:01:54Z</time>
      </trkpt>
      <trkpt lat="45.63234" lon="6.66564">
        <ele>2050.9</ele>
        <time>2012-02-18T14:01:55Z</time>
      </trkpt>
      <trkpt lat="45.63234" lon="6.66574">
        <ele>2050</ele>
        <time>2012-02-18T14:01:56Z</time>
      </trkpt>
      <trkpt lat="45.63233" lon="6.66584">
        <ele>2048</ele>
        <time>2012-02-18T14:01:57Z</time>
      </trkpt>
      <trkpt lat="45.63233" lon="6.66593">
        <ele>2046.4</ele>
        <time>2012-02-18T14:01:58Z</time>
      </trkpt>
      <trkpt lat="45.63232" lon="6.66603">
        <ele>2045.1</ele>
        <time>2012-02-18T14:01:59Z</time>
      </trkpt>
      <trkpt lat="45.63232" lon="6.66612">
        <ele>2044</ele>
        <time>2012-02-18T14:02:00Z</time>
      </trkpt>
      <trkpt lat="45.63232" lon="6.66621">
        <ele>2043.1</ele>
        <time>2012-02-18T14:02:01Z</time>
      </trkpt>
      <trkpt lat="45.63232" lon="6.66629">
        <ele>2042.4</ele>
        <time>2012-02-18T14:02:02Z</time>
      </trkpt>
      <trkpt lat="45.63232" lon="6.66636">
        <ele>2041.8</ele>
        <time>2012-02-18T14:02:03Z</time>
      </trkpt>
      <trkpt lat="45.63232" lon="6.66643">
        <ele>2041</ele>
        <time>2012-02-18T14:02:04Z</time>
      </trkpt>
      <trkpt lat="45.63232" lon="6.6665">
        <ele>2040.3</ele>
        <time>2012-02-18T14:02:05Z</time>
      </trkpt>
      <trkpt lat="45.63233" lon="6.66661">
        <ele>2038.9</ele>
        <time>2012-02-18T14:02:07Z</time>
      </trkpt>
      <trkpt lat="45.63226" lon="6.66668">
        <ele>2037.4</ele>
        <time>2012-02-18T14:03:19Z</time>
      </trkpt>
      <trkpt lat="45.63226" lon="6.66669">
        <ele>2037.8</ele>
        <time>2012-02-18T14:03:20Z</time>
      </trkpt>
      <trkpt lat="45.63226" lon="6.6669">
        <ele>2037</ele>
        <time>2012-02-18T14:03:43Z</time>
      </trkpt>
      <trkpt lat="45.63226" lon="6.66701">
        <ele>2036.5</ele>
        <time>2012-02-18T14:03:45Z</time>
      </trkpt>
      <trkpt lat="45.63226" lon="6.6671">
        <ele>2035.1</ele>
        <time>2012-02-18T14:03:46Z</time>
      </trkpt>
      <trkpt lat="45.63226" lon="6.66719">
        <ele>2034.1</ele>
        <time>2012-02-18T14:03:47Z</time>
      </trkpt>
      <trkpt lat="45.63226" lon="6.66728">
        <ele>2032.6</ele>
        <time>2012-02-18T14:03:48Z</time>
      </trkpt>
      <trkpt lat="45.63227" lon="6.66737">
        <ele>2031.5</ele>
        <time>2012-02-18T14:03:49Z</time>
      </trkpt>
      <trkpt lat="45.63227" lon="6.66744">
        <ele>2030.6</ele>
        <time>2012-02-18T14:03:50Z</time>
      </trkpt>
      <trkpt lat="45.63227" lon="6.66752">
        <ele>2030</ele>
        <time>2012-02-18T14:03:51Z</time>
      </trkpt>
      <trkpt lat="45.63227" lon="6.66759">
        <ele>2029.6</ele>
        <time>2012-02-18T14:03:52Z</time>
      </trkpt>
      <trkpt lat="45.63227" lon="6.66766">
        <ele>2029.1</ele>
        <time>2012-02-18T14:03:53Z</time>
      </trkpt>
      <trkpt lat="45.63226" lon="6.66773">
        <ele>2028.8</ele>
        <time>2012-02-18T14:03:54Z</time>
      </trkpt>
      <trkpt lat="45.63226" lon="6.6678">
        <ele>2028.2</ele>
        <time>2012-02-18T14:03:55Z</time>
      </trkpt>
      <trkpt lat="45.63225" lon="6.66787">
        <ele>2027.8</ele>
        <time>2012-02-18T14:03:56Z</time>
      </trkpt>
      <trkpt lat="45.63225" lon="6.66794">
        <ele>2027.5</ele>
        <time>2012-02-18T14:03:57Z</time>
      </trkpt>
      <trkpt lat="45.63225" lon="6.66807">
        <ele>2026.5</ele>
        <time>2012-02-18T14:03:59Z</time>
      </trkpt>
      <trkpt lat="45.63223" lon="6.66819">
        <ele>2025.6</ele>
        <time>2012-02-18T14:04:01Z</time>
      </trkpt>
      <trkpt lat="45.63222" lon="6.66826">
        <ele>2024.6</ele>
        <time>2012-02-18T14:04:02Z</time>
      </trkpt>
      <trkpt lat="45.63222" lon="6.66833">
        <ele>2023.9</ele>
        <time>2012-02-18T14:04:03Z</time>
      </trkpt>
      <trkpt lat="45.63221" lon="6.6684">
        <ele>2023.4</ele>
        <time>2012-02-18T14:04:04Z</time>
      </trkpt>
      <trkpt lat="45.6322" lon="6.66847">
        <ele>2022.6</ele>
        <time>2012-02-18T14:04:05Z</time>
      </trkpt>
      <trkpt lat="45.63219" lon="6.66853">
        <ele>2022</ele>
        <time>2012-02-18T14:04:06Z</time>
      </trkpt>
      <trkpt lat="45.63219" lon="6.6686">
        <ele>2021.3</ele>
        <time>2012-02-18T14:04:07Z</time>
      </trkpt>
      <trkpt lat="45.63219" lon="6.66867">
        <ele>2020.7</ele>
        <time>2012-02-18T14:04:08Z</time>
      </trkpt>
      <trkpt lat="45.6322" lon="6.66873">
        <ele>2020.3</ele>
        <time>2012-02-18T14:04:09Z</time>
      </trkpt>
      <trkpt lat="45.63221" lon="6.6688">
        <ele>2019.6</ele>
        <time>2012-02-18T14:04:10Z</time>
      </trkpt>
      <trkpt lat="45.63222" lon="6.66887">
        <ele>2019.1</ele>
        <time>2012-02-18T14:04:11Z</time>
      </trkpt>
      <trkpt lat="45.63222" lon="6.66895">
        <ele>2018.4</ele>
        <time>2012-02-18T14:04:12Z</time>
      </trkpt>
      <trkpt lat="45.63222" lon="6.66907">
        <ele>2017.2</ele>
        <time>2012-02-18T14:04:14Z</time>
      </trkpt>
      <trkpt lat="45.6323" lon="6.66903">
        <ele>2016.4</ele>
        <time>2012-02-18T14:08:08Z</time>
      </trkpt>
      <trkpt lat="45.63234" lon="6.66902">
        <ele>2016.1</ele>
        <time>2012-02-18T14:08:09Z</time>
      </trkpt>
      <trkpt lat="45.63237" lon="6.66921">
        <ele>2015.2</ele>
        <time>2012-02-18T14:08:15Z</time>
      </trkpt>
      <trkpt lat="45.63238" lon="6.66932">
        <ele>2012.1</ele>
        <time>2012-02-18T14:08:21Z</time>
      </trkpt>
      <trkpt lat="45.6323" lon="6.66936">
        <ele>2010.5</ele>
        <time>2012-02-18T14:08:24Z</time>
      </trkpt>
      <trkpt lat="45.63232" lon="6.66944">
        <ele>2008.2</ele>
        <time>2012-02-18T14:08:34Z</time>
      </trkpt>
      <trkpt lat="45.63239" lon="6.6695">
        <ele>2006.7</ele>
        <time>2012-02-18T14:08:36Z</time>
      </trkpt>
      <trkpt lat="45.63243" lon="6.66953">
        <ele>2006.2</ele>
        <time>2012-02-18T14:08:37Z</time>
      </trkpt>
      <trkpt lat="45.63247" lon="6.66956">
        <ele>2005.2</ele>
        <time>2012-02-18T14:08:38Z</time>
      </trkpt>
      <trkpt lat="45.63251" lon="6.66961">
        <ele>2004.4</ele>
        <time>2012-02-18T14:08:39Z</time>
      </trkpt>
      <trkpt lat="45.63255" lon="6.66966">
        <ele>2003.3</ele>
        <time>2012-02-18T14:08:40Z</time>
      </trkpt>
      <trkpt lat="45.63256" lon="6.66974">
        <ele>2002.5</ele>
        <time>2012-02-18T14:08:41Z</time>
      </trkpt>
      <trkpt lat="45.63257" lon="6.66983">
        <ele>2001</ele>
        <time>2012-02-18T14:08:42Z</time>
      </trkpt>
      <trkpt lat="45.63258" lon="6.66992">
        <ele>1999.8</ele>
        <time>2012-02-18T14:08:43Z</time>
      </trkpt>
      <trkpt lat="45.63259" lon="6.67002">
        <ele>1998.9</ele>
        <time>2012-02-18T14:08:44Z</time>
      </trkpt>
      <trkpt lat="45.6326" lon="6.67011">
        <ele>1997.3</ele>
        <time>2012-02-18T14:08:45Z</time>
      </trkpt>
      <trkpt lat="45.63261" lon="6.6702">
        <ele>1996.1</ele>
        <time>2012-02-18T14:08:46Z</time>
      </trkpt>
      <trkpt lat="45.63264" lon="6.67028">
        <ele>1994</ele>
        <time>2012-02-18T14:08:47Z</time>
      </trkpt>
      <trkpt lat="45.63266" lon="6.67037">
        <ele>1992.5</ele>
        <time>2012-02-18T14:08:48Z</time>
      </trkpt>
      <trkpt lat="45.63269" lon="6.67043">
        <ele>1991.3</ele>
        <time>2012-02-18T14:08:49Z</time>
      </trkpt>
      <trkpt lat="45.63272" lon="6.67052">
        <ele>1988.5</ele>
        <time>2012-02-18T14:08:51Z</time>
      </trkpt>
      <trkpt lat="45.6327" lon="6.67057">
        <ele>1986.8</ele>
        <time>2012-02-18T14:08:52Z</time>
      </trkpt>
      <trkpt lat="45.63262" lon="6.67064">
        <ele>1983.7</ele>
        <time>2012-02-18T14:08:54Z</time>
      </trkpt>
      <trkpt lat="45.63266" lon="6.67076">
        <ele>1978.5</ele>
        <time>2012-02-18T14:10:38Z</time>
      </trkpt>
      <trkpt lat="45.63267" lon="6.67076">
        <ele>1978.1</ele>
        <time>2012-02-18T14:10:39Z</time>
      </trkpt>
      <trkpt lat="45.63282" lon="6.67077">
        <ele>1975.9</ele>
        <time>2012-02-18T14:10:50Z</time>
      </trkpt>
      <trkpt lat="45.63291" lon="6.67077">
        <ele>1972.6</ele>
        <time>2012-02-18T14:11:00Z</time>
      </trkpt>
      <trkpt lat="45.63299" lon="6.6708">
        <ele>1970.2</ele>
        <time>2012-02-18T14:11:13Z</time>
      </trkpt>
      <trkpt lat="45.63303" lon="6.67089">
        <ele>1969.3</ele>
        <time>2012-02-18T14:11:40Z</time>
      </trkpt>
      <trkpt lat="45.63305" lon="6.6709">
        <ele>1969.2</ele>
        <time>2012-02-18T14:11:41Z</time>
      </trkpt>
      <trkpt lat="45.63319" lon="6.67092">
        <ele>1966.6</ele>
        <time>2012-02-18T14:11:50Z</time>
      </trkpt>
      <trkpt lat="45.63327" lon="6.67096">
        <ele>1965.2</ele>
        <time>2012-02-18T14:11:59Z</time>
      </trkpt>
      <trkpt lat="45.63327" lon="6.67108">
        <ele>1963.2</ele>
        <time>2012-02-18T14:12:18Z</time>
      </trkpt>
      <trkpt lat="45.63319" lon="6.6711">
        <ele>1961.2</ele>
        <time>2012-02-18T14:12:24Z</time>
      </trkpt>
      <trkpt lat="45.6332" lon="6.67122">
        <ele>1958.2</ele>
        <time>2012-02-18T14:12:36Z</time>
      </trkpt>
      <trkpt lat="45.63312" lon="6.67124">
        <ele>1955.7</ele>
        <time>2012-02-18T14:12:42Z</time>
      </trkpt>
      <trkpt lat="45.6331" lon="6.67124">
        <ele>1955.2</ele>
        <time>2012-02-18T14:12:43Z</time>
      </trkpt>
      <trkpt lat="45.63307" lon="6.67139">
        <ele>1949.4</ele>
        <time>2012-02-18T14:13:01Z</time>
      </trkpt>
      <trkpt lat="45.63302" lon="6.67143">
        <ele>1949.1</ele>
        <time>2012-02-18T14:13:10Z</time>
      </trkpt>
      <trkpt lat="45.63297" lon="6.67152">
        <ele>1947.5</ele>
        <time>2012-02-18T14:13:12Z</time>
      </trkpt>
      <trkpt lat="45.63291" lon="6.67161">
        <ele>1944.8</ele>
        <time>2012-02-18T14:13:18Z</time>
      </trkpt>
      <trkpt lat="45.63284" lon="6.67167">
        <ele>1944</ele>
        <time>2012-02-18T14:13:38Z</time>
      </trkpt>
      <trkpt lat="45.63277" lon="6.67174">
        <ele>1943.5</ele>
        <time>2012-02-18T14:13:43Z</time>
      </trkpt>
      <trkpt lat="45.6327" lon="6.67182">
        <ele>1941.2</ele>
        <time>2012-02-18T14:13:51Z</time>
      </trkpt>
      <trkpt lat="45.63269" lon="6.67182">
        <ele>1941</ele>
        <time>2012-02-18T14:13:52Z</time>
      </trkpt>
      <trkpt lat="45.63256" lon="6.67184">
        <ele>1937.7</ele>
        <time>2012-02-18T14:14:13Z</time>
      </trkpt>
      <trkpt lat="45.63249" lon="6.67184">
        <ele>1937.2</ele>
        <time>2012-02-18T14:14:15Z</time>
      </trkpt>
      <trkpt lat="45.6324" lon="6.67184">
        <ele>1935.6</ele>
        <time>2012-02-18T14:14:25Z</time>
      </trkpt>
      <trkpt lat="45.63247" lon="6.67189">
        <ele>1934.1</ele>
        <time>2012-02-18T14:14:33Z</time>
      </trkpt>
      <trkpt lat="45.63254" lon="6.67197">
        <ele>1932.4</ele>
        <time>2012-02-18T14:14:44Z</time>
      </trkpt>
      <trkpt lat="45.63262" lon="6.672">
        <ele>1932.9</ele>
        <time>2012-02-18T14:14:55Z</time>
      </trkpt>
      <trkpt lat="45.63263" lon="6.672">
        <ele>1933</ele>
        <time>2012-02-18T14:14:56Z</time>
      </trkpt>
      <trkpt lat="45.63273" lon="6.67211">
        <ele>1930.6</ele>
        <time>2012-02-18T14:15:32Z</time>
      </trkpt>
      <trkpt lat="45.63281" lon="6.67212">
        <ele>1927.5</ele>
        <time>2012-02-18T14:15:40Z</time>
      </trkpt>
      <trkpt lat="45.63278" lon="6.67224">
        <ele>1923.3</ele>
        <time>2012-02-18T14:15:47Z</time>
      </trkpt>
      <trkpt lat="45.63283" lon="6.6723">
        <ele>1919.1</ele>
        <time>2012-02-18T14:16:00Z</time>
      </trkpt>
      <trkpt lat="45.63282" lon="6.67235">
        <ele>1918.5</ele>
        <time>2012-02-18T14:16:01Z</time>
      </trkpt>
      <trkpt lat="45.63284" lon="6.67253">
        <ele>1911.9</ele>
        <time>2012-02-18T14:16:09Z</time>
      </trkpt>
      <trkpt lat="45.63287" lon="6.6726">
        <ele>1910.3</ele>
        <time>2012-02-18T14:16:11Z</time>
      </trkpt>
      <trkpt lat="45.63289" lon="6.67271">
        <ele>1908.5</ele>
        <time>2012-02-18T14:16:13Z</time>
      </trkpt>
      <trkpt lat="45.63289" lon="6.6728">
        <ele>1907.3</ele>
        <time>2012-02-18T14:16:15Z</time>
      </trkpt>
      <trkpt lat="45.63288" lon="6.67289">
        <ele>1906.1</ele>
        <time>2012-02-18T14:16:17Z</time>
      </trkpt>
      <trkpt lat="45.6328" lon="6.67293">
        <ele>1904.1</ele>
        <time>2012-02-18T14:16:20Z</time>
      </trkpt>
      <trkpt lat="45.63273" lon="6.67289">
        <ele>1902.2</ele>
        <time>2012-02-18T14:16:22Z</time>
      </trkpt>
      <trkpt lat="45.63266" lon="6.67284">
        <ele>1901</ele>
        <time>2012-02-18T14:16:24Z</time>
      </trkpt>
      <trkpt lat="45.63259" lon="6.67289">
        <ele>1898.8</ele>
        <time>2012-02-18T14:16:33Z</time>
      </trkpt>
      <trkpt lat="45.63255" lon="6.67295">
        <ele>1898.5</ele>
        <time>2012-02-18T14:16:35Z</time>
      </trkpt>
      <trkpt lat="45.63249" lon="6.673">
        <ele>1896.9</ele>
        <time>2012-02-18T14:16:37Z</time>
      </trkpt>
      <trkpt lat="45.6324" lon="6.67303">
        <ele>1894.6</ele>
        <time>2012-02-18T14:16:40Z</time>
      </trkpt>
      <trkpt lat="45.63233" lon="6.67296">
        <ele>1891.1</ele>
        <time>2012-02-18T14:17:16Z</time>
      </trkpt>
      <trkpt lat="45.63232" lon="6.67295">
        <ele>1891.4</ele>
        <time>2012-02-18T14:17:17Z</time>
      </trkpt>
      <trkpt lat="45.6322" lon="6.67295">
        <ele>1890.2</ele>
        <time>2012-02-18T14:17:45Z</time>
      </trkpt>
      <trkpt lat="45.63214" lon="6.67305">
        <ele>1887.7</ele>
        <time>2012-02-18T14:17:55Z</time>
      </trkpt>
      <trkpt lat="45.63206" lon="6.6731">
        <ele>1886.1</ele>
        <time>2012-02-18T14:18:06Z</time>
      </trkpt>
      <trkpt lat="45.63198" lon="6.6731">
        <ele>1884.5</ele>
        <time>2012-02-18T14:18:12Z</time>
      </trkpt>
      <trkpt lat="45.6319" lon="6.67313">
        <ele>1883.1</ele>
        <time>2012-02-18T14:18:18Z</time>
      </trkpt>
      <trkpt lat="45.63188" lon="6.67313">
        <ele>1882.6</ele>
        <time>2012-02-18T14:18:19Z</time>
      </trkpt>
      <trkpt lat="45.63173" lon="6.67313">
        <ele>1879.5</ele>
        <time>2012-02-18T14:18:43Z</time>
      </trkpt>
      <trkpt lat="45.63165" lon="6.67312">
        <ele>1878.7</ele>
        <time>2012-02-18T14:18:45Z</time>
      </trkpt>
      <trkpt lat="45.63157" lon="6.67312">
        <ele>1878.1</ele>
        <time>2012-02-18T14:18:47Z</time>
      </trkpt>
      <trkpt lat="45.63149" lon="6.67315">
        <ele>1876.4</ele>
        <time>2012-02-18T14:18:50Z</time>
      </trkpt>
      <trkpt lat="45.63143" lon="6.67323">
        <ele>1874.1</ele>
        <time>2012-02-18T14:19:02Z</time>
      </trkpt>
      <trkpt lat="45.63135" lon="6.67327">
        <ele>1873.5</ele>
        <time>2012-02-18T14:19:07Z</time>
      </trkpt>
      <trkpt lat="45.63129" lon="6.67329">
        <ele>1872.5</ele>
        <time>2012-02-18T14:19:09Z</time>
      </trkpt>
      <trkpt lat="45.63121" lon="6.67333">
        <ele>1870.7</ele>
        <time>2012-02-18T14:19:11Z</time>
      </trkpt>
      <trkpt lat="45.63116" lon="6.67341">
        <ele>1869.2</ele>
        <time>2012-02-18T14:19:13Z</time>
      </trkpt>
      <trkpt lat="45.63116" lon="6.67351">
        <ele>1868.1</ele>
        <time>2012-02-18T14:19:15Z</time>
      </trkpt>
      <trkpt lat="45.63117" lon="6.67362">
        <ele>1867.7</ele>
        <time>2012-02-18T14:19:18Z</time>
      </trkpt>
      <trkpt lat="45.63114" lon="6.67374">
        <ele>1866.2</ele>
        <time>2012-02-18T14:19:29Z</time>
      </trkpt>
      <trkpt lat="45.63114" lon="6.67376">
        <ele>1866</ele>
        <time>2012-02-18T14:19:30Z</time>
      </trkpt>
      <trkpt lat="45.63104" lon="6.67392">
        <ele>1865.5</ele>
        <time>2012-02-18T14:19:45Z</time>
      </trkpt>
      <trkpt lat="45.63099" lon="6.674">
        <ele>1865.3</ele>
        <time>2012-02-18T14:19:47Z</time>
      </trkpt>
      <trkpt lat="45.63094" lon="6.67408">
        <ele>1864.4</ele>
        <time>2012-02-18T14:19:49Z</time>
      </trkpt>
      <trkpt lat="45.63087" lon="6.67416">
        <ele>1862.8</ele>
        <time>2012-02-18T14:19:53Z</time>
      </trkpt>
      <trkpt lat="45.63082" lon="6.67424">
        <ele>1862.6</ele>
        <time>2012-02-18T14:19:59Z</time>
      </trkpt>
      <trkpt lat="45.63077" lon="6.67431">
        <ele>1861.6</ele>
        <time>2012-02-18T14:20:02Z</time>
      </trkpt>
      <trkpt lat="45.63074" lon="6.67438">
        <ele>1861.2</ele>
        <time>2012-02-18T14:20:04Z</time>
      </trkpt>
      <trkpt lat="45.6307" lon="6.67446">
        <ele>1860.8</ele>
        <time>2012-02-18T14:20:06Z</time>
      </trkpt>
      <trkpt lat="45.63064" lon="6.67455">
        <ele>1860.1</ele>
        <time>2012-02-18T14:20:09Z</time>
      </trkpt>
      <trkpt lat="45.63059" lon="6.67464">
        <ele>1859.3</ele>
        <time>2012-02-18T14:20:12Z</time>
      </trkpt>
      <trkpt lat="45.63054" lon="6.67471">
        <ele>1858.3</ele>
        <time>2012-02-18T14:20:14Z</time>
      </trkpt>
      <trkpt lat="45.63049" lon="6.67479">
        <ele>1857.4</ele>
        <time>2012-02-18T14:20:16Z</time>
      </trkpt>
      <trkpt lat="45.63043" lon="6.67484">
        <ele>1856.7</ele>
        <time>2012-02-18T14:20:18Z</time>
      </trkpt>
      <trkpt lat="45.63036" lon="6.67493">
        <ele>1855.2</ele>
        <time>2012-02-18T14:20:21Z</time>
      </trkpt>
      <trkpt lat="45.63031" lon="6.67498">
        <ele>1854.5</ele>
        <time>2012-02-18T14:20:23Z</time>
      </trkpt>
      <trkpt lat="45.63025" lon="6.67504">
        <ele>1853.7</ele>
        <time>2012-02-18T14:20:25Z</time>
      </trkpt>
      <trkpt lat="45.6302" lon="6.6751">
        <ele>1852.6</ele>
        <time>2012-02-18T14:20:27Z</time>
      </trkpt>
      <trkpt lat="45.63014" lon="6.67516">
        <ele>1851.6</ele>
        <time>2012-02-18T14:20:29Z</time>
      </trkpt>
      <trkpt lat="45.63007" lon="6.6752">
        <ele>1851.1</ele>
        <time>2012-02-18T14:20:31Z</time>
      </trkpt>
      <trkpt lat="45.63004" lon="6.67522">
        <ele>1850.5</ele>
        <time>2012-02-18T14:20:32Z</time>
      </trkpt>
      <trkpt lat="45.62993" lon="6.6753">
        <ele>1848.5</ele>
        <time>2012-02-18T14:20:35Z</time>
      </trkpt>
      <trkpt lat="45.62985" lon="6.67534">
        <ele>1847.2</ele>
        <time>2012-02-18T14:20:37Z</time>
      </trkpt>
      <trkpt lat="45.62977" lon="6.67538">
        <ele>1846.2</ele>
        <time>2012-02-18T14:20:39Z</time>
      </trkpt>
      <trkpt lat="45.6297" lon="6.67541">
        <ele>1845.7</ele>
        <time>2012-02-18T14:20:41Z</time>
      </trkpt>
      <trkpt lat="45.62964" lon="6.67544">
        <ele>1844.6</ele>
        <time>2012-02-18T14:20:43Z</time>
      </trkpt>
      <trkpt lat="45.62956" lon="6.67548">
        <ele>1843.1</ele>
        <time>2012-02-18T14:20:45Z</time>
      </trkpt>
      <trkpt lat="45.6295" lon="6.67552">
        <ele>1842</ele>
        <time>2012-02-18T14:20:47Z</time>
      </trkpt>
      <trkpt lat="45.62942" lon="6.67557">
        <ele>1841.4</ele>
        <time>2012-02-18T14:20:50Z</time>
      </trkpt>
      <trkpt lat="45.62937" lon="6.67549">
        <ele>1839.6</ele>
        <time>2012-02-18T14:20:54Z</time>
      </trkpt>
      <trkpt lat="45.62928" lon="6.67549">
        <ele>1837.9</ele>
        <time>2012-02-18T14:20:59Z</time>
      </trkpt>
      <trkpt lat="45.62922" lon="6.6755">
        <ele>1836.6</ele>
        <time>2012-02-18T14:21:01Z</time>
      </trkpt>
      <trkpt lat="45.62918" lon="6.67551">
        <ele>1835.8</ele>
        <time>2012-02-18T14:21:02Z</time>
      </trkpt>
      <trkpt lat="45.62913" lon="6.67553">
        <ele>1834.9</ele>
        <time>2012-02-18T14:21:03Z</time>
      </trkpt>
      <trkpt lat="45.62907" lon="6.67555">
        <ele>1834.2</ele>
        <time>2012-02-18T14:21:04Z</time>
      </trkpt>
      <trkpt lat="45.62901" lon="6.67557">
        <ele>1833.5</ele>
        <time>2012-02-18T14:21:05Z</time>
      </trkpt>
      <trkpt lat="45.62893" lon="6.67561">
        <ele>1832.5</ele>
        <time>2012-02-18T14:21:07Z</time>
      </trkpt>
      <trkpt lat="45.62886" lon="6.67563">
        <ele>1831.1</ele>
        <time>2012-02-18T14:21:09Z</time>
      </trkpt>
      <trkpt lat="45.62879" lon="6.67566">
        <ele>1830.2</ele>
        <time>2012-02-18T14:21:11Z</time>
      </trkpt>
      <trkpt lat="45.62872" lon="6.67569">
        <ele>1828.6</ele>
        <time>2012-02-18T14:21:13Z</time>
      </trkpt>
      <trkpt lat="45.62864" lon="6.67572">
        <ele>1828.3</ele>
        <time>2012-02-18T14:21:16Z</time>
      </trkpt>
      <trkpt lat="45.62855" lon="6.67569">
        <ele>1827</ele>
        <time>2012-02-18T14:21:29Z</time>
      </trkpt>
      <trkpt lat="45.62846" lon="6.67566">
        <ele>1826.6</ele>
        <time>2012-02-18T14:21:42Z</time>
      </trkpt>
      <trkpt lat="45.62845" lon="6.67566">
        <ele>1826.7</ele>
        <time>2012-02-18T14:21:43Z</time>
      </trkpt>
      <trkpt lat="45.62834" lon="6.67575">
        <ele>1824.5</ele>
        <time>2012-02-18T14:21:57Z</time>
      </trkpt>
      <trkpt lat="45.62827" lon="6.67581">
        <ele>1824.1</ele>
        <time>2012-02-18T14:21:59Z</time>
      </trkpt>
      <trkpt lat="45.6282" lon="6.67588">
        <ele>1823</ele>
        <time>2012-02-18T14:22:01Z</time>
      </trkpt>
      <trkpt lat="45.62814" lon="6.67593">
        <ele>1821.8</ele>
        <time>2012-02-18T14:22:03Z</time>
      </trkpt>
      <trkpt lat="45.62807" lon="6.67597">
        <ele>1821.2</ele>
        <time>2012-02-18T14:22:05Z</time>
      </trkpt>
      <trkpt lat="45.62799" lon="6.67602">
        <ele>1820.2</ele>
        <time>2012-02-18T14:22:07Z</time>
      </trkpt>
      <trkpt lat="45.62793" lon="6.67607">
        <ele>1818.7</ele>
        <time>2012-02-18T14:22:09Z</time>
      </trkpt>
      <trkpt lat="45.62788" lon="6.67612">
        <ele>1817.5</ele>
        <time>2012-02-18T14:22:11Z</time>
      </trkpt>
      <trkpt lat="45.62783" lon="6.67618">
        <ele>1816.5</ele>
        <time>2012-02-18T14:22:13Z</time>
      </trkpt>
      <trkpt lat="45.62776" lon="6.67622">
        <ele>1815.6</ele>
        <time>2012-02-18T14:22:15Z</time>
      </trkpt>
      <trkpt lat="45.62769" lon="6.67626">
        <ele>1814.6</ele>
        <time>2012-02-18T14:22:17Z</time>
      </trkpt>
      <trkpt lat="45.62764" lon="6.67629">
        <ele>1814.1</ele>
        <time>2012-02-18T14:22:18Z</time>
      </trkpt>
      <trkpt lat="45.62759" lon="6.67632">
        <ele>1813.2</ele>
        <time>2012-02-18T14:22:19Z</time>
      </trkpt>
      <trkpt lat="45.62755" lon="6.67635">
        <ele>1812.5</ele>
        <time>2012-02-18T14:22:20Z</time>
      </trkpt>
      <trkpt lat="45.62748" lon="6.6764">
        <ele>1811</ele>
        <time>2012-02-18T14:22:22Z</time>
      </trkpt>
      <trkpt lat="45.62742" lon="6.67644">
        <ele>1810.3</ele>
        <time>2012-02-18T14:22:24Z</time>
      </trkpt>
      <trkpt lat="45.62735" lon="6.6765">
        <ele>1809.4</ele>
        <time>2012-02-18T14:22:26Z</time>
      </trkpt>
      <trkpt lat="45.6273" lon="6.67655">
        <ele>1808.2</ele>
        <time>2012-02-18T14:22:28Z</time>
      </trkpt>
      <trkpt lat="45.62725" lon="6.6766">
        <ele>1807.3</ele>
        <time>2012-02-18T14:22:30Z</time>
      </trkpt>
      <trkpt lat="45.62719" lon="6.67664">
        <ele>1806.2</ele>
        <time>2012-02-18T14:22:32Z</time>
      </trkpt>
      <trkpt lat="45.62714" lon="6.67669">
        <ele>1805.2</ele>
        <time>2012-02-18T14:22:34Z</time>
      </trkpt>
      <trkpt lat="45.62706" lon="6.67675">
        <ele>1804.3</ele>
        <time>2012-02-18T14:22:37Z</time>
      </trkpt>
      <trkpt lat="45.62699" lon="6.67679">
        <ele>1803.6</ele>
        <time>2012-02-18T14:22:40Z</time>
      </trkpt>
      <trkpt lat="45.62692" lon="6.67682">
        <ele>1803.5</ele>
        <time>2012-02-18T14:22:42Z</time>
      </trkpt>
      <trkpt lat="45.62685" lon="6.67687">
        <ele>1802.4</ele>
        <time>2012-02-18T14:22:44Z</time>
      </trkpt>
      <trkpt lat="45.6268" lon="6.6769">
        <ele>1801.5</ele>
        <time>2012-02-18T14:22:45Z</time>
      </trkpt>
      <trkpt lat="45.62676" lon="6.67694">
        <ele>1800.8</ele>
        <time>2012-02-18T14:22:46Z</time>
      </trkpt>
      <trkpt lat="45.62673" lon="6.67699">
        <ele>1800</ele>
        <time>2012-02-18T14:22:47Z</time>
      </trkpt>
      <trkpt lat="45.62669" lon="6.67703">
        <ele>1799.4</ele>
        <time>2012-02-18T14:22:48Z</time>
      </trkpt>
      <trkpt lat="45.62664" lon="6.67707">
        <ele>1798.9</ele>
        <time>2012-02-18T14:22:49Z</time>
      </trkpt>
      <trkpt lat="45.62659" lon="6.67711">
        <ele>1797.9</ele>
        <time>2012-02-18T14:22:50Z</time>
      </trkpt>
      <trkpt lat="45.62655" lon="6.67715">
        <ele>1797.1</ele>
        <time>2012-02-18T14:22:51Z</time>
      </trkpt>
      <trkpt lat="45.62648" lon="6.6772">
        <ele>1795.7</ele>
        <time>2012-02-18T14:22:53Z</time>
      </trkpt>
      <trkpt lat="45.62642" lon="6.67725">
        <ele>1795.2</ele>
        <time>2012-02-18T14:22:55Z</time>
      </trkpt>
      <trkpt lat="45.62634" lon="6.67731">
        <ele>1794.7</ele>
        <time>2012-02-18T14:22:57Z</time>
      </trkpt>
      <trkpt lat="45.62627" lon="6.67734">
        <ele>1793.9</ele>
        <time>2012-02-18T14:22:59Z</time>
      </trkpt>
      <trkpt lat="45.62619" lon="6.67737">
        <ele>1792.4</ele>
        <time>2012-02-18T14:23:02Z</time>
      </trkpt>
      <trkpt lat="45.62611" lon="6.67741">
        <ele>1791</ele>
        <time>2012-02-18T14:23:05Z</time>
      </trkpt>
      <trkpt lat="45.62606" lon="6.67744">
        <ele>1790.4</ele>
        <time>2012-02-18T14:23:07Z</time>
      </trkpt>
      <trkpt lat="45.626" lon="6.67748">
        <ele>1789.8</ele>
        <time>2012-02-18T14:23:09Z</time>
      </trkpt>
      <trkpt lat="45.62594" lon="6.67755">
        <ele>1788.9</ele>
        <time>2012-02-18T14:23:11Z</time>
      </trkpt>
      <trkpt lat="45.62587" lon="6.67761">
        <ele>1787.7</ele>
        <time>2012-02-18T14:23:13Z</time>
      </trkpt>
      <trkpt lat="45.6258" lon="6.67765">
        <ele>1786.7</ele>
        <time>2012-02-18T14:23:15Z</time>
      </trkpt>
      <trkpt lat="45.62572" lon="6.6777">
        <ele>1785.2</ele>
        <time>2012-02-18T14:23:19Z</time>
      </trkpt>
      <trkpt lat="45.62564" lon="6.67777">
        <ele>1783.6</ele>
        <time>2012-02-18T14:23:31Z</time>
      </trkpt>
      <trkpt lat="45.62557" lon="6.67779">
        <ele>1782.9</ele>
        <time>2012-02-18T14:23:38Z</time>
      </trkpt>
      <trkpt lat="45.62551" lon="6.67785">
        <ele>1781.9</ele>
        <time>2012-02-18T14:23:41Z</time>
      </trkpt>
      <trkpt lat="45.62543" lon="6.67791">
        <ele>1780.9</ele>
        <time>2012-02-18T14:23:44Z</time>
      </trkpt>
      <trkpt lat="45.62536" lon="6.67796">
        <ele>1779.9</ele>
        <time>2012-02-18T14:23:48Z</time>
      </trkpt>
      <trkpt lat="45.62534" lon="6.67797">
        <ele>1779.9</ele>
        <time>2012-02-18T14:23:49Z</time>
      </trkpt>
      <trkpt lat="45.62525" lon="6.67805">
        <ele>1778.4</ele>
        <time>2012-02-18T14:23:52Z</time>
      </trkpt>
      <trkpt lat="45.62521" lon="6.67808">
        <ele>1778</ele>
        <time>2012-02-18T14:23:53Z</time>
      </trkpt>
      <trkpt lat="45.62517" lon="6.67812">
        <ele>1776.9</ele>
        <time>2012-02-18T14:23:54Z</time>
      </trkpt>
      <trkpt lat="45.62513" lon="6.67816">
        <ele>1776.2</ele>
        <time>2012-02-18T14:23:55Z</time>
      </trkpt>
      <trkpt lat="45.62508" lon="6.67819">
        <ele>1775.2</ele>
        <time>2012-02-18T14:23:56Z</time>
      </trkpt>
      <trkpt lat="45.625" lon="6.67825">
        <ele>1774</ele>
        <time>2012-02-18T14:23:58Z</time>
      </trkpt>
      <trkpt lat="45.62495" lon="6.6783">
        <ele>1772.8</ele>
        <time>2012-02-18T14:24:00Z</time>
      </trkpt>
      <trkpt lat="45.62488" lon="6.67836">
        <ele>1772.1</ele>
        <time>2012-02-18T14:24:03Z</time>
      </trkpt>
      <trkpt lat="45.6248" lon="6.6784">
        <ele>1770.8</ele>
        <time>2012-02-18T14:24:09Z</time>
      </trkpt>
      <trkpt lat="45.62471" lon="6.67839">
        <ele>1768.6</ele>
        <time>2012-02-18T14:24:38Z</time>
      </trkpt>
      <trkpt lat="45.62467" lon="6.67829">
        <ele>1770.6</ele>
        <time>2012-02-18T14:24:50Z</time>
      </trkpt>
      <trkpt lat="45.62467" lon="6.67827">
        <ele>1769.7</ele>
        <time>2012-02-18T14:24:51Z</time>
      </trkpt>
      <trkpt lat="45.62461" lon="6.6781">
        <ele>1765.2</ele>
        <time>2012-02-18T14:25:54Z</time>
      </trkpt>
      <trkpt lat="45.62459" lon="6.67806">
        <ele>1764.6</ele>
        <time>2012-02-18T14:25:55Z</time>
      </trkpt>
      <trkpt lat="45.62451" lon="6.67799">
        <ele>1762.9</ele>
        <time>2012-02-18T14:25:58Z</time>
      </trkpt>
      <trkpt lat="45.62442" lon="6.67801">
        <ele>1761.8</ele>
        <time>2012-02-18T14:26:00Z</time>
      </trkpt>
      <trkpt lat="45.62433" lon="6.67802">
        <ele>1760.2</ele>
        <time>2012-02-18T14:26:02Z</time>
      </trkpt>
      <trkpt lat="45.62425" lon="6.67806">
        <ele>1758.1</ele>
        <time>2012-02-18T14:26:04Z</time>
      </trkpt>
      <trkpt lat="45.62421" lon="6.67808">
        <ele>1757.1</ele>
        <time>2012-02-18T14:26:05Z</time>
      </trkpt>
      <trkpt lat="45.62416" lon="6.6781">
        <ele>1756.3</ele>
        <time>2012-02-18T14:26:06Z</time>
      </trkpt>
      <trkpt lat="45.62408" lon="6.67814">
        <ele>1754.8</ele>
        <time>2012-02-18T14:26:08Z</time>
      </trkpt>
      <trkpt lat="45.624" lon="6.67812">
        <ele>1753.3</ele>
        <time>2012-02-18T14:26:10Z</time>
      </trkpt>
      <trkpt lat="45.62395" lon="6.67809">
        <ele>1752.8</ele>
        <time>2012-02-18T14:26:11Z</time>
      </trkpt>
      <trkpt lat="45.6239" lon="6.67804">
        <ele>1751.3</ele>
        <time>2012-02-18T14:26:12Z</time>
      </trkpt>
      <trkpt lat="45.62385" lon="6.67801">
        <ele>1750.2</ele>
        <time>2012-02-18T14:26:13Z</time>
      </trkpt>
      <trkpt lat="45.6238" lon="6.67799">
        <ele>1749.2</ele>
        <time>2012-02-18T14:26:14Z</time>
      </trkpt>
      <trkpt lat="45.62375" lon="6.67796">
        <ele>1748.4</ele>
        <time>2012-02-18T14:26:15Z</time>
      </trkpt>
      <trkpt lat="45.62367" lon="6.67791">
        <ele>1746.2</ele>
        <time>2012-02-18T14:26:17Z</time>
      </trkpt>
      <trkpt lat="45.6236" lon="6.67785">
        <ele>1745.1</ele>
        <time>2012-02-18T14:26:19Z</time>
      </trkpt>
      <trkpt lat="45.62355" lon="6.67783">
        <ele>1744.7</ele>
        <time>2012-02-18T14:26:20Z</time>
      </trkpt>
      <trkpt lat="45.62349" lon="6.67783">
        <ele>1743.6</ele>
        <time>2012-02-18T14:26:21Z</time>
      </trkpt>
      <trkpt lat="45.62344" lon="6.67782">
        <ele>1742.8</ele>
        <time>2012-02-18T14:26:22Z</time>
      </trkpt>
      <trkpt lat="45.62337" lon="6.67782">
        <ele>1741.2</ele>
        <time>2012-02-18T14:26:24Z</time>
      </trkpt>
      <trkpt lat="45.62329" lon="6.67784">
        <ele>1740.3</ele>
        <time>2012-02-18T14:26:27Z</time>
      </trkpt>
      <trkpt lat="45.62321" lon="6.67788">
        <ele>1740.2</ele>
        <time>2012-02-18T14:26:32Z</time>
      </trkpt>
      <trkpt lat="45.62315" lon="6.67782">
        <ele>1741</ele>
        <time>2012-02-18T14:26:55Z</time>
      </trkpt>
      <trkpt lat="45.62311" lon="6.67782">
        <ele>1740.9</ele>
        <time>2012-02-18T14:26:56Z</time>
      </trkpt>
      <trkpt lat="45.62299" lon="6.67782">
        <ele>1738.9</ele>
        <time>2012-02-18T14:26:59Z</time>
      </trkpt>
      <trkpt lat="45.62291" lon="6.67782">
        <ele>1737.6</ele>
        <time>2012-02-18T14:27:02Z</time>
      </trkpt>
      <trkpt lat="45.62284" lon="6.67781">
        <ele>1737.2</ele>
        <time>2012-02-18T14:27:05Z</time>
      </trkpt>
      <trkpt lat="45.62278" lon="6.67782">
        <ele>1736.3</ele>
        <time>2012-02-18T14:27:07Z</time>
      </trkpt>
      <trkpt lat="45.6227" lon="6.67782">
        <ele>1735.2</ele>
        <time>2012-02-18T14:27:09Z</time>
      </trkpt>
      <trkpt lat="45.62262" lon="6.67782">
        <ele>1733.8</ele>
        <time>2012-02-18T14:27:13Z</time>
      </trkpt>
      <trkpt lat="45.62253" lon="6.67777">
        <ele>1732.8</ele>
        <time>2012-02-18T14:27:35Z</time>
      </trkpt>
      <trkpt lat="45.62247" lon="6.67771">
        <ele>1732.8</ele>
        <time>2012-02-18T14:27:48Z</time>
      </trkpt>
      <trkpt lat="45.6224" lon="6.67766">
        <ele>1732.6</ele>
        <time>2012-02-18T14:27:54Z</time>
      </trkpt>
      <trkpt lat="45.62233" lon="6.67762">
        <ele>1732.7</ele>
        <time>2012-02-18T14:27:57Z</time>
      </trkpt>
      <trkpt lat="45.62231" lon="6.6776">
        <ele>1732.2</ele>
        <time>2012-02-18T14:27:58Z</time>
      </trkpt>
      <trkpt lat="45.62216" lon="6.67757">
        <ele>1730.8</ele>
        <time>2012-02-18T14:28:12Z</time>
      </trkpt>
      <trkpt lat="45.62209" lon="6.67758">
        <ele>1730.7</ele>
        <time>2012-02-18T14:28:14Z</time>
      </trkpt>
      <trkpt lat="45.62204" lon="6.67757">
        <ele>1729.6</ele>
        <time>2012-02-18T14:28:15Z</time>
      </trkpt>
      <trkpt lat="45.62195" lon="6.67757">
        <ele>1728</ele>
        <time>2012-02-18T14:28:17Z</time>
      </trkpt>
      <trkpt lat="45.62189" lon="6.67756">
        <ele>1726.9</ele>
        <time>2012-02-18T14:28:19Z</time>
      </trkpt>
      <trkpt lat="45.6218" lon="6.67756">
        <ele>1725</ele>
        <time>2012-02-18T14:28:22Z</time>
      </trkpt>
      <trkpt lat="45.62173" lon="6.67758">
        <ele>1723.9</ele>
        <time>2012-02-18T14:28:24Z</time>
      </trkpt>
      <trkpt lat="45.62164" lon="6.6776">
        <ele>1723.1</ele>
        <time>2012-02-18T14:28:26Z</time>
      </trkpt>
      <trkpt lat="45.62159" lon="6.67761">
        <ele>1721.9</ele>
        <time>2012-02-18T14:28:27Z</time>
      </trkpt>
      <trkpt lat="45.62155" lon="6.67761">
        <ele>1721</ele>
        <time>2012-02-18T14:28:28Z</time>
      </trkpt>
      <trkpt lat="45.6215" lon="6.67762">
        <ele>1720</ele>
        <time>2012-02-18T14:28:29Z</time>
      </trkpt>
      <trkpt lat="45.62146" lon="6.67763">
        <ele>1719.2</ele>
        <time>2012-02-18T14:28:30Z</time>
      </trkpt>
      <trkpt lat="45.62141" lon="6.67763">
        <ele>1718.5</ele>
        <time>2012-02-18T14:28:31Z</time>
      </trkpt>
      <trkpt lat="45.62136" lon="6.67764">
        <ele>1717.9</ele>
        <time>2012-02-18T14:28:32Z</time>
      </trkpt>
      <trkpt lat="45.62131" lon="6.67765">
        <ele>1717.5</ele>
        <time>2012-02-18T14:28:33Z</time>
      </trkpt>
      <trkpt lat="45.62123" lon="6.67766">
        <ele>1715.8</ele>
        <time>2012-02-18T14:28:35Z</time>
      </trkpt>
      <trkpt lat="45.62115" lon="6.67767">
        <ele>1714.5</ele>
        <time>2012-02-18T14:28:37Z</time>
      </trkpt>
      <trkpt lat="45.62109" lon="6.67767">
        <ele>1713.7</ele>
        <time>2012-02-18T14:28:39Z</time>
      </trkpt>
      <trkpt lat="45.62102" lon="6.67768">
        <ele>1712.6</ele>
        <time>2012-02-18T14:28:41Z</time>
      </trkpt>
      <trkpt lat="45.62094" lon="6.67768">
        <ele>1710.9</ele>
        <time>2012-02-18T14:28:43Z</time>
      </trkpt>
      <trkpt lat="45.62088" lon="6.67768">
        <ele>1710.1</ele>
        <time>2012-02-18T14:28:44Z</time>
      </trkpt>
      <trkpt lat="45.62083" lon="6.67768">
        <ele>1709.5</ele>
        <time>2012-02-18T14:28:45Z</time>
      </trkpt>
      <trkpt lat="45.62077" lon="6.67767">
        <ele>1708.7</ele>
        <time>2012-02-18T14:28:46Z</time>
      </trkpt>
      <trkpt lat="45.62072" lon="6.67767">
        <ele>1708.1</ele>
        <time>2012-02-18T14:28:47Z</time>
      </trkpt>
      <trkpt lat="45.62067" lon="6.67767">
        <ele>1707.5</ele>
        <time>2012-02-18T14:28:48Z</time>
      </trkpt>
      <trkpt lat="45.62062" lon="6.67767">
        <ele>1707</ele>
        <time>2012-02-18T14:28:49Z</time>
      </trkpt>
      <trkpt lat="45.62053" lon="6.67767">
        <ele>1705.7</ele>
        <time>2012-02-18T14:28:51Z</time>
      </trkpt>
      <trkpt lat="45.62045" lon="6.67767">
        <ele>1705.3</ele>
        <time>2012-02-18T14:28:54Z</time>
      </trkpt>
      <trkpt lat="45.62038" lon="6.67768">
        <ele>1704.7</ele>
        <time>2012-02-18T14:28:56Z</time>
      </trkpt>
      <trkpt lat="45.6203" lon="6.67769">
        <ele>1703.8</ele>
        <time>2012-02-18T14:28:58Z</time>
      </trkpt>
      <trkpt lat="45.62025" lon="6.6777">
        <ele>1703.2</ele>
        <time>2012-02-18T14:28:59Z</time>
      </trkpt>
      <trkpt lat="45.6202" lon="6.67772">
        <ele>1702.5</ele>
        <time>2012-02-18T14:29:00Z</time>
      </trkpt>
      <trkpt lat="45.62014" lon="6.67772">
        <ele>1701.9</ele>
        <time>2012-02-18T14:29:01Z</time>
      </trkpt>
      <trkpt lat="45.62008" lon="6.67772">
        <ele>1701.3</ele>
        <time>2012-02-18T14:29:02Z</time>
      </trkpt>
      <trkpt lat="45.62002" lon="6.67772">
        <ele>1700.8</ele>
        <time>2012-02-18T14:29:03Z</time>
      </trkpt>
      <trkpt lat="45.61997" lon="6.67771">
        <ele>1700.5</ele>
        <time>2012-02-18T14:29:04Z</time>
      </trkpt>
      <trkpt lat="45.61992" lon="6.67771">
        <ele>1699.4</ele>
        <time>2012-02-18T14:29:05Z</time>
      </trkpt>
      <trkpt lat="45.61987" lon="6.6777">
        <ele>1698.6</ele>
        <time>2012-02-18T14:29:06Z</time>
      </trkpt>
      <trkpt lat="45.61982" lon="6.6777">
        <ele>1698.1</ele>
        <time>2012-02-18T14:29:07Z</time>
      </trkpt>
      <trkpt lat="45.61977" lon="6.67769">
        <ele>1697.7</ele>
        <time>2012-02-18T14:29:08Z</time>
      </trkpt>
      <trkpt lat="45.61969" lon="6.67768">
        <ele>1696.7</ele>
        <time>2012-02-18T14:29:10Z</time>
      </trkpt>
      <trkpt lat="45.61962" lon="6.67767">
        <ele>1696.3</ele>
        <time>2012-02-18T14:29:12Z</time>
      </trkpt>
      <trkpt lat="45.61956" lon="6.67768">
        <ele>1695.4</ele>
        <time>2012-02-18T14:29:14Z</time>
      </trkpt>
      <trkpt lat="45.61948" lon="6.6777">
        <ele>1694.3</ele>
        <time>2012-02-18T14:29:16Z</time>
      </trkpt>
      <trkpt lat="45.61942" lon="6.6777">
        <ele>1693.5</ele>
        <time>2012-02-18T14:29:18Z</time>
      </trkpt>
      <trkpt lat="45.61934" lon="6.6777">
        <ele>1692.4</ele>
        <time>2012-02-18T14:29:21Z</time>
      </trkpt>
      <trkpt lat="45.61928" lon="6.6777">
        <ele>1691.7</ele>
        <time>2012-02-18T14:29:23Z</time>
      </trkpt>
      <trkpt lat="45.6192" lon="6.6777">
        <ele>1690.4</ele>
        <time>2012-02-18T14:29:25Z</time>
      </trkpt>
      <trkpt lat="45.61912" lon="6.67772">
        <ele>1689.7</ele>
        <time>2012-02-18T14:29:27Z</time>
      </trkpt>
      <trkpt lat="45.61903" lon="6.67773">
        <ele>1688.4</ele>
        <time>2012-02-18T14:29:29Z</time>
      </trkpt>
      <trkpt lat="45.61899" lon="6.67774">
        <ele>1688</ele>
        <time>2012-02-18T14:29:30Z</time>
      </trkpt>
      <trkpt lat="45.61894" lon="6.67775">
        <ele>1687.6</ele>
        <time>2012-02-18T14:29:31Z</time>
      </trkpt>
      <trkpt lat="45.61889" lon="6.67775">
        <ele>1687.3</ele>
        <time>2012-02-18T14:29:32Z</time>
      </trkpt>
      <trkpt lat="45.61884" lon="6.67776">
        <ele>1686.7</ele>
        <time>2012-02-18T14:29:33Z</time>
      </trkpt>
      <trkpt lat="45.61879" lon="6.67777">
        <ele>1686.2</ele>
        <time>2012-02-18T14:29:34Z</time>
      </trkpt>
      <trkpt lat="45.61873" lon="6.67779">
        <ele>1685.1</ele>
        <time>2012-02-18T14:29:35Z</time>
      </trkpt>
      <trkpt lat="45.61866" lon="6.67781">
        <ele>1684.3</ele>
        <time>2012-02-18T14:29:36Z</time>
      </trkpt>
      <trkpt lat="45.61859" lon="6.67782">
        <ele>1683.6</ele>
        <time>2012-02-18T14:29:37Z</time>
      </trkpt>
      <trkpt lat="45.61852" lon="6.67783">
        <ele>1682.5</ele>
        <time>2012-02-18T14:29:38Z</time>
      </trkpt>
      <trkpt lat="45.61845" lon="6.67784">
        <ele>1681.6</ele>
        <time>2012-02-18T14:29:39Z</time>
      </trkpt>
      <trkpt lat="45.61837" lon="6.67785">
        <ele>1680.7</ele>
        <time>2012-02-18T14:29:40Z</time>
      </trkpt>
      <trkpt lat="45.61829" lon="6.67784">
        <ele>1679.9</ele>
        <time>2012-02-18T14:29:41Z</time>
      </trkpt>
      <trkpt lat="45.61822" lon="6.67783">
        <ele>1679.4</ele>
        <time>2012-02-18T14:29:42Z</time>
      </trkpt>
      <trkpt lat="45.61814" lon="6.67783">
        <ele>1678.6</ele>
        <time>2012-02-18T14:29:43Z</time>
      </trkpt>
      <trkpt lat="45.61806" lon="6.67782">
        <ele>1677.9</ele>
        <time>2012-02-18T14:29:44Z</time>
      </trkpt>
      <trkpt lat="45.61799" lon="6.67781">
        <ele>1677.6</ele>
        <time>2012-02-18T14:29:45Z</time>
      </trkpt>
      <trkpt lat="45.61792" lon="6.6778">
        <ele>1677.3</ele>
        <time>2012-02-18T14:29:46Z</time>
      </trkpt>
      <trkpt lat="45.61784" lon="6.67779">
        <ele>1676.8</ele>
        <time>2012-02-18T14:29:47Z</time>
      </trkpt>
      <trkpt lat="45.61777" lon="6.67778">
        <ele>1676.5</ele>
        <time>2012-02-18T14:29:48Z</time>
      </trkpt>
      <trkpt lat="45.61771" lon="6.67775">
        <ele>1676.2</ele>
        <time>2012-02-18T14:29:49Z</time>
      </trkpt>
      <trkpt lat="45.61765" lon="6.67773">
        <ele>1676.3</ele>
        <time>2012-02-18T14:29:50Z</time>
      </trkpt>
      <trkpt lat="45.61757" lon="6.67771">
        <ele>1676.3</ele>
        <time>2012-02-18T14:29:52Z</time>
      </trkpt>
      <trkpt lat="45.6175" lon="6.67763">
        <ele>1676.2</ele>
        <time>2012-02-18T14:30:05Z</time>
      </trkpt>
      <trkpt lat="45.6175" lon="6.67762">
        <ele>1675.9</ele>
        <time>2012-02-18T14:30:06Z</time>
      </trkpt>
      <trkpt lat="45.61742" lon="6.67756">
        <ele>1676.1</ele>
        <time>2012-02-18T14:31:36Z</time>
      </trkpt>
      <trkpt lat="45.61729" lon="6.6776">
        <ele>1676.4</ele>
        <time>2012-02-18T14:32:04Z</time>
      </trkpt>
      <trkpt lat="45.61725" lon="6.6776">
        <ele>1675.9</ele>
        <time>2012-02-18T14:32:05Z</time>
      </trkpt>
      <trkpt lat="45.6172" lon="6.67759">
        <ele>1675.5</ele>
        <time>2012-02-18T14:32:06Z</time>
      </trkpt>
      <trkpt lat="45.61714" lon="6.67758">
        <ele>1674.1</ele>
        <time>2012-02-18T14:32:07Z</time>
      </trkpt>
      <trkpt lat="45.61708" lon="6.67757">
        <ele>1673.1</ele>
        <time>2012-02-18T14:32:08Z</time>
      </trkpt>
      <trkpt lat="45.61701" lon="6.67756">
        <ele>1672.3</ele>
        <time>2012-02-18T14:32:09Z</time>
      </trkpt>
      <trkpt lat="45.61694" lon="6.67755">
        <ele>1671.3</ele>
        <time>2012-02-18T14:32:10Z</time>
      </trkpt>
      <trkpt lat="45.61688" lon="6.67755">
        <ele>1670.6</ele>
        <time>2012-02-18T14:32:11Z</time>
      </trkpt>
      <trkpt lat="45.61682" lon="6.67755">
        <ele>1669.8</ele>
        <time>2012-02-18T14:32:12Z</time>
      </trkpt>
      <trkpt lat="45.61676" lon="6.67755">
        <ele>1669.2</ele>
        <time>2012-02-18T14:32:13Z</time>
      </trkpt>
      <trkpt lat="45.61669" lon="6.67756">
        <ele>1668.7</ele>
        <time>2012-02-18T14:32:14Z</time>
      </trkpt>
      <trkpt lat="45.61663" lon="6.67757">
        <ele>1668.6</ele>
        <time>2012-02-18T14:32:15Z</time>
      </trkpt>
      <trkpt lat="45.61658" lon="6.67758">
        <ele>1668.4</ele>
        <time>2012-02-18T14:32:16Z</time>
      </trkpt>
      <trkpt lat="45.61654" lon="6.6776">
        <ele>1668.3</ele>
        <time>2012-02-18T14:32:17Z</time>
      </trkpt>
      <trkpt lat="45.61646" lon="6.67762">
        <ele>1668.3</ele>
        <time>2012-02-18T14:32:19Z</time>
      </trkpt>
      <trkpt lat="45.6164" lon="6.67763">
        <ele>1668.4</ele>
        <time>2012-02-18T14:32:21Z</time>
      </trkpt>
      <trkpt lat="45.61633" lon="6.67765">
        <ele>1667.5</ele>
        <time>2012-02-18T14:32:23Z</time>
      </trkpt>
      <trkpt lat="45.61624" lon="6.67767">
        <ele>1667.1</ele>
        <time>2012-02-18T14:32:25Z</time>
      </trkpt>
      <trkpt lat="45.61619" lon="6.67768">
        <ele>1666.4</ele>
        <time>2012-02-18T14:32:26Z</time>
      </trkpt>
      <trkpt lat="45.61613" lon="6.67769">
        <ele>1665.9</ele>
        <time>2012-02-18T14:32:27Z</time>
      </trkpt>
      <trkpt lat="45.61607" lon="6.67768">
        <ele>1665.5</ele>
        <time>2012-02-18T14:32:28Z</time>
      </trkpt>
      <trkpt lat="45.61602" lon="6.67768">
        <ele>1664.9</ele>
        <time>2012-02-18T14:32:29Z</time>
      </trkpt>
      <trkpt lat="45.61593" lon="6.67767">
        <ele>1663</ele>
        <time>2012-02-18T14:32:31Z</time>
      </trkpt>
      <trkpt lat="45.61585" lon="6.67765">
        <ele>1661.2</ele>
        <time>2012-02-18T14:32:33Z</time>
      </trkpt>
      <trkpt lat="45.61579" lon="6.67765">
        <ele>1660.8</ele>
        <time>2012-02-18T14:32:35Z</time>
      </trkpt>
      <trkpt lat="45.61572" lon="6.67766">
        <ele>1660.4</ele>
        <time>2012-02-18T14:32:37Z</time>
      </trkpt>
      <trkpt lat="45.61569" lon="6.67766">
        <ele>1659.5</ele>
        <time>2012-02-18T14:32:38Z</time>
      </trkpt>
      <trkpt lat="45.6156" lon="6.67766">
        <ele>1658.4</ele>
        <time>2012-02-18T14:32:40Z</time>
      </trkpt>
      <trkpt lat="45.61555" lon="6.67765">
        <ele>1657.5</ele>
        <time>2012-02-18T14:32:41Z</time>
      </trkpt>
      <trkpt lat="45.6155" lon="6.67763">
        <ele>1656.8</ele>
        <time>2012-02-18T14:32:42Z</time>
      </trkpt>
      <trkpt lat="45.61544" lon="6.6776">
        <ele>1655.9</ele>
        <time>2012-02-18T14:32:43Z</time>
      </trkpt>
      <trkpt lat="45.61537" lon="6.67756">
        <ele>1655.3</ele>
        <time>2012-02-18T14:32:44Z</time>
      </trkpt>
      <trkpt lat="45.61531" lon="6.67753">
        <ele>1654.4</ele>
        <time>2012-02-18T14:32:45Z</time>
      </trkpt>
      <trkpt lat="45.61524" lon="6.67751">
        <ele>1653.7</ele>
        <time>2012-02-18T14:32:46Z</time>
      </trkpt>
      <trkpt lat="45.61518" lon="6.6775">
        <ele>1653.2</ele>
        <time>2012-02-18T14:32:47Z</time>
      </trkpt>
      <trkpt lat="45.61512" lon="6.6775">
        <ele>1652.5</ele>
        <time>2012-02-18T14:32:48Z</time>
      </trkpt>
      <trkpt lat="45.61506" lon="6.67751">
        <ele>1652</ele>
        <time>2012-02-18T14:32:49Z</time>
      </trkpt>
      <trkpt lat="45.61501" lon="6.67751">
        <ele>1652.3</ele>
        <time>2012-02-18T14:32:50Z</time>
      </trkpt>
      <trkpt lat="45.61495" lon="6.67751">
        <ele>1652.6</ele>
        <time>2012-02-18T14:32:51Z</time>
      </trkpt>
      <trkpt lat="45.61489" lon="6.67751">
        <ele>1652.8</ele>
        <time>2012-02-18T14:32:52Z</time>
      </trkpt>
      <trkpt lat="45.61482" lon="6.67751">
        <ele>1652.4</ele>
        <time>2012-02-18T14:32:53Z</time>
      </trkpt>
      <trkpt lat="45.61476" lon="6.6775">
        <ele>1652.1</ele>
        <time>2012-02-18T14:32:54Z</time>
      </trkpt>
      <trkpt lat="45.6147" lon="6.67749">
        <ele>1651.4</ele>
        <time>2012-02-18T14:32:55Z</time>
      </trkpt>
      <trkpt lat="45.61464" lon="6.67749">
        <ele>1650.9</ele>
        <time>2012-02-18T14:32:56Z</time>
      </trkpt>
      <trkpt lat="45.61458" lon="6.67749">
        <ele>1649.9</ele>
        <time>2012-02-18T14:32:57Z</time>
      </trkpt>
      <trkpt lat="45.61451" lon="6.67749">
        <ele>1649.1</ele>
        <time>2012-02-18T14:32:58Z</time>
      </trkpt>
      <trkpt lat="45.61445" lon="6.67748">
        <ele>1648.6</ele>
        <time>2012-02-18T14:32:59Z</time>
      </trkpt>
      <trkpt lat="45.61438" lon="6.67748">
        <ele>1648.1</ele>
        <time>2012-02-18T14:33:00Z</time>
      </trkpt>
      <trkpt lat="45.61432" lon="6.67748">
        <ele>1647.8</ele>
        <time>2012-02-18T14:33:01Z</time>
      </trkpt>
      <trkpt lat="45.61427" lon="6.67747">
        <ele>1647.3</ele>
        <time>2012-02-18T14:33:02Z</time>
      </trkpt>
      <trkpt lat="45.61421" lon="6.67745">
        <ele>1646.8</ele>
        <time>2012-02-18T14:33:03Z</time>
      </trkpt>
      <trkpt lat="45.61416" lon="6.67744">
        <ele>1646.2</ele>
        <time>2012-02-18T14:33:04Z</time>
      </trkpt>
      <trkpt lat="45.61407" lon="6.67743">
        <ele>1645.4</ele>
        <time>2012-02-18T14:33:06Z</time>
      </trkpt>
      <trkpt lat="45.61399" lon="6.67743">
        <ele>1645.4</ele>
        <time>2012-02-18T14:33:08Z</time>
      </trkpt>
      <trkpt lat="45.61394" lon="6.67742">
        <ele>1644.6</ele>
        <time>2012-02-18T14:33:09Z</time>
      </trkpt>
      <trkpt lat="45.61388" lon="6.67741">
        <ele>1644.1</ele>
        <time>2012-02-18T14:33:10Z</time>
      </trkpt>
      <trkpt lat="45.61382" lon="6.67741">
        <ele>1643.6</ele>
        <time>2012-02-18T14:33:11Z</time>
      </trkpt>
      <trkpt lat="45.61374" lon="6.67742">
        <ele>1642.9</ele>
        <time>2012-02-18T14:33:13Z</time>
      </trkpt>
      <trkpt lat="45.61366" lon="6.67742">
        <ele>1642.4</ele>
        <time>2012-02-18T14:33:15Z</time>
      </trkpt>
      <trkpt lat="45.61359" lon="6.67742">
        <ele>1641.5</ele>
        <time>2012-02-18T14:33:17Z</time>
      </trkpt>
      <trkpt lat="45.61351" lon="6.67742">
        <ele>1641.1</ele>
        <time>2012-02-18T14:33:20Z</time>
      </trkpt>
      <trkpt lat="45.61346" lon="6.67742">
        <ele>1640.7</ele>
        <time>2012-02-18T14:33:22Z</time>
      </trkpt>
      <trkpt lat="45.61338" lon="6.67742">
        <ele>1639.8</ele>
        <time>2012-02-18T14:33:24Z</time>
      </trkpt>
      <trkpt lat="45.61332" lon="6.67742">
        <ele>1639.5</ele>
        <time>2012-02-18T14:33:25Z</time>
      </trkpt>
      <trkpt lat="45.61327" lon="6.67743">
        <ele>1638.8</ele>
        <time>2012-02-18T14:33:26Z</time>
      </trkpt>
      <trkpt lat="45.61321" lon="6.67743">
        <ele>1638.3</ele>
        <time>2012-02-18T14:33:27Z</time>
      </trkpt>
      <trkpt lat="45.61316" lon="6.67742">
        <ele>1637.6</ele>
        <time>2012-02-18T14:33:28Z</time>
      </trkpt>
      <trkpt lat="45.6131" lon="6.67741">
        <ele>1637</ele>
        <time>2012-02-18T14:33:29Z</time>
      </trkpt>
      <trkpt lat="45.61304" lon="6.67741">
        <ele>1635.9</ele>
        <time>2012-02-18T14:33:30Z</time>
      </trkpt>
      <trkpt lat="45.61297" lon="6.67741">
        <ele>1634.4</ele>
        <time>2012-02-18T14:33:32Z</time>
      </trkpt>
      <trkpt lat="45.61289" lon="6.67739">
        <ele>1636.6</ele>
        <time>2012-02-18T14:33:37Z</time>
      </trkpt>
      <trkpt lat="45.61281" lon="6.6774">
        <ele>1636.2</ele>
        <time>2012-02-18T14:33:43Z</time>
      </trkpt>
      <trkpt lat="45.61279" lon="6.67741">
        <ele>1636.1</ele>
        <time>2012-02-18T14:33:44Z</time>
      </trkpt>
      <trkpt lat="45.61268" lon="6.67745">
        <ele>1634.9</ele>
        <time>2012-02-18T14:33:47Z</time>
      </trkpt>
      <trkpt lat="45.61262" lon="6.67745">
        <ele>1634.5</ele>
        <time>2012-02-18T14:33:48Z</time>
      </trkpt>
      <trkpt lat="45.61256" lon="6.67745">
        <ele>1633.7</ele>
        <time>2012-02-18T14:33:49Z</time>
      </trkpt>
      <trkpt lat="45.61249" lon="6.67745">
        <ele>1633.1</ele>
        <time>2012-02-18T14:33:50Z</time>
      </trkpt>
      <trkpt lat="45.61244" lon="6.67745">
        <ele>1632.6</ele>
        <time>2012-02-18T14:33:51Z</time>
      </trkpt>
      <trkpt lat="45.61239" lon="6.67745">
        <ele>1632.4</ele>
        <time>2012-02-18T14:33:52Z</time>
      </trkpt>
      <trkpt lat="45.61234" lon="6.67745">
        <ele>1632.3</ele>
        <time>2012-02-18T14:33:53Z</time>
      </trkpt>
      <trkpt lat="45.61229" lon="6.67746">
        <ele>1631.7</ele>
        <time>2012-02-18T14:33:54Z</time>
      </trkpt>
      <trkpt lat="45.61224" lon="6.67747">
        <ele>1631.3</ele>
        <time>2012-02-18T14:33:55Z</time>
      </trkpt>
      <trkpt lat="45.61218" lon="6.67747">
        <ele>1631</ele>
        <time>2012-02-18T14:33:56Z</time>
      </trkpt>
      <trkpt lat="45.61212" lon="6.67747">
        <ele>1630</ele>
        <time>2012-02-18T14:33:57Z</time>
      </trkpt>
      <trkpt lat="45.61206" lon="6.67747">
        <ele>1629.3</ele>
        <time>2012-02-18T14:33:58Z</time>
      </trkpt>
      <trkpt lat="45.61198" lon="6.67744">
        <ele>1629.2</ele>
        <time>2012-02-18T14:34:02Z</time>
      </trkpt>
      <trkpt lat="45.61194" lon="6.67733">
        <ele>1628.9</ele>
        <time>2012-02-18T14:34:16Z</time>
      </trkpt>
      <trkpt lat="45.61186" lon="6.67729">
        <ele>1628.5</ele>
        <time>2012-02-18T14:34:44Z</time>
      </trkpt>
      <trkpt lat="45.61184" lon="6.67729">
        <ele>1628.2</ele>
        <time>2012-02-18T14:34:45Z</time>
      </trkpt>
      <trkpt lat="45.61169" lon="6.67728">
        <ele>1626.9</ele>
        <time>2012-02-18T14:34:50Z</time>
      </trkpt>
      <trkpt lat="45.61163" lon="6.67728">
        <ele>1625.8</ele>
        <time>2012-02-18T14:34:52Z</time>
      </trkpt>
      <trkpt lat="45.61154" lon="6.67728">
        <ele>1625.7</ele>
        <time>2012-02-18T14:34:55Z</time>
      </trkpt>
      <trkpt lat="45.61147" lon="6.67724">
        <ele>1625.9</ele>
        <time>2012-02-18T14:34:59Z</time>
      </trkpt>
      <trkpt lat="45.61138" lon="6.67723">
        <ele>1625.8</ele>
        <time>2012-02-18T14:35:03Z</time>
      </trkpt>
      <trkpt lat="45.6113" lon="6.67719">
        <ele>1625.6</ele>
        <time>2012-02-18T14:35:12Z</time>
      </trkpt>
      <trkpt lat="45.61123" lon="6.67717">
        <ele>1625.9</ele>
        <time>2012-02-18T14:35:17Z</time>
      </trkpt>
      <trkpt lat="45.61116" lon="6.67712">
        <ele>1626.3</ele>
        <time>2012-02-18T14:35:19Z</time>
      </trkpt>
      <trkpt lat="45.6111" lon="6.67708">
        <ele>1625.2</ele>
        <time>2012-02-18T14:35:21Z</time>
      </trkpt>
      <trkpt lat="45.61104" lon="6.67705">
        <ele>1624.7</ele>
        <time>2012-02-18T14:35:23Z</time>
      </trkpt>
      <trkpt lat="45.61096" lon="6.67701">
        <ele>1624.6</ele>
        <time>2012-02-18T14:35:26Z</time>
      </trkpt>
      <trkpt lat="45.61088" lon="6.67696">
        <ele>1623.8</ele>
        <time>2012-02-18T14:35:30Z</time>
      </trkpt>
      <trkpt lat="45.61081" lon="6.67693">
        <ele>1623.8</ele>
        <time>2012-02-18T14:35:34Z</time>
      </trkpt>
      <trkpt lat="45.61075" lon="6.6769">
        <ele>1624</ele>
        <time>2012-02-18T14:35:37Z</time>
      </trkpt>
      <trkpt lat="45.61066" lon="6.67687">
        <ele>1623.1</ele>
        <time>2012-02-18T14:35:41Z</time>
      </trkpt>
      <trkpt lat="45.61058" lon="6.67683">
        <ele>1623.2</ele>
        <time>2012-02-18T14:35:47Z</time>
      </trkpt>
      <trkpt lat="45.61056" lon="6.67683">
        <ele>1623.1</ele>
        <time>2012-02-18T14:35:48Z</time>
      </trkpt>
      <trkpt lat="45.61042" lon="6.67677">
        <ele>1623.8</ele>
        <time>2012-02-18T14:35:59Z</time>
      </trkpt>
      <trkpt lat="45.61034" lon="6.67672">
        <ele>1623.7</ele>
        <time>2012-02-18T14:36:06Z</time>
      </trkpt>
      <trkpt lat="45.61027" lon="6.67667">
        <ele>1623.7</ele>
        <time>2012-02-18T14:36:15Z</time>
      </trkpt>
      <trkpt lat="45.61019" lon="6.67661">
        <ele>1623.9</ele>
        <time>2012-02-18T14:37:17Z</time>
      </trkpt>
      <trkpt lat="45.61018" lon="6.67661">
        <ele>1623.9</ele>
        <time>2012-02-18T14:37:18Z</time>
      </trkpt>
      <trkpt lat="45.61018" lon="6.67649">
        <ele>1624.4</ele>
        <time>2012-02-18T14:38:57Z</time>
      </trkpt>
      <trkpt lat="45.61019" lon="6.67649">
        <ele>1624.3</ele>
        <time>2012-02-18T14:38:58Z</time>
      </trkpt>
      <trkpt lat="45.61005" lon="6.67634">
        <ele>1624.1</ele>
        <time>2012-02-18T14:39:53Z</time>
      </trkpt>
      <trkpt lat="45.60999" lon="6.67627">
        <ele>1624</ele>
        <time>2012-02-18T14:39:58Z</time>
      </trkpt>
      <trkpt lat="45.60997" lon="6.67625">
        <ele>1624</ele>
        <time>2012-02-18T14:39:59Z</time>
      </trkpt>
      <trkpt lat="45.60987" lon="6.67612">
        <ele>1623.1</ele>
        <time>2012-02-18T14:40:04Z</time>
      </trkpt>
      <trkpt lat="45.6098" lon="6.67606">
        <ele>1622.4</ele>
        <time>2012-02-18T14:40:09Z</time>
      </trkpt>
      <trkpt lat="45.60972" lon="6.676">
        <ele>1622.1</ele>
        <time>2012-02-18T14:40:14Z</time>
      </trkpt>
      <trkpt lat="45.60967" lon="6.67595">
        <ele>1621.8</ele>
        <time>2012-02-18T14:40:17Z</time>
      </trkpt>
      <trkpt lat="45.60962" lon="6.6759">
        <ele>1621.9</ele>
        <time>2012-02-18T14:40:19Z</time>
      </trkpt>
      <trkpt lat="45.60954" lon="6.67584">
        <ele>1622</ele>
        <time>2012-02-18T14:40:22Z</time>
      </trkpt>
      <trkpt lat="45.60947" lon="6.67578">
        <ele>1621.4</ele>
        <time>2012-02-18T14:40:26Z</time>
      </trkpt>
      <trkpt lat="45.60939" lon="6.67575">
        <ele>1622.1</ele>
        <time>2012-02-18T14:40:31Z</time>
      </trkpt>
      <trkpt lat="45.60931" lon="6.67574">
        <ele>1621.7</ele>
        <time>2012-02-18T14:40:36Z</time>
      </trkpt>
      <trkpt lat="45.60923" lon="6.67572">
        <ele>1621.1</ele>
        <time>2012-02-18T14:40:39Z</time>
      </trkpt>
      <trkpt lat="45.60916" lon="6.6757">
        <ele>1620.1</ele>
        <time>2012-02-18T14:40:41Z</time>
      </trkpt>
      <trkpt lat="45.60907" lon="6.67566">
        <ele>1618.7</ele>
        <time>2012-02-18T14:40:43Z</time>
      </trkpt>
      <trkpt lat="45.60903" lon="6.67564">
        <ele>1618.3</ele>
        <time>2012-02-18T14:40:44Z</time>
      </trkpt>
      <trkpt lat="45.60894" lon="6.67563">
        <ele>1617.8</ele>
        <time>2012-02-18T14:40:46Z</time>
      </trkpt>
      <trkpt lat="45.60885" lon="6.67563">
        <ele>1617.9</ele>
        <time>2012-02-18T14:40:56Z</time>
      </trkpt>
      <trkpt lat="45.6088" lon="6.67563">
        <ele>1618.4</ele>
        <time>2012-02-18T14:40:59Z</time>
      </trkpt>
      <trkpt lat="45.60876" lon="6.67562">
        <ele>1618.3</ele>
        <time>2012-02-18T14:41:00Z</time>
      </trkpt>
      <trkpt lat="45.60866" lon="6.67555">
        <ele>1617</ele>
        <time>2012-02-18T14:41:03Z</time>
      </trkpt>
      <trkpt lat="45.60858" lon="6.67548">
        <ele>1616.4</ele>
        <time>2012-02-18T14:41:06Z</time>
      </trkpt>
      <trkpt lat="45.60851" lon="6.67543">
        <ele>1616.3</ele>
        <time>2012-02-18T14:41:09Z</time>
      </trkpt>
      <trkpt lat="45.60844" lon="6.67538">
        <ele>1616.2</ele>
        <time>2012-02-18T14:41:15Z</time>
      </trkpt>
      <trkpt lat="45.60836" lon="6.67532">
        <ele>1616.4</ele>
        <time>2012-02-18T14:41:23Z</time>
      </trkpt>
      <trkpt lat="45.60828" lon="6.67528">
        <ele>1615.5</ele>
        <time>2012-02-18T14:41:30Z</time>
      </trkpt>
      <trkpt lat="45.60819" lon="6.67524">
        <ele>1616.2</ele>
        <time>2012-02-18T14:41:37Z</time>
      </trkpt>
      <trkpt lat="45.60811" lon="6.6752">
        <ele>1616.3</ele>
        <time>2012-02-18T14:41:44Z</time>
      </trkpt>
      <trkpt lat="45.60803" lon="6.67514">
        <ele>1616.7</ele>
        <time>2012-02-18T14:41:52Z</time>
      </trkpt>
      <trkpt lat="45.60796" lon="6.67508">
        <ele>1617.6</ele>
        <time>2012-02-18T14:42:02Z</time>
      </trkpt>
      <trkpt lat="45.60795" lon="6.67507">
        <ele>1617.7</ele>
        <time>2012-02-18T14:42:03Z</time>
      </trkpt>
      <trkpt lat="45.60781" lon="6.67496">
        <ele>1617.9</ele>
        <time>2012-02-18T14:42:23Z</time>
      </trkpt>
      <trkpt lat="45.60773" lon="6.67492">
        <ele>1618.5</ele>
        <time>2012-02-18T14:42:30Z</time>
      </trkpt>
      <trkpt lat="45.60766" lon="6.6749">
        <ele>1618.6</ele>
        <time>2012-02-18T14:42:37Z</time>
      </trkpt>
      <trkpt lat="45.60757" lon="6.67486">
        <ele>1619</ele>
        <time>2012-02-18T14:42:43Z</time>
      </trkpt>
      <trkpt lat="45.60751" lon="6.6748">
        <ele>1618.6</ele>
        <time>2012-02-18T14:42:50Z</time>
      </trkpt>
      <trkpt lat="45.60744" lon="6.67472">
        <ele>1617.8</ele>
        <time>2012-02-18T14:43:15Z</time>
      </trkpt>
      <trkpt lat="45.60744" lon="6.67471">
        <ele>1617.8</ele>
        <time>2012-02-18T14:43:16Z</time>
      </trkpt>
      <trkpt lat="45.60731" lon="6.67463">
        <ele>1617.5</ele>
        <time>2012-02-18T14:43:26Z</time>
      </trkpt>
      <trkpt lat="45.60724" lon="6.67458">
        <ele>1617.2</ele>
        <time>2012-02-18T14:43:28Z</time>
      </trkpt>
      <trkpt lat="45.60719" lon="6.67456">
        <ele>1616.5</ele>
        <time>2012-02-18T14:43:29Z</time>
      </trkpt>
      <trkpt lat="45.60715" lon="6.67454">
        <ele>1615.9</ele>
        <time>2012-02-18T14:43:30Z</time>
      </trkpt>
      <trkpt lat="45.6071" lon="6.67451">
        <ele>1614.6</ele>
        <time>2012-02-18T14:43:31Z</time>
      </trkpt>
      <trkpt lat="45.60705" lon="6.67447">
        <ele>1613.6</ele>
        <time>2012-02-18T14:43:32Z</time>
      </trkpt>
      <trkpt lat="45.607" lon="6.67444">
        <ele>1612.3</ele>
        <time>2012-02-18T14:43:33Z</time>
      </trkpt>
      <trkpt lat="45.60695" lon="6.67441">
        <ele>1611.3</ele>
        <time>2012-02-18T14:43:34Z</time>
      </trkpt>
      <trkpt lat="45.6069" lon="6.67438">
        <ele>1610.6</ele>
        <time>2012-02-18T14:43:35Z</time>
      </trkpt>
      <trkpt lat="45.60684" lon="6.67433">
        <ele>1610.5</ele>
        <time>2012-02-18T14:43:36Z</time>
      </trkpt>
      <trkpt lat="45.60679" lon="6.67428">
        <ele>1610.4</ele>
        <time>2012-02-18T14:43:37Z</time>
      </trkpt>
      <trkpt lat="45.60673" lon="6.67422">
        <ele>1609.5</ele>
        <time>2012-02-18T14:43:38Z</time>
      </trkpt>
      <trkpt lat="45.60668" lon="6.67416">
        <ele>1608.8</ele>
        <time>2012-02-18T14:43:39Z</time>
      </trkpt>
      <trkpt lat="45.60663" lon="6.67411">
        <ele>1607.9</ele>
        <time>2012-02-18T14:43:40Z</time>
      </trkpt>
      <trkpt lat="45.60657" lon="6.67406">
        <ele>1607.3</ele>
        <time>2012-02-18T14:43:41Z</time>
      </trkpt>
      <trkpt lat="45.60652" lon="6.67401">
        <ele>1606.8</ele>
        <time>2012-02-18T14:43:42Z</time>
      </trkpt>
      <trkpt lat="45.60647" lon="6.67396">
        <ele>1606.1</ele>
        <time>2012-02-18T14:43:43Z</time>
      </trkpt>
      <trkpt lat="45.60641" lon="6.67394">
        <ele>1605.6</ele>
        <time>2012-02-18T14:43:44Z</time>
      </trkpt>
      <trkpt lat="45.60635" lon="6.67393">
        <ele>1604.6</ele>
        <time>2012-02-18T14:43:45Z</time>
      </trkpt>
      <trkpt lat="45.6063" lon="6.67393">
        <ele>1603.9</ele>
        <time>2012-02-18T14:43:46Z</time>
      </trkpt>
      <trkpt lat="45.60624" lon="6.67392">
        <ele>1603.4</ele>
        <time>2012-02-18T14:43:47Z</time>
      </trkpt>
      <trkpt lat="45.60619" lon="6.67392">
        <ele>1603.2</ele>
        <time>2012-02-18T14:43:48Z</time>
      </trkpt>
      <trkpt lat="45.6061" lon="6.67393">
        <ele>1602.9</ele>
        <time>2012-02-18T14:43:50Z</time>
      </trkpt>
      <trkpt lat="45.60603" lon="6.67395">
        <ele>1602.9</ele>
        <time>2012-02-18T14:43:52Z</time>
      </trkpt>
      <trkpt lat="45.60595" lon="6.67396">
        <ele>1603.1</ele>
        <time>2012-02-18T14:43:54Z</time>
      </trkpt>
      <trkpt lat="45.60591" lon="6.67395">
        <ele>1602.6</ele>
        <time>2012-02-18T14:43:55Z</time>
      </trkpt>
      <trkpt lat="45.60585" lon="6.67394">
        <ele>1602.3</ele>
        <time>2012-02-18T14:43:56Z</time>
      </trkpt>
      <trkpt lat="45.6058" lon="6.67393">
        <ele>1601.6</ele>
        <time>2012-02-18T14:43:57Z</time>
      </trkpt>
      <trkpt lat="45.60575" lon="6.67391">
        <ele>1601.1</ele>
        <time>2012-02-18T14:43:58Z</time>
      </trkpt>
      <trkpt lat="45.60569" lon="6.67389">
        <ele>1600.3</ele>
        <time>2012-02-18T14:43:59Z</time>
      </trkpt>
      <trkpt lat="45.60564" lon="6.67387">
        <ele>1599.8</ele>
        <time>2012-02-18T14:44:00Z</time>
      </trkpt>
      <trkpt lat="45.60559" lon="6.67384">
        <ele>1599.3</ele>
        <time>2012-02-18T14:44:01Z</time>
      </trkpt>
      <trkpt lat="45.60555" lon="6.67381">
        <ele>1598.7</ele>
        <time>2012-02-18T14:44:02Z</time>
      </trkpt>
      <trkpt lat="45.6055" lon="6.67378">
        <ele>1598.3</ele>
        <time>2012-02-18T14:44:03Z</time>
      </trkpt>
      <trkpt lat="45.60545" lon="6.67375">
        <ele>1597.6</ele>
        <time>2012-02-18T14:44:04Z</time>
      </trkpt>
      <trkpt lat="45.6054" lon="6.67371">
        <ele>1597.1</ele>
        <time>2012-02-18T14:44:05Z</time>
      </trkpt>
      <trkpt lat="45.60535" lon="6.67367">
        <ele>1596.7</ele>
        <time>2012-02-18T14:44:06Z</time>
      </trkpt>
      <trkpt lat="45.60531" lon="6.67363">
        <ele>1596.1</ele>
        <time>2012-02-18T14:44:07Z</time>
      </trkpt>
      <trkpt lat="45.60526" lon="6.67359">
        <ele>1595.7</ele>
        <time>2012-02-18T14:44:08Z</time>
      </trkpt>
      <trkpt lat="45.60521" lon="6.67355">
        <ele>1594.9</ele>
        <time>2012-02-18T14:44:09Z</time>
      </trkpt>
      <trkpt lat="45.60517" lon="6.6735">
        <ele>1594.4</ele>
        <time>2012-02-18T14:44:10Z</time>
      </trkpt>
      <trkpt lat="45.60512" lon="6.67345">
        <ele>1593.7</ele>
        <time>2012-02-18T14:44:11Z</time>
      </trkpt>
      <trkpt lat="45.60508" lon="6.6734">
        <ele>1593.2</ele>
        <time>2012-02-18T14:44:12Z</time>
      </trkpt>
      <trkpt lat="45.60503" lon="6.67336">
        <ele>1592.8</ele>
        <time>2012-02-18T14:44:13Z</time>
      </trkpt>
      <trkpt lat="45.60499" lon="6.67331">
        <ele>1592.2</ele>
        <time>2012-02-18T14:44:14Z</time>
      </trkpt>
      <trkpt lat="45.60495" lon="6.67326">
        <ele>1591.8</ele>
        <time>2012-02-18T14:44:15Z</time>
      </trkpt>
      <trkpt lat="45.60491" lon="6.67322">
        <ele>1591.2</ele>
        <time>2012-02-18T14:44:16Z</time>
      </trkpt>
      <trkpt lat="45.60487" lon="6.67316">
        <ele>1590.7</ele>
        <time>2012-02-18T14:44:17Z</time>
      </trkpt>
      <trkpt lat="45.60482" lon="6.67311">
        <ele>1589.9</ele>
        <time>2012-02-18T14:44:18Z</time>
      </trkpt>
      <trkpt lat="45.60477" lon="6.67305">
        <ele>1589.3</ele>
        <time>2012-02-18T14:44:19Z</time>
      </trkpt>
      <trkpt lat="45.60473" lon="6.67299">
        <ele>1588.8</ele>
        <time>2012-02-18T14:44:20Z</time>
      </trkpt>
      <trkpt lat="45.60468" lon="6.67294">
        <ele>1588.2</ele>
        <time>2012-02-18T14:44:21Z</time>
      </trkpt>
      <trkpt lat="45.60463" lon="6.67291">
        <ele>1587.8</ele>
        <time>2012-02-18T14:44:22Z</time>
      </trkpt>
      <trkpt lat="45.60459" lon="6.67288">
        <ele>1587.3</ele>
        <time>2012-02-18T14:44:23Z</time>
      </trkpt>
      <trkpt lat="45.60454" lon="6.67286">
        <ele>1586.9</ele>
        <time>2012-02-18T14:44:24Z</time>
      </trkpt>
      <trkpt lat="45.60448" lon="6.67285">
        <ele>1586.6</ele>
        <time>2012-02-18T14:44:25Z</time>
      </trkpt>
      <trkpt lat="45.60443" lon="6.67283">
        <ele>1586.4</ele>
        <time>2012-02-18T14:44:26Z</time>
      </trkpt>
      <trkpt lat="45.60437" lon="6.67281">
        <ele>1586.3</ele>
        <time>2012-02-18T14:44:27Z</time>
      </trkpt>
      <trkpt lat="45.60432" lon="6.6728">
        <ele>1585.9</ele>
        <time>2012-02-18T14:44:28Z</time>
      </trkpt>
      <trkpt lat="45.60426" lon="6.67279">
        <ele>1585.5</ele>
        <time>2012-02-18T14:44:29Z</time>
      </trkpt>
      <trkpt lat="45.60419" lon="6.67279">
        <ele>1584.9</ele>
        <time>2012-02-18T14:44:30Z</time>
      </trkpt>
      <trkpt lat="45.60413" lon="6.67279">
        <ele>1584.5</ele>
        <time>2012-02-18T14:44:31Z</time>
      </trkpt>
      <trkpt lat="45.60406" lon="6.67279">
        <ele>1584.1</ele>
        <time>2012-02-18T14:44:32Z</time>
      </trkpt>
      <trkpt lat="45.604" lon="6.67279">
        <ele>1583.5</ele>
        <time>2012-02-18T14:44:33Z</time>
      </trkpt>
      <trkpt lat="45.60394" lon="6.67277">
        <ele>1583.1</ele>
        <time>2012-02-18T14:44:34Z</time>
      </trkpt>
      <trkpt lat="45.60387" lon="6.67275">
        <ele>1582.4</ele>
        <time>2012-02-18T14:44:35Z</time>
      </trkpt>
      <trkpt lat="45.60381" lon="6.67273">
        <ele>1581.9</ele>
        <time>2012-02-18T14:44:36Z</time>
      </trkpt>
      <trkpt lat="45.60375" lon="6.6727">
        <ele>1580.7</ele>
        <time>2012-02-18T14:44:37Z</time>
      </trkpt>
      <trkpt lat="45.60368" lon="6.67267">
        <ele>1579.8</ele>
        <time>2012-02-18T14:44:38Z</time>
      </trkpt>
      <trkpt lat="45.60362" lon="6.67264">
        <ele>1579.2</ele>
        <time>2012-02-18T14:44:39Z</time>
      </trkpt>
      <trkpt lat="45.60355" lon="6.67262">
        <ele>1578.4</ele>
        <time>2012-02-18T14:44:40Z</time>
      </trkpt>
      <trkpt lat="45.60349" lon="6.6726">
        <ele>1577.8</ele>
        <time>2012-02-18T14:44:41Z</time>
      </trkpt>
      <trkpt lat="45.60343" lon="6.67256">
        <ele>1577.1</ele>
        <time>2012-02-18T14:44:42Z</time>
      </trkpt>
      <trkpt lat="45.60338" lon="6.67252">
        <ele>1576.6</ele>
        <time>2012-02-18T14:44:43Z</time>
      </trkpt>
      <trkpt lat="45.60333" lon="6.67248">
        <ele>1576.1</ele>
        <time>2012-02-18T14:44:44Z</time>
      </trkpt>
      <trkpt lat="45.60328" lon="6.67244">
        <ele>1575.7</ele>
        <time>2012-02-18T14:44:45Z</time>
      </trkpt>
      <trkpt lat="45.60324" lon="6.6724">
        <ele>1575.4</ele>
        <time>2012-02-18T14:44:46Z</time>
      </trkpt>
      <trkpt lat="45.60318" lon="6.67232">
        <ele>1575</ele>
        <time>2012-02-18T14:44:48Z</time>
      </trkpt>
      <trkpt lat="45.60313" lon="6.67225">
        <ele>1574.1</ele>
        <time>2012-02-18T14:44:50Z</time>
      </trkpt>
      <trkpt lat="45.60307" lon="6.67217">
        <ele>1574.1</ele>
        <time>2012-02-18T14:44:54Z</time>
      </trkpt>
      <trkpt lat="45.60301" lon="6.67208">
        <ele>1574.4</ele>
        <time>2012-02-18T14:44:58Z</time>
      </trkpt>
      <trkpt lat="45.60296" lon="6.672">
        <ele>1574.2</ele>
        <time>2012-02-18T14:45:01Z</time>
      </trkpt>
      <trkpt lat="45.60291" lon="6.67192">
        <ele>1574.7</ele>
        <time>2012-02-18T14:45:05Z</time>
      </trkpt>
      <trkpt lat="45.60287" lon="6.67184">
        <ele>1572.9</ele>
        <time>2012-02-18T14:45:07Z</time>
      </trkpt>
      <trkpt lat="45.60282" lon="6.67175">
        <ele>1571.6</ele>
        <time>2012-02-18T14:45:09Z</time>
      </trkpt>
      <trkpt lat="45.60276" lon="6.67169">
        <ele>1570.9</ele>
        <time>2012-02-18T14:45:11Z</time>
      </trkpt>
      <trkpt lat="45.6027" lon="6.67164">
        <ele>1570.5</ele>
        <time>2012-02-18T14:45:13Z</time>
      </trkpt>
      <trkpt lat="45.60268" lon="6.67152">
        <ele>1569.2</ele>
        <time>2012-02-18T14:46:07Z</time>
      </trkpt>
      <trkpt lat="45.60267" lon="6.67151">
        <ele>1569.1</ele>
        <time>2012-02-18T14:46:08Z</time>
      </trkpt>
      <trkpt lat="45.60253" lon="6.67144">
        <ele>1566.7</ele>
        <time>2012-02-18T14:46:23Z</time>
      </trkpt>
      <trkpt lat="45.60251" lon="6.67133">
        <ele>1565.4</ele>
        <time>2012-02-18T14:46:26Z</time>
      </trkpt>
      <trkpt lat="45.60248" lon="6.67123">
        <ele>1564</ele>
        <time>2012-02-18T14:46:30Z</time>
      </trkpt>
      <trkpt lat="45.60244" lon="6.67117">
        <ele>1563.4</ele>
        <time>2012-02-18T14:46:32Z</time>
      </trkpt>
      <trkpt lat="45.60238" lon="6.67121">
        <ele>1561.3</ele>
        <time>2012-02-18T14:46:36Z</time>
      </trkpt>
      <trkpt lat="45.60229" lon="6.6712">
        <ele>1559</ele>
        <time>2012-02-18T14:46:40Z</time>
      </trkpt>
      <trkpt lat="45.60225" lon="6.67128">
        <ele>1555.8</ele>
        <time>2012-02-18T14:46:45Z</time>
      </trkpt>
      <trkpt lat="45.60217" lon="6.67124">
        <ele>1553.8</ele>
        <time>2012-02-18T14:46:49Z</time>
      </trkpt>
      <trkpt lat="45.60209" lon="6.67125">
        <ele>1550.6</ele>
        <time>2012-02-18T14:46:57Z</time>
      </trkpt>
      <trkpt lat="45.60203" lon="6.67128">
        <ele>1549.6</ele>
        <time>2012-02-18T14:47:01Z</time>
      </trkpt>
      <trkpt lat="45.60194" lon="6.67125">
        <ele>1547.1</ele>
        <time>2012-02-18T14:47:06Z</time>
      </trkpt>
      <trkpt lat="45.60187" lon="6.67124">
        <ele>1544.5</ele>
        <time>2012-02-18T14:47:10Z</time>
      </trkpt>
      <trkpt lat="45.60185" lon="6.67123">
        <ele>1544.1</ele>
        <time>2012-02-18T14:47:11Z</time>
      </trkpt>
      <trkpt lat="45.60172" lon="6.67123">
        <ele>1541.6</ele>
        <time>2012-02-18T14:47:31Z</time>
      </trkpt>
      <trkpt lat="45.60166" lon="6.67126">
        <ele>1540.1</ele>
        <time>2012-02-18T14:47:33Z</time>
      </trkpt>
      <trkpt lat="45.60159" lon="6.67127">
        <ele>1538.8</ele>
        <time>2012-02-18T14:47:35Z</time>
      </trkpt>
      <trkpt lat="45.60152" lon="6.67119">
        <ele>1537.3</ele>
        <time>2012-02-18T14:47:38Z</time>
      </trkpt>
      <trkpt lat="45.60144" lon="6.67123">
        <ele>1535.1</ele>
        <time>2012-02-18T14:47:42Z</time>
      </trkpt>
      <trkpt lat="45.60137" lon="6.67132">
        <ele>1533.5</ele>
        <time>2012-02-18T14:47:45Z</time>
      </trkpt>
      <trkpt lat="45.6013" lon="6.67128">
        <ele>1532.2</ele>
        <time>2012-02-18T14:47:47Z</time>
      </trkpt>
      <trkpt lat="45.60127" lon="6.67119">
        <ele>1531</ele>
        <time>2012-02-18T14:47:50Z</time>
      </trkpt>
      <trkpt lat="45.60119" lon="6.67115">
        <ele>1529.5</ele>
        <time>2012-02-18T14:47:53Z</time>
      </trkpt>
      <trkpt lat="45.60111" lon="6.67122">
        <ele>1528.2</ele>
        <time>2012-02-18T14:47:56Z</time>
      </trkpt>
      <trkpt lat="45.60104" lon="6.67119">
        <ele>1526.8</ele>
        <time>2012-02-18T14:47:58Z</time>
      </trkpt>
      <trkpt lat="45.60096" lon="6.67119">
        <ele>1523.5</ele>
        <time>2012-02-18T14:48:02Z</time>
      </trkpt>
      <trkpt lat="45.60088" lon="6.67117">
        <ele>1521</ele>
        <time>2012-02-18T14:48:05Z</time>
      </trkpt>
      <trkpt lat="45.60086" lon="6.67108">
        <ele>1519.3</ele>
        <time>2012-02-18T14:48:07Z</time>
      </trkpt>
      <trkpt lat="45.60082" lon="6.67098">
        <ele>1518.5</ele>
        <time>2012-02-18T14:48:09Z</time>
      </trkpt>
      <trkpt lat="45.60078" lon="6.67087">
        <ele>1517.5</ele>
        <time>2012-02-18T14:48:11Z</time>
      </trkpt>
      <trkpt lat="45.60075" lon="6.6708">
        <ele>1516.8</ele>
        <time>2012-02-18T14:48:12Z</time>
      </trkpt>
      <trkpt lat="45.60073" lon="6.67068">
        <ele>1514.4</ele>
        <time>2012-02-18T14:48:15Z</time>
      </trkpt>
      <trkpt lat="45.60067" lon="6.67061">
        <ele>1513.1</ele>
        <time>2012-02-18T14:48:52Z</time>
      </trkpt>
      <trkpt lat="45.60062" lon="6.67056">
        <ele>1512.3</ele>
        <time>2012-02-18T14:48:54Z</time>
      </trkpt>
      <trkpt lat="45.60054" lon="6.67053">
        <ele>1510.5</ele>
        <time>2012-02-18T14:48:57Z</time>
      </trkpt>
      <trkpt lat="45.60047" lon="6.67047">
        <ele>1508</ele>
        <time>2012-02-18T14:48:59Z</time>
      </trkpt>
      <trkpt lat="45.60044" lon="6.67042">
        <ele>1507.1</ele>
        <time>2012-02-18T14:49:00Z</time>
      </trkpt>
      <trkpt lat="45.60037" lon="6.67035">
        <ele>1506.4</ele>
        <time>2012-02-18T14:49:02Z</time>
      </trkpt>
      <trkpt lat="45.60031" lon="6.67028">
        <ele>1504.9</ele>
        <time>2012-02-18T14:49:04Z</time>
      </trkpt>
      <trkpt lat="45.60023" lon="6.67025">
        <ele>1503.3</ele>
        <time>2012-02-18T14:49:07Z</time>
      </trkpt>
      <trkpt lat="45.60016" lon="6.67024">
        <ele>1502</ele>
        <time>2012-02-18T14:49:10Z</time>
      </trkpt>
      <trkpt lat="45.60009" lon="6.67022">
        <ele>1501.9</ele>
        <time>2012-02-18T14:49:12Z</time>
      </trkpt>
      <trkpt lat="45.60005" lon="6.6702">
        <ele>1501.5</ele>
        <time>2012-02-18T14:49:13Z</time>
      </trkpt>
      <trkpt lat="45.59995" lon="6.67021">
        <ele>1499.6</ele>
        <time>2012-02-18T14:49:16Z</time>
      </trkpt>
      <trkpt lat="45.59989" lon="6.67021">
        <ele>1499.2</ele>
        <time>2012-02-18T14:49:18Z</time>
      </trkpt>
      <trkpt lat="45.59982" lon="6.6702">
        <ele>1498.2</ele>
        <time>2012-02-18T14:49:20Z</time>
      </trkpt>
      <trkpt lat="45.59974" lon="6.67019">
        <ele>1497</ele>
        <time>2012-02-18T14:49:22Z</time>
      </trkpt>
      <trkpt lat="45.59965" lon="6.67017">
        <ele>1496.2</ele>
        <time>2012-02-18T14:49:24Z</time>
      </trkpt>
      <trkpt lat="45.59957" lon="6.67016">
        <ele>1496.1</ele>
        <time>2012-02-18T14:49:26Z</time>
      </trkpt>
      <trkpt lat="45.59949" lon="6.67014">
        <ele>1495.5</ele>
        <time>2012-02-18T14:49:28Z</time>
      </trkpt>
      <trkpt lat="45.59942" lon="6.67012">
        <ele>1494.4</ele>
        <time>2012-02-18T14:49:30Z</time>
      </trkpt>
      <trkpt lat="45.59934" lon="6.67007">
        <ele>1493.1</ele>
        <time>2012-02-18T14:49:32Z</time>
      </trkpt>
      <trkpt lat="45.59926" lon="6.67002">
        <ele>1491.5</ele>
        <time>2012-02-18T14:49:34Z</time>
      </trkpt>
      <trkpt lat="45.5992" lon="6.66995">
        <ele>1490.4</ele>
        <time>2012-02-18T14:49:36Z</time>
      </trkpt>
      <trkpt lat="45.59915" lon="6.66989">
        <ele>1490</ele>
        <time>2012-02-18T14:49:38Z</time>
      </trkpt>
      <trkpt lat="45.59909" lon="6.66982">
        <ele>1488.9</ele>
        <time>2012-02-18T14:49:40Z</time>
      </trkpt>
      <trkpt lat="45.59903" lon="6.66974">
        <ele>1488.2</ele>
        <time>2012-02-18T14:49:42Z</time>
      </trkpt>
      <trkpt lat="45.59897" lon="6.66967">
        <ele>1487.8</ele>
        <time>2012-02-18T14:49:44Z</time>
      </trkpt>
      <trkpt lat="45.59891" lon="6.66961">
        <ele>1487.5</ele>
        <time>2012-02-18T14:49:46Z</time>
      </trkpt>
      <trkpt lat="45.59882" lon="6.66956">
        <ele>1486.6</ele>
        <time>2012-02-18T14:49:48Z</time>
      </trkpt>
      <trkpt lat="45.59875" lon="6.66953">
        <ele>1485.7</ele>
        <time>2012-02-18T14:49:50Z</time>
      </trkpt>
      <trkpt lat="45.59867" lon="6.6695">
        <ele>1484.9</ele>
        <time>2012-02-18T14:49:52Z</time>
      </trkpt>
      <trkpt lat="45.5986" lon="6.66949">
        <ele>1484.5</ele>
        <time>2012-02-18T14:49:54Z</time>
      </trkpt>
      <trkpt lat="45.59854" lon="6.66949">
        <ele>1483.7</ele>
        <time>2012-02-18T14:49:56Z</time>
      </trkpt>
      <trkpt lat="45.59847" lon="6.6695">
        <ele>1482.7</ele>
        <time>2012-02-18T14:49:58Z</time>
      </trkpt>
      <trkpt lat="45.59839" lon="6.66951">
        <ele>1482</ele>
        <time>2012-02-18T14:50:00Z</time>
      </trkpt>
      <trkpt lat="45.59831" lon="6.66953">
        <ele>1481.8</ele>
        <time>2012-02-18T14:50:02Z</time>
      </trkpt>
      <trkpt lat="45.59823" lon="6.66954">
        <ele>1480.7</ele>
        <time>2012-02-18T14:50:04Z</time>
      </trkpt>
      <trkpt lat="45.59818" lon="6.66955">
        <ele>1480.4</ele>
        <time>2012-02-18T14:50:05Z</time>
      </trkpt>
      <trkpt lat="45.59813" lon="6.66955">
        <ele>1480.2</ele>
        <time>2012-02-18T14:50:06Z</time>
      </trkpt>
      <trkpt lat="45.59805" lon="6.66955">
        <ele>1479.2</ele>
        <time>2012-02-18T14:50:08Z</time>
      </trkpt>
      <trkpt lat="45.59798" lon="6.66955">
        <ele>1478.3</ele>
        <time>2012-02-18T14:50:10Z</time>
      </trkpt>
      <trkpt lat="45.5979" lon="6.66956">
        <ele>1477.2</ele>
        <time>2012-02-18T14:50:12Z</time>
      </trkpt>
      <trkpt lat="45.59782" lon="6.66956">
        <ele>1476.3</ele>
        <time>2012-02-18T14:50:14Z</time>
      </trkpt>
      <trkpt lat="45.59778" lon="6.66957">
        <ele>1476.1</ele>
        <time>2012-02-18T14:50:15Z</time>
      </trkpt>
      <trkpt lat="45.59769" lon="6.66958">
        <ele>1475.1</ele>
        <time>2012-02-18T14:50:18Z</time>
      </trkpt>
      <trkpt lat="45.59762" lon="6.66959">
        <ele>1474.6</ele>
        <time>2012-02-18T14:50:20Z</time>
      </trkpt>
      <trkpt lat="45.59754" lon="6.66959">
        <ele>1474</ele>
        <time>2012-02-18T14:50:23Z</time>
      </trkpt>
      <trkpt lat="45.59748" lon="6.66953">
        <ele>1473.6</ele>
        <time>2012-02-18T14:50:40Z</time>
      </trkpt>
      <trkpt lat="45.59743" lon="6.66945">
        <ele>1472.7</ele>
        <time>2012-02-18T14:50:48Z</time>
      </trkpt>
      <trkpt lat="45.59739" lon="6.66933">
        <ele>1471.7</ele>
        <time>2012-02-18T14:50:52Z</time>
      </trkpt>
      <trkpt lat="45.59736" lon="6.66922">
        <ele>1470.4</ele>
        <time>2012-02-18T14:50:55Z</time>
      </trkpt>
      <trkpt lat="45.59734" lon="6.66913">
        <ele>1469.7</ele>
        <time>2012-02-18T14:50:57Z</time>
      </trkpt>
      <trkpt lat="45.59733" lon="6.66903">
        <ele>1469.5</ele>
        <time>2012-02-18T14:50:59Z</time>
      </trkpt>
      <trkpt lat="45.59733" lon="6.66894">
        <ele>1469.2</ele>
        <time>2012-02-18T14:51:01Z</time>
      </trkpt>
      <trkpt lat="45.59732" lon="6.66883">
        <ele>1468.7</ele>
        <time>2012-02-18T14:51:03Z</time>
      </trkpt>
      <trkpt lat="45.59733" lon="6.66872">
        <ele>1467.6</ele>
        <time>2012-02-18T14:51:05Z</time>
      </trkpt>
      <trkpt lat="45.59733" lon="6.6686">
        <ele>1466.9</ele>
        <time>2012-02-18T14:51:07Z</time>
      </trkpt>
      <trkpt lat="45.59732" lon="6.66849">
        <ele>1465.7</ele>
        <time>2012-02-18T14:51:09Z</time>
      </trkpt>
      <trkpt lat="45.59729" lon="6.66838">
        <ele>1464.4</ele>
        <time>2012-02-18T14:51:11Z</time>
      </trkpt>
      <trkpt lat="45.59725" lon="6.66828">
        <ele>1463.7</ele>
        <time>2012-02-18T14:51:13Z</time>
      </trkpt>
      <trkpt lat="45.5972" lon="6.66818">
        <ele>1462.8</ele>
        <time>2012-02-18T14:51:15Z</time>
      </trkpt>
      <trkpt lat="45.59716" lon="6.66813">
        <ele>1462.7</ele>
        <time>2012-02-18T14:51:16Z</time>
      </trkpt>
      <trkpt lat="45.59707" lon="6.66803">
        <ele>1461.9</ele>
        <time>2012-02-18T14:51:19Z</time>
      </trkpt>
      <trkpt lat="45.597" lon="6.66797">
        <ele>1460.8</ele>
        <time>2012-02-18T14:51:21Z</time>
      </trkpt>
      <trkpt lat="45.59696" lon="6.66793">
        <ele>1460.4</ele>
        <time>2012-02-18T14:51:22Z</time>
      </trkpt>
      <trkpt lat="45.59688" lon="6.66786">
        <ele>1459.1</ele>
        <time>2012-02-18T14:51:24Z</time>
      </trkpt>
      <trkpt lat="45.59681" lon="6.6678">
        <ele>1458.2</ele>
        <time>2012-02-18T14:51:26Z</time>
      </trkpt>
      <trkpt lat="45.59675" lon="6.66774">
        <ele>1457.2</ele>
        <time>2012-02-18T14:51:28Z</time>
      </trkpt>
      <trkpt lat="45.59666" lon="6.66771">
        <ele>1455.7</ele>
        <time>2012-02-18T14:51:32Z</time>
      </trkpt>
      <trkpt lat="45.59658" lon="6.66773">
        <ele>1454.3</ele>
        <time>2012-02-18T14:51:41Z</time>
      </trkpt>
      <trkpt lat="45.59651" lon="6.66771">
        <ele>1453.1</ele>
        <time>2012-02-18T14:51:45Z</time>
      </trkpt>
      <trkpt lat="45.59644" lon="6.66771">
        <ele>1452.7</ele>
        <time>2012-02-18T14:51:48Z</time>
      </trkpt>
      <trkpt lat="45.59636" lon="6.66773">
        <ele>1452.4</ele>
        <time>2012-02-18T14:51:51Z</time>
      </trkpt>
      <trkpt lat="45.59629" lon="6.66774">
        <ele>1451.4</ele>
        <time>2012-02-18T14:51:53Z</time>
      </trkpt>
      <trkpt lat="45.59622" lon="6.66776">
        <ele>1450.9</ele>
        <time>2012-02-18T14:51:55Z</time>
      </trkpt>
      <trkpt lat="45.59616" lon="6.66776">
        <ele>1450.2</ele>
        <time>2012-02-18T14:51:57Z</time>
      </trkpt>
      <trkpt lat="45.59609" lon="6.66776">
        <ele>1449.1</ele>
        <time>2012-02-18T14:51:59Z</time>
      </trkpt>
      <trkpt lat="45.59602" lon="6.66784">
        <ele>1448</ele>
        <time>2012-02-18T14:52:03Z</time>
      </trkpt>
      <trkpt lat="45.59603" lon="6.66793">
        <ele>1447.2</ele>
        <time>2012-02-18T14:52:05Z</time>
      </trkpt>
      <trkpt lat="45.59609" lon="6.66798">
        <ele>1446.1</ele>
        <time>2012-02-18T14:52:07Z</time>
      </trkpt>
      <trkpt lat="45.59616" lon="6.66801">
        <ele>1445.9</ele>
        <time>2012-02-18T14:52:09Z</time>
      </trkpt>
      <trkpt lat="45.59623" lon="6.66806">
        <ele>1445.2</ele>
        <time>2012-02-18T14:52:11Z</time>
      </trkpt>
      <trkpt lat="45.59628" lon="6.66814">
        <ele>1444.2</ele>
        <time>2012-02-18T14:52:13Z</time>
      </trkpt>
      <trkpt lat="45.59633" lon="6.66821">
        <ele>1443.3</ele>
        <time>2012-02-18T14:52:15Z</time>
      </trkpt>
      <trkpt lat="45.59638" lon="6.66829">
        <ele>1442.5</ele>
        <time>2012-02-18T14:52:17Z</time>
      </trkpt>
      <trkpt lat="45.59639" lon="6.66835">
        <ele>1442.5</ele>
        <time>2012-02-18T14:52:18Z</time>
      </trkpt>
      <trkpt lat="45.59638" lon="6.66855">
        <ele>1441.7</ele>
        <time>2012-02-18T14:52:21Z</time>
      </trkpt>
      <trkpt lat="45.59638" lon="6.66866">
        <ele>1441.1</ele>
        <time>2012-02-18T14:52:23Z</time>
      </trkpt>
      <trkpt lat="45.59638" lon="6.66876">
        <ele>1440.5</ele>
        <time>2012-02-18T14:52:25Z</time>
      </trkpt>
      <trkpt lat="45.59637" lon="6.66887">
        <ele>1439.6</ele>
        <time>2012-02-18T14:52:27Z</time>
      </trkpt>
      <trkpt lat="45.59636" lon="6.669">
        <ele>1438.7</ele>
        <time>2012-02-18T14:52:29Z</time>
      </trkpt>
      <trkpt lat="45.59637" lon="6.6691">
        <ele>1437.8</ele>
        <time>2012-02-18T14:52:31Z</time>
      </trkpt>
      <trkpt lat="45.59637" lon="6.66917">
        <ele>1436.9</ele>
        <time>2012-02-18T14:52:32Z</time>
      </trkpt>
      <trkpt lat="45.59637" lon="6.66924">
        <ele>1436.2</ele>
        <time>2012-02-18T14:52:33Z</time>
      </trkpt>
      <trkpt lat="45.59637" lon="6.66936">
        <ele>1435.6</ele>
        <time>2012-02-18T14:52:35Z</time>
      </trkpt>
      <trkpt lat="45.59639" lon="6.66947">
        <ele>1434.8</ele>
        <time>2012-02-18T14:52:37Z</time>
      </trkpt>
      <trkpt lat="45.59642" lon="6.66957">
        <ele>1433.7</ele>
        <time>2012-02-18T14:52:39Z</time>
      </trkpt>
      <trkpt lat="45.59645" lon="6.66968">
        <ele>1433.1</ele>
        <time>2012-02-18T14:52:41Z</time>
      </trkpt>
      <trkpt lat="45.59647" lon="6.66978">
        <ele>1432.4</ele>
        <time>2012-02-18T14:52:43Z</time>
      </trkpt>
      <trkpt lat="45.59648" lon="6.66986">
        <ele>1431.3</ele>
        <time>2012-02-18T14:52:45Z</time>
      </trkpt>
      <trkpt lat="45.59646" lon="6.66995">
        <ele>1431.1</ele>
        <time>2012-02-18T14:52:47Z</time>
      </trkpt>
      <trkpt lat="45.5964" lon="6.67003">
        <ele>1430.2</ele>
        <time>2012-02-18T14:52:50Z</time>
      </trkpt>
      <trkpt lat="45.59634" lon="6.67004">
        <ele>1429.6</ele>
        <time>2012-02-18T14:52:52Z</time>
      </trkpt>
      <trkpt lat="45.59627" lon="6.67003">
        <ele>1428.8</ele>
        <time>2012-02-18T14:52:54Z</time>
      </trkpt>
      <trkpt lat="45.5962" lon="6.67001">
        <ele>1428.3</ele>
        <time>2012-02-18T14:52:56Z</time>
      </trkpt>
      <trkpt lat="45.59612" lon="6.67">
        <ele>1427.7</ele>
        <time>2012-02-18T14:52:58Z</time>
      </trkpt>
      <trkpt lat="45.59605" lon="6.66996">
        <ele>1426.8</ele>
        <time>2012-02-18T14:53:00Z</time>
      </trkpt>
      <trkpt lat="45.596" lon="6.66995">
        <ele>1426.7</ele>
        <time>2012-02-18T14:53:01Z</time>
      </trkpt>
      <trkpt lat="45.59596" lon="6.66994">
        <ele>1426.7</ele>
        <time>2012-02-18T14:53:02Z</time>
      </trkpt>
      <trkpt lat="45.59591" lon="6.66993">
        <ele>1426</ele>
        <time>2012-02-18T14:53:03Z</time>
      </trkpt>
      <trkpt lat="45.59582" lon="6.66993">
        <ele>1424.8</ele>
        <time>2012-02-18T14:53:05Z</time>
      </trkpt>
      <trkpt lat="45.59575" lon="6.66993">
        <ele>1423.9</ele>
        <time>2012-02-18T14:53:07Z</time>
      </trkpt>
      <trkpt lat="45.59568" lon="6.66994">
        <ele>1423.6</ele>
        <time>2012-02-18T14:53:09Z</time>
      </trkpt>
      <trkpt lat="45.59562" lon="6.66994">
        <ele>1423.3</ele>
        <time>2012-02-18T14:53:11Z</time>
      </trkpt>
      <trkpt lat="45.59555" lon="6.66993">
        <ele>1423.2</ele>
        <time>2012-02-18T14:53:13Z</time>
      </trkpt>
      <trkpt lat="45.59549" lon="6.66992">
        <ele>1422.6</ele>
        <time>2012-02-18T14:53:15Z</time>
      </trkpt>
      <trkpt lat="45.59541" lon="6.6699">
        <ele>1422.1</ele>
        <time>2012-02-18T14:53:17Z</time>
      </trkpt>
      <trkpt lat="45.59534" lon="6.6699">
        <ele>1422</ele>
        <time>2012-02-18T14:53:19Z</time>
      </trkpt>
      <trkpt lat="45.59531" lon="6.66989">
        <ele>1421.5</ele>
        <time>2012-02-18T14:53:20Z</time>
      </trkpt>
      <trkpt lat="45.59521" lon="6.6699">
        <ele>1421</ele>
        <time>2012-02-18T14:53:23Z</time>
      </trkpt>
      <trkpt lat="45.59514" lon="6.66994">
        <ele>1420.7</ele>
        <time>2012-02-18T14:53:25Z</time>
      </trkpt>
      <trkpt lat="45.59508" lon="6.66998">
        <ele>1420.1</ele>
        <time>2012-02-18T14:53:27Z</time>
      </trkpt>
      <trkpt lat="45.59502" lon="6.67002">
        <ele>1419.1</ele>
        <time>2012-02-18T14:53:29Z</time>
      </trkpt>
      <trkpt lat="45.59495" lon="6.67006">
        <ele>1417.9</ele>
        <time>2012-02-18T14:53:31Z</time>
      </trkpt>
      <trkpt lat="45.59488" lon="6.67011">
        <ele>1417.1</ele>
        <time>2012-02-18T14:53:33Z</time>
      </trkpt>
      <trkpt lat="45.59483" lon="6.67018">
        <ele>1416.6</ele>
        <time>2012-02-18T14:53:35Z</time>
      </trkpt>
      <trkpt lat="45.59477" lon="6.67025">
        <ele>1416.2</ele>
        <time>2012-02-18T14:53:37Z</time>
      </trkpt>
      <trkpt lat="45.59471" lon="6.6703">
        <ele>1416.1</ele>
        <time>2012-02-18T14:53:39Z</time>
      </trkpt>
      <trkpt lat="45.59463" lon="6.67034">
        <ele>1416.2</ele>
        <time>2012-02-18T14:53:41Z</time>
      </trkpt>
      <trkpt lat="45.59455" lon="6.67036">
        <ele>1415.9</ele>
        <time>2012-02-18T14:53:43Z</time>
      </trkpt>
      <trkpt lat="45.59451" lon="6.67038">
        <ele>1415.6</ele>
        <time>2012-02-18T14:53:44Z</time>
      </trkpt>
      <trkpt lat="45.59446" lon="6.6704">
        <ele>1415.4</ele>
        <time>2012-02-18T14:53:45Z</time>
      </trkpt>
      <trkpt lat="45.59442" lon="6.67042">
        <ele>1415.3</ele>
        <time>2012-02-18T14:53:46Z</time>
      </trkpt>
      <trkpt lat="45.59437" lon="6.67044">
        <ele>1415.3</ele>
        <time>2012-02-18T14:53:47Z</time>
      </trkpt>
      <trkpt lat="45.59433" lon="6.67047">
        <ele>1414.7</ele>
        <time>2012-02-18T14:53:48Z</time>
      </trkpt>
      <trkpt lat="45.59429" lon="6.6705">
        <ele>1414.2</ele>
        <time>2012-02-18T14:53:49Z</time>
      </trkpt>
      <trkpt lat="45.59424" lon="6.67054">
        <ele>1413.3</ele>
        <time>2012-02-18T14:53:50Z</time>
      </trkpt>
      <trkpt lat="45.5942" lon="6.67057">
        <ele>1412.7</ele>
        <time>2012-02-18T14:53:51Z</time>
      </trkpt>
      <trkpt lat="45.59416" lon="6.67061">
        <ele>1412.2</ele>
        <time>2012-02-18T14:53:52Z</time>
      </trkpt>
      <trkpt lat="45.59412" lon="6.67064">
        <ele>1411.8</ele>
        <time>2012-02-18T14:53:53Z</time>
      </trkpt>
      <trkpt lat="45.59407" lon="6.67068">
        <ele>1411.6</ele>
        <time>2012-02-18T14:53:54Z</time>
      </trkpt>
      <trkpt lat="45.59403" lon="6.67072">
        <ele>1411.5</ele>
        <time>2012-02-18T14:53:55Z</time>
      </trkpt>
      <trkpt lat="45.59399" lon="6.67076">
        <ele>1411.4</ele>
        <time>2012-02-18T14:53:56Z</time>
      </trkpt>
      <trkpt lat="45.59391" lon="6.67079">
        <ele>1411</ele>
        <time>2012-02-18T14:53:58Z</time>
      </trkpt>
      <trkpt lat="45.59383" lon="6.6708">
        <ele>1410.5</ele>
        <time>2012-02-18T14:54:00Z</time>
      </trkpt>
      <trkpt lat="45.59376" lon="6.67081">
        <ele>1410.4</ele>
        <time>2012-02-18T14:54:02Z</time>
      </trkpt>
      <trkpt lat="45.59368" lon="6.67083">
        <ele>1410.3</ele>
        <time>2012-02-18T14:54:05Z</time>
      </trkpt>
      <trkpt lat="45.59361" lon="6.67084">
        <ele>1410.3</ele>
        <time>2012-02-18T14:54:08Z</time>
      </trkpt>
      <trkpt lat="45.59352" lon="6.67083">
        <ele>1410.3</ele>
        <time>2012-02-18T14:54:11Z</time>
      </trkpt>
      <trkpt lat="45.59345" lon="6.67081">
        <ele>1409.8</ele>
        <time>2012-02-18T14:54:14Z</time>
      </trkpt>
      <trkpt lat="45.59337" lon="6.67079">
        <ele>1409.9</ele>
        <time>2012-02-18T14:54:17Z</time>
      </trkpt>
      <trkpt lat="45.59329" lon="6.67076">
        <ele>1410</ele>
        <time>2012-02-18T14:54:21Z</time>
      </trkpt>
      <trkpt lat="45.59327" lon="6.67076">
        <ele>1410</ele>
        <time>2012-02-18T14:54:22Z</time>
      </trkpt>
      <trkpt lat="45.59314" lon="6.67076">
        <ele>1409.4</ele>
        <time>2012-02-18T14:54:27Z</time>
      </trkpt>
      <trkpt lat="45.59307" lon="6.67075">
        <ele>1409.9</ele>
        <time>2012-02-18T14:54:30Z</time>
      </trkpt>
      <trkpt lat="45.59298" lon="6.67075">
        <ele>1409.2</ele>
        <time>2012-02-18T14:54:34Z</time>
      </trkpt>
      <trkpt lat="45.5929" lon="6.67074">
        <ele>1408.8</ele>
        <time>2012-02-18T14:54:38Z</time>
      </trkpt>
      <trkpt lat="45.59282" lon="6.67073">
        <ele>1409.3</ele>
        <time>2012-02-18T14:54:43Z</time>
      </trkpt>
      <trkpt lat="45.59275" lon="6.67073">
        <ele>1409.4</ele>
        <time>2012-02-18T14:54:47Z</time>
      </trkpt>
      <trkpt lat="45.59269" lon="6.67073">
        <ele>1409.1</ele>
        <time>2012-02-18T14:54:50Z</time>
      </trkpt>
      <trkpt lat="45.59261" lon="6.67072">
        <ele>1409.1</ele>
        <time>2012-02-18T14:54:54Z</time>
      </trkpt>
      <trkpt lat="45.59252" lon="6.67072">
        <ele>1408.6</ele>
        <time>2012-02-18T14:54:58Z</time>
      </trkpt>
      <trkpt lat="45.59244" lon="6.67074">
        <ele>1408.4</ele>
        <time>2012-02-18T14:55:02Z</time>
      </trkpt>
      <trkpt lat="45.59236" lon="6.67077">
        <ele>1408.4</ele>
        <time>2012-02-18T14:55:06Z</time>
      </trkpt>
      <trkpt lat="45.59228" lon="6.6708">
        <ele>1407.9</ele>
        <time>2012-02-18T14:55:11Z</time>
      </trkpt>
      <trkpt lat="45.59219" lon="6.67082">
        <ele>1407.6</ele>
        <time>2012-02-18T14:55:17Z</time>
      </trkpt>
      <trkpt lat="45.59212" lon="6.67087">
        <ele>1408.4</ele>
        <time>2012-02-18T14:55:21Z</time>
      </trkpt>
      <trkpt lat="45.59204" lon="6.67089">
        <ele>1407.8</ele>
        <time>2012-02-18T14:55:27Z</time>
      </trkpt>
      <trkpt lat="45.59202" lon="6.67089">
        <ele>1407.7</ele>
        <time>2012-02-18T14:55:28Z</time>
      </trkpt>
      <trkpt lat="45.59187" lon="6.6709">
        <ele>1406.7</ele>
        <time>2012-02-18T14:55:37Z</time>
      </trkpt>
      <trkpt lat="45.59178" lon="6.6709">
        <ele>1407.5</ele>
        <time>2012-02-18T14:55:50Z</time>
      </trkpt>
      <trkpt lat="45.59171" lon="6.67095">
        <ele>1408.4</ele>
        <time>2012-02-18T14:57:30Z</time>
      </trkpt>
      <trkpt lat="45.59171" lon="6.67095">
        <ele>1408.4</ele>
        <time>2012-02-18T14:57:30Z</time>
      </trkpt>
    </trkseg>
  </trk>
</gpx>